| time (UTC) | temp F | wind direction | speed MPH | gust MPH | rain 1hr in | rain 24hr in | rain mn in | humidity % | barometer mb |
| 20260507195824 | 58 | 302 | 0.0 | 3.0 | 0.00 | 0.14 | 0.08 | 77 | 1009.6 |
| 20260507195730 | 58 | 97 | 0.0 | 3.0 | 0.00 | 0.14 | 0.08 | 77 | 1009.6 |
| 20260507195642 | 58 | 309 | 0.0 | 3.0 | 0.00 | 0.14 | 0.08 | 78 | 1009.6 |
| 20260507195512 | 58 | 90 | 0.0 | 3.0 | 0.00 | 0.14 | 0.08 | 78 | 1009.6 |
| 20260507195418 | 58 | 90 | 1.0 | 3.0 | 0.00 | 0.14 | 0.08 | 77 | 1009.6 |
| 20260507195325 | 58 | 98 | 1.0 | 3.0 | 0.00 | 0.14 | 0.08 | 77 | 1009.5 |
| 20260507195212 | 58 | 101 | 0.0 | 0.0 | 0.00 | 0.14 | 0.08 | 77 | 1009.6 |
| 20260507195119 | 58 | 5 | 0.0 | 0.0 | 0.00 | 0.14 | 0.08 | 77 | 1009.7 |
| 20260507195028 | 58 | 306 | 0.0 | 0.0 | 0.00 | 0.14 | 0.08 | 77 | 1009.7 |
| 20260507194920 | 58 | 49 | 0.0 | 0.0 | 0.00 | 0.14 | 0.08 | 78 | 1009.7 |
| 20260507194826 | 58 | 33 | 0.0 | 0.0 | 0.00 | 0.14 | 0.08 | 78 | 1009.7 |
| 20260507194731 | 58 | 33 | 0.0 | 0.0 | 0.00 | 0.14 | 0.08 | 77 | 1009.9 |
| 20260507194644 | 58 | 305 | 0.0 | 0.0 | 0.00 | 0.14 | 0.08 | 76 | 1009.9 |
| 20260507194546 | 57 | 305 | 0.0 | 0.0 | 0.00 | 0.14 | 0.08 | 76 | 1009.6 |
| 20260507194518 | 58 | 305 | 0.0 | 0.0 | 0.00 | 0.14 | 0.08 | 76 | 1009.9 |
| 20260507194452 | 58 | 305 | 0.0 | 0.0 | 0.00 | 0.15 | 0.08 | 76 | 1009.9 |
| 20260507194317 | 58 | 5 | 0.0 | 0.0 | 0.00 | 0.15 | 0.08 | 75 | 1009.9 |
| 20260507194227 | 58 | 317 | 0.0 | 0.0 | 0.00 | 0.15 | 0.08 | 75 | 1010.0 |
| 20260507194114 | 58 | 22 | 0.0 | 0.0 | 0.00 | 0.15 | 0.08 | 78 | 1010.0 |
| 20260507194044 | 58 | 315 | 0.0 | 0.0 | 0.00 | 0.15 | 0.08 | 75 | 1010.0 |
| 20260507193919 | 58 | 279 | 0.0 | 0.0 | 0.00 | 0.15 | 0.08 | 77 | 1010.0 |
| 20260507193825 | 58 | 38 | 0.0 | 0.0 | 0.00 | 0.15 | 0.08 | 77 | 1010.0 |
| 20260507193715 | 58 | 40 | 0.0 | 0.0 | 0.00 | 0.15 | 0.08 | 78 | 1009.9 |
| 20260507193622 | 58 | 23 | 0.0 | 0.0 | 0.00 | 0.15 | 0.08 | 77 | 1009.9 |
| 20260507193555 | 58 | 49 | 0.0 | 0.0 | 0.00 | 0.15 | 0.08 | 78 | 1009.9 |
| 20260507193420 | 58 | 73 | 0.0 | 0.0 | 0.00 | 0.15 | 0.08 | 79 | 1009.9 |
| 20260507193327 | 58 | 192 | 0.0 | 0.0 | 0.00 | 0.15 | 0.08 | 79 | 1009.9 |
| 20260507193213 | 58 | 18 | 0.0 | 0.0 | 0.00 | 0.15 | 0.08 | 77 | 1009.9 |
| 20260507193124 | 58 | 25 | 0.0 | 0.0 | 0.00 | 0.15 | 0.08 | 76 | 1009.9 |
| 20260507193033 | 57 | 55 | 0.0 | 0.0 | 0.00 | 0.15 | 0.08 | 76 | 1009.6 |
| 20260507193010 | 58 | 57 | 0.0 | 0.0 | 0.00 | 0.15 | 0.08 | 78 | 1010.0 |
| 20260507192923 | 58 | 57 | 0.0 | 0.0 | 0.00 | 0.15 | 0.08 | 77 | 1010.0 |
| 20260507192830 | 58 | 79 | 0.0 | 0.0 | 0.00 | 0.15 | 0.08 | 76 | 1010.1 |
| 20260507192711 | 58 | 71 | 0.0 | 0.0 | 0.00 | 0.15 | 0.08 | 76 | 1010.1 |
| 20260507192618 | 58 | 296 | 0.0 | 0.0 | 0.00 | 0.15 | 0.08 | 77 | 1010.1 |
| 20260507192509 | 58 | 296 | 0.0 | 0.0 | 0.00 | 0.15 | 0.08 | 79 | 1010.2 |
| 20260507192422 | 58 | 296 | 0.0 | 0.0 | 0.00 | 0.15 | 0.08 | 79 | 1010.2 |
| 20260507192309 | 58 | 296 | 0.0 | 0.0 | 0.00 | 0.15 | 0.08 | 76 | 1010.2 |
| 20260507192215 | 58 | 298 | 0.0 | 0.0 | 0.00 | 0.15 | 0.08 | 77 | 1010.2 |
| 20260507192121 | 58 | 306 | 0.0 | 0.0 | 0.00 | 0.15 | 0.08 | 77 | 1010.2 |
| 20260507192011 | 58 | 306 | 0.0 | 0.0 | 0.00 | 0.15 | 0.08 | 77 | 1010.2 |
| 20260507191944 | 58 | 306 | 0.0 | 0.0 | 0.00 | 0.15 | 0.08 | 76 | 1010.2 |
| 20260507191824 | 58 | 295 | 0.0 | 0.0 | 0.00 | 0.15 | 0.08 | 75 | 1010.2 |
| 20260507191738 | 58 | 292 | 0.0 | 0.0 | 0.00 | 0.15 | 0.08 | 76 | 1010.2 |
| 20260507191614 | 58 | 315 | 0.0 | 0.0 | 0.00 | 0.15 | 0.08 | 78 | 1010.2 |
| 20260507191527 | 58 | 360 | 0.0 | 0.0 | 0.00 | 0.15 | 0.08 | 78 | 1010.2 |
| 20260507191508 | 58 | 79 | 0.0 | 0.0 | 0.00 | 0.15 | 0.08 | 78 | 1009.8 |
| 20260507191417 | 58 | 34 | 0.0 | 0.0 | 0.00 | 0.15 | 0.08 | 78 | 1010.1 |
| 20260507191324 | 58 | 5 | 0.0 | 0.0 | 0.00 | 0.15 | 0.08 | 77 | 1010.1 |
| 20260507191210 | 58 | 5 | 0.0 | 0.0 | 0.00 | 0.15 | 0.08 | 79 | 1010.1 |
| 20260507191117 | 58 | 294 | 0.0 | 1.0 | 0.00 | 0.15 | 0.08 | 78 | 1010.1 |
| 20260507191030 | 58 | 294 | 0.0 | 1.0 | 0.00 | 0.15 | 0.08 | 76 | 1010.1 |
| 20260507190933 | 58 | 294 | 0.0 | 1.0 | 0.00 | 0.15 | 0.08 | 76 | 1010.1 |
| 20260507190836 | 59 | 37 | 0.0 | 1.0 | 0.00 | 0.15 | 0.08 | 76 | 1010.2 |
| 20260507190722 | 59 | 73 | 0.0 | 1.0 | 0.00 | 0.15 | 0.08 | 79 | 1010.2 |
| 20260507190635 | 59 | 61 | 0.0 | 1.0 | 0.00 | 0.15 | 0.08 | 77 | 1010.3 |
| 20260507190521 | 59 | 38 | 0.0 | 1.0 | 0.00 | 0.15 | 0.08 | 76 | 1010.3 |
| 20260507190428 | 59 | 58 | 0.0 | 1.0 | 0.00 | 0.15 | 0.08 | 76 | 1010.3 |
| 20260507190315 | 59 | 45 | 0.0 | 1.0 | 0.00 | 0.15 | 0.08 | 76 | 1010.3 |
| 20260507190226 | 59 | 20 | 0.0 | 1.0 | 0.00 | 0.15 | 0.08 | 76 | 1010.3 |
| 20260507190136 | 59 | 154 | 0.0 | 1.0 | 0.00 | 0.15 | 0.08 | 76 | 1010.4 |
| 20260507190024 | 58 | 202 | 0.0 | 2.0 | 0.00 | 0.15 | 0.08 | 76 | 1010.1 |
| 20260507190014 | 59 | 202 | 0.0 | 2.0 | 0.00 | 0.15 | 0.08 | 76 | 1010.4 |
| 20260507185927 | 59 | 195 | 0.0 | 2.0 | 0.00 | 0.15 | 0.08 | 76 | 1010.4 |
| 20260507185815 | 59 | 195 | 0.0 | 2.0 | 0.00 | 0.15 | 0.08 | 77 | 1010.4 |
| 20260507185725 | 59 | 186 | 0.0 | 2.0 | 0.00 | 0.15 | 0.08 | 77 | 1010.4 |
| 20260507185612 | 59 | 96 | 0.0 | 2.0 | 0.00 | 0.15 | 0.08 | 76 | 1010.4 |
| 20260507185545 | 59 | 96 | 0.0 | 2.0 | 0.00 | 0.15 | 0.08 | 76 | 1010.4 |
| 20260507185410 | 59 | 94 | 0.0 | 3.0 | 0.00 | 0.15 | 0.08 | 78 | 1010.4 |
| 20260507185317 | 59 | 95 | 0.0 | 3.0 | 0.00 | 0.15 | 0.08 | 78 | 1010.4 |
| 20260507185223 | 59 | 84 | 0.0 | 3.0 | 0.00 | 0.15 | 0.08 | 79 | 1010.4 |
| 20260507185114 | 58 | 322 | 0.0 | 3.0 | 0.00 | 0.15 | 0.08 | 78 | 1010.3 |
| 20260507185021 | 58 | 31 | 0.0 | 3.0 | 0.00 | 0.15 | 0.08 | 79 | 1010.3 |
| 20260507184934 | 58 | 123 | 0.0 | 3.0 | 0.00 | 0.15 | 0.08 | 80 | 1010.4 |
| 20260507184841 | 58 | 116 | 0.0 | 3.0 | 0.00 | 0.15 | 0.08 | 77 | 1010.4 |
| 20260507184726 | 58 | 105 | 0.0 | 3.0 | 0.00 | 0.15 | 0.08 | 76 | 1010.5 |
| 20260507184639 | 58 | 124 | 0.0 | 3.0 | 0.00 | 0.15 | 0.08 | 76 | 1010.5 |
| 20260507184605 | 57 | 118 | 0.0 | 3.0 | 0.00 | 0.15 | 0.08 | 76 | 1010.1 |
| 20260507184528 | 58 | 203 | 0.0 | 3.0 | 0.00 | 0.15 | 0.08 | 78 | 1010.4 |
| 20260507184414 | 58 | 87 | 0.0 | 0.0 | 0.00 | 0.15 | 0.08 | 78 | 1010.5 |
| 20260507184321 | 58 | 247 | 0.0 | 0.0 | 0.00 | 0.15 | 0.08 | 81 | 1010.5 |
| 20260507184235 | 58 | 261 | 0.0 | 0.0 | 0.00 | 0.15 | 0.08 | 81 | 1010.5 |
| 20260507184140 | 58 | 44 | 0.0 | 0.0 | 0.01 | 0.15 | 0.08 | 80 | 1010.5 |
| 20260507184026 | 57 | 53 | 0.0 | 0.0 | 0.01 | 0.15 | 0.08 | 80 | 1010.5 |
| 20260507183916 | 58 | 312 | 0.0 | 0.0 | 0.01 | 0.15 | 0.08 | 83 | 1010.6 |
| 20260507183849 | 58 | 80 | 0.0 | 0.0 | 0.01 | 0.15 | 0.08 | 84 | 1010.6 |
| 20260507183620 | 58 | 58 | 0.0 | 0.0 | 0.01 | 0.15 | 0.08 | 78 | 1010.5 |
| 20260507183533 | 58 | 49 | 0.0 | 0.0 | 0.01 | 0.15 | 0.08 | 79 | 1010.4 |
| 20260507183440 | 57 | 44 | 0.0 | 0.0 | 0.01 | 0.15 | 0.08 | 77 | 1010.4 |
| 20260507183309 | 58 | 44 | 0.0 | 0.0 | 0.01 | 0.15 | 0.08 | 77 | 1010.5 |
| 20260507183216 | 58 | 44 | 0.0 | 0.0 | 0.01 | 0.15 | 0.08 | 78 | 1010.5 |
| 20260507183122 | 57 | 44 | 0.0 | 0.0 | 0.01 | 0.15 | 0.08 | 81 | 1010.5 |
| 20260507183033 | 57 | 360 | 0.0 | 0.0 | 0.01 | 0.15 | 0.08 | 80 | 1010.2 |
| 20260507183009 | 57 | 360 | 0.0 | 0.0 | 0.01 | 0.15 | 0.08 | 80 | 1010.5 |
| 20260507182922 | 57 | 360 | 0.0 | 0.0 | 0.01 | 0.15 | 0.08 | 80 | 1010.5 |
| 20260507182809 | 57 | 277 | 0.0 | 0.0 | 0.01 | 0.15 | 0.08 | 80 | 1010.6 |
| 20260507182719 | 57 | 198 | 0.0 | 0.0 | 0.01 | 0.15 | 0.08 | 80 | 1010.6 |
| 20260507182625 | 57 | 198 | 0.0 | 0.0 | 0.01 | 0.15 | 0.08 | 81 | 1010.6 |
| 20260507182538 | 57 | 198 | 0.0 | 0.0 | 0.01 | 0.15 | 0.08 | 81 | 1010.5 |
| 20260507182423 | 57 | 198 | 0.0 | 0.0 | 0.01 | 0.15 | 0.08 | 82 | 1010.5 |
| 20260507182310 | 57 | 54 | 0.0 | 0.0 | 0.01 | 0.15 | 0.08 | 81 | 1010.5 |
| 20260507182236 | 57 | 54 | 0.0 | 0.0 | 0.01 | 0.15 | 0.08 | 80 | 1010.5 |
| 20260507182132 | 57 | 54 | 0.0 | 0.0 | 0.01 | 0.15 | 0.08 | 82 | 1010.5 |
| 20260507182018 | 57 | 75 | 0.0 | 0.0 | 0.01 | 0.15 | 0.08 | 81 | 1010.5 |
| 20260507181945 | 57 | 105 | 0.0 | 0.0 | 0.01 | 0.15 | 0.08 | 85 | 1010.5 |
| 20260507181811 | 57 | 336 | 0.0 | 0.0 | 0.01 | 0.15 | 0.08 | 85 | 1010.6 |
| 20260507181724 | 56 | 336 | 0.0 | 0.0 | 0.01 | 0.15 | 0.08 | 83 | 1010.6 |
| 20260507181611 | 56 | 336 | 0.0 | 0.0 | 0.01 | 0.15 | 0.08 | 83 | 1010.6 |
| 20260507181601 | 56 | 336 | 0.0 | 0.0 | 0.01 | 0.15 | 0.08 | 84 | 1010.3 |
| 20260507181520 | 56 | 336 | 0.0 | 0.0 | 0.01 | 0.15 | 0.08 | 84 | 1010.6 |
| 20260507181428 | 56 | 336 | 0.0 | 0.0 | 0.01 | 0.15 | 0.08 | 84 | 1010.6 |
| 20260507181315 | 56 | 336 | 0.0 | 0.0 | 0.01 | 0.15 | 0.08 | 84 | 1010.7 |
| 20260507181247 | 56 | 336 | 0.0 | 0.0 | 0.01 | 0.15 | 0.08 | 84 | 1010.7 |
| 20260507181112 | 56 | 336 | 0.0 | 0.0 | 0.01 | 0.15 | 0.08 | 83 | 1010.7 |
| 20260507181029 | 56 | 336 | 0.0 | 0.0 | 0.01 | 0.15 | 0.08 | 83 | 1010.7 |
| 20260507180917 | 56 | 336 | 0.0 | 0.0 | 0.01 | 0.15 | 0.08 | 83 | 1010.4 |
| 20260507180848 | 56 | 336 | 0.0 | 0.0 | 0.01 | 0.15 | 0.08 | 82 | 1010.4 |
| 20260507180710 | 56 | 15 | 0.0 | 0.0 | 0.01 | 0.15 | 0.08 | 84 | 1010.4 |
| 20260507180643 | 56 | 21 | 0.0 | 0.0 | 0.01 | 0.15 | 0.08 | 84 | 1010.5 |
| 20260507180538 | 56 | 32 | 0.0 | 0.0 | 0.01 | 0.15 | 0.08 | 81 | 1010.5 |
| 20260507180432 | 56 | 61 | 0.0 | 0.0 | 0.01 | 0.15 | 0.08 | 84 | 1010.7 |
| 20260507180331 | 56 | 68 | 0.0 | 0.0 | 0.01 | 0.15 | 0.08 | 82 | 1010.9 |
| 20260507180231 | 56 | 22 | 0.0 | 0.0 | 0.01 | 0.15 | 0.08 | 83 | 1011.0 |
| 20260507180124 | 57 | 239 | 0.0 | 0.0 | 0.01 | 0.15 | 0.08 | 81 | 1011.0 |
| 20260507180116 | 56 | 239 | 0.0 | 0.0 | 0.01 | 0.15 | 0.08 | 81 | 1010.7 |
| 20260507180050 | 57 | 239 | 0.0 | 0.0 | 0.01 | 0.15 | 0.08 | 81 | 1011.0 |
| 20260507175914 | 57 | 239 | 0.0 | 0.0 | 0.01 | 0.15 | 0.08 | 81 | 1011.0 |
| 20260507175821 | 57 | 239 | 0.0 | 0.0 | 0.01 | 0.15 | 0.08 | 82 | 1011.0 |
| 20260507175734 | 57 | 239 | 0.0 | 0.0 | 0.01 | 0.15 | 0.08 | 82 | 1010.9 |
| 20260507175625 | 57 | 235 | 0.0 | 0.0 | 0.01 | 0.15 | 0.08 | 83 | 1010.9 |
| 20260507175509 | 57 | 43 | 0.0 | 0.0 | 0.01 | 0.15 | 0.08 | 83 | 1010.8 |
| 20260507175415 | 57 | 5 | 0.0 | 0.0 | 0.01 | 0.15 | 0.08 | 84 | 1010.8 |
| 20260507175322 | 57 | 35 | 0.0 | 0.0 | 0.01 | 0.15 | 0.08 | 83 | 1010.8 |
| 20260507175228 | 57 | 13 | 0.0 | 0.0 | 0.01 | 0.15 | 0.08 | 83 | 1010.8 |
| 20260507175115 | 57 | 46 | 0.0 | 0.0 | 0.01 | 0.15 | 0.08 | 84 | 1010.8 |
| 20260507175033 | 57 | 29 | 0.0 | 0.0 | 0.01 | 0.15 | 0.08 | 83 | 1010.7 |
| 20260507174917 | 57 | 360 | 0.0 | 0.0 | 0.01 | 0.15 | 0.08 | 83 | 1010.7 |
| 20260507174824 | 57 | 360 | 0.0 | 0.0 | 0.01 | 0.15 | 0.08 | 83 | 1010.7 |
| 20260507174737 | 57 | 360 | 0.0 | 0.0 | 0.01 | 0.15 | 0.08 | 83 | 1010.7 |
| 20260507174622 | 57 | 360 | 0.0 | 0.0 | 0.01 | 0.15 | 0.08 | 85 | 1010.7 |
| 20260507174604 | 56 | 360 | 0.0 | 0.0 | 0.01 | 0.15 | 0.08 | 83 | 1010.4 |
| 20260507174529 | 57 | 360 | 0.0 | 0.0 | 0.01 | 0.15 | 0.08 | 83 | 1010.8 |
| 20260507174445 | 56 | 360 | 0.0 | 0.0 | 0.01 | 0.15 | 0.08 | 82 | 1010.8 |
| 20260507174330 | 57 | 360 | 0.0 | 0.0 | 0.01 | 0.15 | 0.08 | 81 | 1010.5 |
| 20260507174216 | 57 | 360 | 0.0 | 0.0 | 0.00 | 0.14 | 0.07 | 82 | 1010.7 |
| 20260507174122 | 57 | 27 | 0.0 | 0.0 | 0.00 | 0.14 | 0.07 | 81 | 1010.7 |
| 20260507174009 | 57 | 289 | 0.0 | 0.0 | 0.00 | 0.14 | 0.07 | 81 | 1011.1 |
| 20260507173922 | 57 | 289 | 0.0 | 0.0 | 0.00 | 0.14 | 0.07 | 80 | 1011.1 |
| 20260507173833 | 57 | 289 | 0.0 | 0.0 | 0.00 | 0.14 | 0.07 | 80 | 1011.2 |
| 20260507173719 | 57 | 289 | 0.0 | 0.0 | 0.00 | 0.14 | 0.07 | 79 | 1011.2 |
| 20260507173632 | 57 | 289 | 0.0 | 0.0 | 0.00 | 0.14 | 0.07 | 79 | 1011.2 |
| 20260507173518 | 57 | 251 | 0.0 | 0.0 | 0.00 | 0.14 | 0.07 | 79 | 1011.2 |
| 20260507173425 | 57 | 251 | 0.0 | 0.0 | 0.00 | 0.14 | 0.07 | 80 | 1011.0 |
| 20260507173331 | 57 | 251 | 0.0 | 0.0 | 0.00 | 0.14 | 0.07 | 82 | 1011.0 |
| 20260507173243 | 57 | 251 | 0.0 | 0.0 | 0.00 | 0.14 | 0.07 | 81 | 1011.0 |
| 20260507173133 | 57 | 251 | 0.0 | 0.0 | 0.00 | 0.14 | 0.07 | 80 | 1011.0 |
| 20260507173034 | 57 | 251 | 0.0 | 0.0 | 0.00 | 0.14 | 0.07 | 79 | 1010.6 |
| 20260507173018 | 57 | 251 | 0.0 | 0.0 | 0.00 | 0.14 | 0.07 | 79 | 1011.0 |
| 20260507172931 | 57 | 251 | 0.0 | 0.0 | 0.00 | 0.14 | 0.07 | 77 | 1011.0 |
| 20260507172817 | 57 | 236 | 0.0 | 0.0 | 0.00 | 0.14 | 0.07 | 79 | 1011.0 |
| 20260507172745 | 57 | 180 | 0.0 | 0.0 | 0.00 | 0.14 | 0.07 | 78 | 1011.1 |
| 20260507172637 | 58 | 174 | 0.0 | 0.0 | 0.00 | 0.14 | 0.07 | 78 | 1011.1 |
| 20260507172526 | 57 | 176 | 0.0 | 0.0 | 0.00 | 0.14 | 0.07 | 79 | 1011.1 |
| 20260507172413 | 57 | 92 | 0.0 | 0.0 | 0.00 | 0.14 | 0.07 | 77 | 1011.1 |
| 20260507172318 | 58 | 111 | 0.0 | 0.0 | 0.00 | 0.14 | 0.07 | 78 | 1011.1 |
| 20260507172224 | 57 | 111 | 0.0 | 0.0 | 0.00 | 0.14 | 0.07 | 78 | 1011.1 |
| 20260507172110 | 58 | 177 | 0.0 | 0.0 | 0.00 | 0.14 | 0.07 | 80 | 1011.1 |
| 20260507172023 | 58 | 177 | 0.0 | 0.0 | 0.00 | 0.14 | 0.07 | 80 | 1011.1 |
| 20260507171913 | 57 | 67 | 0.0 | 0.0 | 0.00 | 0.14 | 0.07 | 79 | 1011.1 |
| 20260507171820 | 58 | 184 | 0.0 | 0.0 | 0.00 | 0.14 | 0.07 | 80 | 1011.1 |
| 20260507171723 | 57 | 184 | 0.0 | 0.0 | 0.00 | 0.14 | 0.07 | 79 | 1011.1 |
| 20260507171610 | 58 | 184 | 0.0 | 0.0 | 0.00 | 0.14 | 0.07 | 79 | 1011.1 |
| 20260507171525 | 57 | 184 | 0.0 | 0.0 | 0.00 | 0.14 | 0.07 | 79 | 1010.7 |
| 20260507171512 | 58 | 184 | 0.0 | 0.0 | 0.00 | 0.14 | 0.07 | 79 | 1011.1 |
| 20260507171429 | 58 | 184 | 0.0 | 0.0 | 0.00 | 0.14 | 0.07 | 80 | 1011.1 |
| 20260507171316 | 58 | 205 | 0.0 | 0.0 | 0.00 | 0.14 | 0.07 | 81 | 1011.1 |
| 20260507171223 | 57 | 205 | 0.0 | 0.0 | 0.00 | 0.14 | 0.07 | 83 | 1011.1 |
| 20260507171109 | 57 | 205 | 0.0 | 0.0 | 0.00 | 0.14 | 0.07 | 80 | 1011.1 |
| 20260507171042 | 57 | 205 | 0.0 | 0.0 | 0.00 | 0.14 | 0.07 | 83 | 1011.1 |
| 20260507170927 | 57 | 205 | 0.0 | 0.0 | 0.00 | 0.14 | 0.07 | 83 | 1011.2 |
| 20260507170818 | 57 | 205 | 0.0 | 0.0 | 0.00 | 0.14 | 0.07 | 81 | 1011.2 |
| 20260507170724 | 57 | 205 | 0.0 | 0.0 | 0.00 | 0.14 | 0.07 | 82 | 1011.2 |
| 20260507170611 | 57 | 205 | 0.0 | 0.0 | 0.00 | 0.14 | 0.07 | 81 | 1011.2 |
| 20260507170517 | 57 | 218 | 0.0 | 0.0 | 0.00 | 0.14 | 0.07 | 79 | 1011.2 |
| 20260507170430 | 57 | 209 | 0.0 | 0.0 | 0.00 | 0.14 | 0.07 | 81 | 1011.3 |
| 20260507170333 | 57 | 275 | 0.0 | 0.0 | 0.00 | 0.14 | 0.07 | 80 | 1011.3 |
| 20260507170222 | 57 | 289 | 0.0 | 0.0 | 0.00 | 0.14 | 0.07 | 81 | 1011.3 |
| 20260507170135 | 57 | 256 | 0.0 | 0.0 | 0.00 | 0.14 | 0.07 | 81 | 1011.3 |
| 20260507170059 | 56 | 256 | 0.0 | 0.0 | 0.00 | 0.14 | 0.07 | 81 | 1010.9 |
| 20260507170021 | 57 | 256 | 0.0 | 0.0 | 0.00 | 0.14 | 0.07 | 80 | 1011.3 |
| 20260507165928 | 57 | 256 | 0.0 | 0.0 | 0.00 | 0.14 | 0.07 | 80 | 1011.3 |
| 20260507165815 | 57 | 256 | 0.0 | 0.0 | 0.00 | 0.14 | 0.07 | 80 | 1011.4 |
| 20260507165721 | 56 | 256 | 0.0 | 0.0 | 0.00 | 0.14 | 0.07 | 79 | 1011.4 |
| 20260507165638 | 57 | 256 | 0.0 | 0.0 | 0.00 | 0.14 | 0.07 | 78 | 1011.4 |
| 20260507165524 | 57 | 254 | 0.0 | 0.0 | 0.00 | 0.14 | 0.07 | 79 | 1011.5 |
| 20260507165431 | 57 | 254 | 0.0 | 0.0 | 0.00 | 0.14 | 0.07 | 78 | 1011.6 |
| 20260507165323 | 57 | 254 | 0.0 | 0.0 | 0.00 | 0.14 | 0.07 | 79 | 1011.6 |
| 20260507165210 | 57 | 206 | 0.0 | 0.0 | 0.00 | 0.14 | 0.07 | 78 | 1011.7 |
| 20260507165116 | 57 | 198 | 0.0 | 0.0 | 0.00 | 0.14 | 0.07 | 77 | 1011.7 |
| 20260507165053 | 57 | 198 | 0.0 | 0.0 | 0.00 | 0.14 | 0.07 | 78 | 1011.7 |
| 20260507164918 | 57 | 140 | 0.0 | 0.0 | 0.00 | 0.14 | 0.07 | 79 | 1011.7 |
| 20260507164824 | 57 | 58 | 0.0 | 0.0 | 0.00 | 0.14 | 0.07 | 81 | 1011.6 |
| 20260507164711 | 57 | 327 | 0.0 | 0.0 | 0.00 | 0.14 | 0.07 | 80 | 1011.6 |
| 20260507164618 | 57 | 198 | 0.0 | 0.0 | 0.00 | 0.14 | 0.07 | 81 | 1011.6 |
| 20260507164553 | 56 | 198 | 0.0 | 0.0 | 0.00 | 0.14 | 0.07 | 81 | 1011.1 |
| 20260507164524 | 57 | 198 | 0.0 | 0.0 | 0.00 | 0.14 | 0.07 | 81 | 1011.5 |
| 20260507164442 | 57 | 225 | 0.0 | 0.0 | 0.00 | 0.14 | 0.07 | 80 | 1011.5 |
| 20260507164327 | 57 | 251 | 0.0 | 0.0 | 0.00 | 0.14 | 0.07 | 81 | 1011.5 |
| 20260507164234 | 57 | 227 | 0.0 | 0.0 | 0.00 | 0.14 | 0.07 | 81 | 1011.5 |
| 20260507164126 | 57 | 227 | 0.0 | 0.0 | 0.00 | 0.14 | 0.07 | 80 | 1011.5 |
| 20260507164032 | 56 | 269 | 0.0 | 0.0 | 0.01 | 0.14 | 0.07 | 82 | 1011.6 |
| 20260507163944 | 56 | 269 | 0.0 | 0.0 | 0.01 | 0.14 | 0.07 | 83 | 1011.6 |
| 20260507163814 | 56 | 268 | 0.0 | 0.0 | 0.01 | 0.14 | 0.07 | 82 | 1011.7 |
| 20260507163721 | 56 | 233 | 0.0 | 0.0 | 0.01 | 0.14 | 0.07 | 81 | 1011.7 |
| 20260507163628 | 56 | 234 | 0.0 | 0.0 | 0.01 | 0.14 | 0.07 | 81 | 1011.7 |
| 20260507163514 | 56 | 244 | 0.0 | 0.0 | 0.01 | 0.14 | 0.07 | 82 | 1011.7 |
| 20260507163420 | 56 | 9 | 0.0 | 0.0 | 0.01 | 0.14 | 0.07 | 83 | 1011.7 |
| 20260507163334 | 56 | 63 | 0.0 | 0.0 | 0.01 | 0.14 | 0.07 | 83 | 1011.7 |
| 20260507163244 | 56 | 55 | 0.0 | 0.0 | 0.01 | 0.14 | 0.07 | 81 | 1011.7 |
| 20260507163109 | 56 | 186 | 0.0 | 0.0 | 0.01 | 0.14 | 0.07 | 81 | 1011.7 |
| 20260507163042 | 56 | 184 | 0.0 | 0.0 | 0.01 | 0.14 | 0.07 | 81 | 1011.7 |
| 20260507163009 | 55 | 59 | 0.0 | 0.0 | 0.01 | 0.14 | 0.07 | 81 | 1011.4 |
| 20260507162928 | 56 | 49 | 0.0 | 0.0 | 0.01 | 0.14 | 0.07 | 81 | 1011.8 |
| 20260507162815 | 56 | 140 | 0.0 | 0.0 | 0.01 | 0.14 | 0.07 | 81 | 1011.8 |
| 20260507162721 | 56 | 140 | 0.0 | 0.0 | 0.01 | 0.14 | 0.07 | 81 | 1011.8 |
| 20260507162612 | 56 | 217 | 0.0 | 0.0 | 0.01 | 0.14 | 0.07 | 81 | 1011.8 |
| 20260507162545 | 56 | 217 | 0.0 | 0.0 | 0.01 | 0.14 | 0.07 | 82 | 1011.8 |
| 20260507162410 | 56 | 217 | 0.0 | 0.0 | 0.01 | 0.14 | 0.07 | 82 | 1011.8 |
| 20260507162337 | 56 | 234 | 0.0 | 0.0 | 0.01 | 0.14 | 0.07 | 82 | 1011.8 |
| 20260507162229 | 56 | 273 | 0.0 | 0.0 | 0.01 | 0.14 | 0.07 | 82 | 1011.8 |
| 20260507162116 | 56 | 204 | 0.0 | 0.0 | 0.01 | 0.14 | 0.07 | 83 | 1011.9 |
| 20260507162027 | 56 | 127 | 0.0 | 0.0 | 0.01 | 0.14 | 0.07 | 83 | 1011.9 |
| 20260507161913 | 56 | 203 | 0.0 | 0.0 | 0.01 | 0.14 | 0.07 | 82 | 1011.9 |
| 20260507161820 | 56 | 296 | 0.0 | 0.0 | 0.01 | 0.14 | 0.07 | 81 | 1011.9 |
| 20260507161727 | 56 | 13 | 0.0 | 0.0 | 0.01 | 0.14 | 0.07 | 82 | 1011.9 |
| 20260507161614 | 56 | 22 | 0.0 | 0.0 | 0.01 | 0.14 | 0.07 | 82 | 1012.0 |
| 20260507161527 | 56 | 331 | 0.0 | 0.0 | 0.01 | 0.14 | 0.07 | 84 | 1012.0 |
| 20260507161510 | 55 | 327 | 0.0 | 0.0 | 0.01 | 0.14 | 0.07 | 84 | 1011.6 |
| 20260507161417 | 55 | 317 | 0.0 | 0.0 | 0.01 | 0.14 | 0.07 | 86 | 1011.9 |
| 20260507161343 | 55 | 232 | 0.0 | 0.0 | 0.01 | 0.14 | 0.07 | 86 | 1011.9 |
| 20260507161235 | 55 | 232 | 0.0 | 0.0 | 0.01 | 0.14 | 0.07 | 86 | 1011.9 |
| 20260507161141 | 55 | 232 | 0.0 | 1.0 | 0.01 | 0.14 | 0.07 | 86 | 1011.9 |
| 20260507161027 | 55 | 232 | 0.0 | 1.0 | 0.01 | 0.14 | 0.07 | 84 | 1012.0 |
| 20260507160933 | 55 | 232 | 0.0 | 1.0 | 0.01 | 0.14 | 0.07 | 86 | 1012.1 |
| 20260507160810 | 55 | 151 | 0.0 | 1.0 | 0.01 | 0.14 | 0.07 | 86 | 1012.1 |
| 20260507160715 | 55 | 151 | 0.0 | 2.0 | 0.01 | 0.14 | 0.07 | 85 | 1012.2 |
| 20260507160620 | 55 | 192 | 0.0 | 2.0 | 0.01 | 0.14 | 0.07 | 85 | 1012.2 |
| 20260507160527 | 55 | 72 | 0.0 | 2.0 | 0.01 | 0.14 | 0.07 | 85 | 1012.2 |
| 20260507160414 | 55 | 268 | 0.0 | 2.0 | 0.01 | 0.14 | 0.07 | 85 | 1012.2 |
| 20260507160327 | 55 | 268 | 0.0 | 2.0 | 0.01 | 0.14 | 0.07 | 85 | 1012.2 |
| 20260507160217 | 55 | 123 | 0.0 | 2.0 | 0.01 | 0.14 | 0.07 | 85 | 1012.3 |
| 20260507160124 | 55 | 123 | 0.0 | 2.0 | 0.01 | 0.14 | 0.07 | 85 | 1012.3 |
| 20260507160057 | 55 | 123 | 0.0 | 2.0 | 0.01 | 0.14 | 0.07 | 84 | 1012.2 |
| 20260507160034 | 54 | 123 | 0.0 | 2.0 | 0.01 | 0.14 | 0.07 | 84 | 1011.9 |
| 20260507155940 | 55 | 123 | 0.0 | 2.0 | 0.01 | 0.14 | 0.07 | 86 | 1012.3 |
| 20260507155825 | 55 | 296 | 0.0 | 0.0 | 0.01 | 0.14 | 0.07 | 86 | 1012.3 |
| 20260507155712 | 55 | 334 | 0.0 | 0.0 | 0.01 | 0.14 | 0.07 | 85 | 1012.4 |
| 20260507155649 | 55 | 306 | 0.0 | 0.0 | 0.01 | 0.14 | 0.07 | 87 | 1012.4 |
| 20260507155535 | 55 | 306 | 0.0 | 0.0 | 0.01 | 0.14 | 0.07 | 85 | 1012.5 |
| 20260507155420 | 55 | 306 | 0.0 | 0.0 | 0.01 | 0.14 | 0.07 | 85 | 1012.5 |
| 20260507155333 | 55 | 306 | 0.0 | 0.0 | 0.01 | 0.14 | 0.07 | 86 | 1012.4 |
| 20260507155239 | 55 | 306 | 0.0 | 0.0 | 0.01 | 0.14 | 0.07 | 85 | 1012.4 |
| 20260507155125 | 55 | 23 | 0.0 | 0.0 | 0.01 | 0.14 | 0.07 | 86 | 1012.4 |
| 20260507155016 | 55 | 37 | 0.0 | 0.0 | 0.01 | 0.14 | 0.07 | 85 | 1012.3 |
| 20260507154929 | 55 | 37 | 0.0 | 0.0 | 0.01 | 0.14 | 0.07 | 85 | 1012.3 |
| 20260507154836 | 55 | 37 | 0.0 | 0.0 | 0.01 | 0.14 | 0.07 | 85 | 1012.3 |
| 20260507154741 | 55 | 87 | 0.0 | 0.0 | 0.01 | 0.14 | 0.07 | 86 | 1012.3 |
| 20260507154634 | 55 | 260 | 0.0 | 0.0 | 0.01 | 0.14 | 0.07 | 86 | 1012.3 |
| 20260507154519 | 55 | 151 | 0.0 | 0.0 | 0.01 | 0.14 | 0.07 | 86 | 1012.3 |
| 20260507154502 | 54 | 151 | 0.0 | 0.0 | 0.01 | 0.14 | 0.07 | 86 | 1012.0 |
| 20260507154409 | 55 | 151 | 0.0 | 0.0 | 0.01 | 0.14 | 0.07 | 86 | 1012.3 |
| 20260507154315 | 55 | 151 | 0.0 | 0.0 | 0.01 | 0.14 | 0.07 | 87 | 1012.3 |
| 20260507154222 | 55 | 151 | 0.0 | 0.0 | 0.01 | 0.14 | 0.07 | 87 | 1012.3 |
| 20260507154135 | 55 | 151 | 0.0 | 0.0 | 0.00 | 0.13 | 0.06 | 86 | 1012.2 |
| 20260507154022 | 55 | 151 | 0.0 | 0.0 | 0.00 | 0.13 | 0.06 | 86 | 1012.2 |
| 20260507153927 | 55 | 151 | 0.0 | 0.0 | 0.00 | 0.13 | 0.06 | 86 | 1012.2 |
| 20260507153817 | 55 | 151 | 0.0 | 0.0 | 0.00 | 0.13 | 0.06 | 87 | 1012.3 |
| 20260507153724 | 55 | 151 | 0.0 | 0.0 | 0.00 | 0.13 | 0.06 | 86 | 1012.3 |
| 20260507153611 | 55 | 151 | 0.0 | 0.0 | 0.00 | 0.13 | 0.06 | 84 | 1012.3 |
| 20260507153545 | 55 | 151 | 0.0 | 0.0 | 0.00 | 0.13 | 0.06 | 84 | 1012.3 |
| 20260507153409 | 55 | 232 | 0.0 | 0.0 | 0.00 | 0.13 | 0.06 | 82 | 1012.6 |
| 20260507153326 | 55 | 232 | 0.0 | 0.0 | 0.00 | 0.13 | 0.06 | 82 | 1012.6 |
| 20260507153214 | 55 | 234 | 0.0 | 0.0 | 0.00 | 0.13 | 0.06 | 82 | 1012.5 |
| 20260507153147 | 55 | 234 | 0.0 | 0.0 | 0.00 | 0.13 | 0.06 | 82 | 1012.5 |
| 20260507153057 | 54 | 234 | 0.0 | 0.0 | 0.00 | 0.13 | 0.06 | 82 | 1012.0 |
| 20260507153012 | 55 | 169 | 0.0 | 0.0 | 0.00 | 0.13 | 0.06 | 83 | 1012.2 |
| 20260507152938 | 55 | 256 | 0.0 | 0.0 | 0.00 | 0.13 | 0.06 | 83 | 1012.2 |
| 20260507152830 | 55 | 256 | 0.0 | 0.0 | 0.00 | 0.13 | 0.06 | 85 | 1012.1 |
| 20260507152716 | 55 | 322 | 0.0 | 0.0 | 0.00 | 0.13 | 0.06 | 84 | 1012.1 |
| 20260507152643 | 55 | 322 | 0.0 | 0.0 | 0.00 | 0.13 | 0.06 | 83 | 1012.1 |
| 20260507152512 | 55 | 329 | 0.0 | 0.0 | 0.00 | 0.13 | 0.06 | 83 | 1012.3 |
| 20260507152445 | 55 | 329 | 0.0 | 0.0 | 0.00 | 0.13 | 0.06 | 83 | 1012.3 |
| 20260507152311 | 55 | 70 | 0.0 | 0.0 | 0.00 | 0.13 | 0.06 | 83 | 1012.2 |
| 20260507152217 | 55 | 70 | 0.0 | 0.0 | 0.00 | 0.13 | 0.06 | 83 | 1012.2 |
| 20260507152130 | 55 | 70 | 0.0 | 0.0 | 0.00 | 0.13 | 0.06 | 83 | 1012.2 |
| 20260507152036 | 55 | 175 | 0.0 | 0.0 | 0.00 | 0.13 | 0.06 | 83 | 1012.0 |
| 20260507151922 | 55 | 195 | 0.0 | 0.0 | 0.00 | 0.13 | 0.06 | 83 | 1012.0 |
| 20260507151855 | 55 | 200 | 0.0 | 0.0 | 0.00 | 0.13 | 0.06 | 84 | 1012.1 |
| 20260507151721 | 55 | 200 | 0.0 | 0.0 | 0.00 | 0.13 | 0.06 | 86 | 1012.1 |
| 20260507151626 | 55 | 26 | 0.0 | 0.0 | 0.00 | 0.13 | 0.06 | 85 | 1012.0 |
| 20260507151550 | 55 | 26 | 0.0 | 0.0 | 0.00 | 0.13 | 0.06 | 85 | 1011.6 |
| 20260507151513 | 55 | 26 | 0.0 | 0.0 | 0.00 | 0.13 | 0.06 | 85 | 1012.0 |
| 20260507151419 | 55 | 5 | 0.0 | 0.0 | 0.00 | 0.13 | 0.06 | 85 | 1012.0 |
| 20260507151310 | 55 | 236 | 0.0 | 0.0 | 0.00 | 0.13 | 0.06 | 85 | 1012.0 |
| 20260507151223 | 55 | 236 | 0.0 | 0.0 | 0.00 | 0.13 | 0.06 | 85 | 1012.0 |
| 20260507151110 | 55 | 234 | 0.0 | 0.0 | 0.00 | 0.13 | 0.06 | 85 | 1011.8 |
| 20260507151015 | 55 | 229 | 0.0 | 0.0 | 0.00 | 0.13 | 0.06 | 85 | 1011.9 |
| 20260507150921 | 55 | 323 | 0.0 | 0.0 | 0.00 | 0.13 | 0.06 | 85 | 1011.9 |
| 20260507150811 | 55 | 323 | 0.0 | 0.0 | 0.00 | 0.13 | 0.06 | 83 | 1011.9 |
| 20260507150717 | 55 | 302 | 0.0 | 0.0 | 0.00 | 0.13 | 0.06 | 84 | 1011.9 |
| 20260507150629 | 55 | 302 | 0.0 | 0.0 | 0.00 | 0.13 | 0.06 | 84 | 1012.0 |
| 20260507150516 | 55 | 302 | 0.0 | 0.0 | 0.00 | 0.13 | 0.06 | 85 | 1012.1 |
| 20260507150422 | 55 | 302 | 0.0 | 0.0 | 0.00 | 0.13 | 0.06 | 85 | 1012.2 |
| 20260507150356 | 55 | 302 | 0.0 | 0.0 | 0.00 | 0.13 | 0.06 | 84 | 1012.3 |
| 20260507150226 | 55 | 302 | 0.0 | 0.0 | 0.00 | 0.13 | 0.06 | 84 | 1012.3 |
| 20260507150131 | 55 | 302 | 0.0 | 0.0 | 0.00 | 0.13 | 0.06 | 84 | 1012.3 |
| 20260507150107 | 55 | 302 | 0.0 | 0.0 | 0.00 | 0.13 | 0.06 | 84 | 1011.9 |
| 20260507150018 | 55 | 9 | 0.0 | 0.0 | 0.00 | 0.13 | 0.06 | 84 | 1012.2 |
| 20260507145923 | 55 | 9 | 0.0 | 0.0 | 0.00 | 0.13 | 0.06 | 84 | 1012.2 |
| 20260507145810 | 55 | 13 | 0.0 | 0.0 | 0.00 | 0.13 | 0.06 | 84 | 1012.2 |
| 20260507145720 | 55 | 256 | 0.0 | 0.0 | 0.00 | 0.13 | 0.06 | 84 | 1012.2 |
| 20260507145633 | 55 | 292 | 0.0 | 0.0 | 0.00 | 0.13 | 0.06 | 85 | 1012.2 |
| 20260507145520 | 55 | 148 | 0.0 | 0.0 | 0.00 | 0.13 | 0.06 | 85 | 1012.1 |
| 20260507145427 | 55 | 148 | 0.0 | 0.0 | 0.00 | 0.13 | 0.06 | 84 | 1012.1 |
| 20260507145312 | 55 | 148 | 0.0 | 0.0 | 0.00 | 0.13 | 0.06 | 84 | 1012.1 |
| 20260507145219 | 55 | 148 | 0.0 | 0.0 | 0.00 | 0.13 | 0.06 | 85 | 1012.1 |
| 20260507145109 | 55 | 275 | 0.0 | 1.0 | 0.00 | 0.13 | 0.06 | 85 | 1012.2 |
| 20260507145042 | 55 | 275 | 0.0 | 1.0 | 0.00 | 0.13 | 0.06 | 85 | 1012.2 |
| 20260507144917 | 55 | 275 | 0.0 | 1.0 | 0.00 | 0.13 | 0.06 | 85 | 1012.2 |
| 20260507144850 | 55 | 274 | 0.0 | 1.0 | 0.00 | 0.13 | 0.06 | 85 | 1012.3 |
| 20260507144716 | 55 | 205 | 0.0 | 1.0 | 0.00 | 0.13 | 0.06 | 85 | 1012.2 |
| 20260507144622 | 55 | 205 | 0.0 | 1.0 | 0.00 | 0.13 | 0.06 | 85 | 1012.2 |
| 20260507144554 | 55 | 205 | 0.0 | 1.0 | 0.00 | 0.13 | 0.06 | 85 | 1011.8 |
| 20260507144512 | 55 | 206 | 0.0 | 1.0 | 0.00 | 0.13 | 0.06 | 85 | 1012.2 |
| 20260507144415 | 55 | 206 | 0.0 | 3.0 | 0.00 | 0.13 | 0.06 | 85 | 1012.2 |
| 20260507144321 | 55 | 206 | 0.0 | 3.0 | 0.00 | 0.13 | 0.06 | 85 | 1012.2 |
| 20260507144234 | 55 | 207 | 0.0 | 3.0 | 0.00 | 0.13 | 0.06 | 85 | 1012.2 |
| 20260507144137 | 55 | 284 | 0.0 | 3.0 | 0.00 | 0.13 | 0.06 | 85 | 1012.3 |
| 20260507144022 | 55 | 284 | 0.0 | 3.0 | 0.00 | 0.13 | 0.06 | 86 | 1012.3 |
| 20260507143912 | 55 | 11 | 0.0 | 3.0 | 0.00 | 0.13 | 0.06 | 86 | 1012.4 |
| 20260507143845 | 55 | 45 | 0.0 | 3.0 | 0.00 | 0.13 | 0.06 | 86 | 1012.4 |
| 20260507143711 | 55 | 338 | 0.0 | 3.0 | 0.00 | 0.13 | 0.06 | 85 | 1012.4 |
| 20260507143617 | 55 | 338 | 0.0 | 3.0 | 0.00 | 0.13 | 0.06 | 85 | 1012.4 |
| 20260507143531 | 55 | 297 | 0.0 | 3.0 | 0.00 | 0.13 | 0.06 | 85 | 1012.4 |
| 20260507143437 | 55 | 320 | 0.0 | 0.0 | 0.00 | 0.13 | 0.06 | 86 | 1012.4 |
| 20260507143326 | 55 | 221 | 0.0 | 0.0 | 0.00 | 0.13 | 0.06 | 85 | 1012.4 |
| 20260507143213 | 55 | 173 | 0.0 | 0.0 | 0.00 | 0.13 | 0.06 | 86 | 1012.3 |
| 20260507143120 | 55 | 173 | 0.0 | 0.0 | 0.00 | 0.13 | 0.06 | 86 | 1012.3 |
| 20260507143033 | 55 | 173 | 0.0 | 0.0 | 0.00 | 0.13 | 0.06 | 86 | 1012.4 |
| 20260507143015 | 54 | 173 | 0.0 | 0.0 | 0.00 | 0.13 | 0.06 | 85 | 1012.1 |
| 20260507142919 | 55 | 173 | 0.0 | 0.0 | 0.00 | 0.13 | 0.06 | 85 | 1012.4 |
| 20260507142809 | 55 | 173 | 0.0 | 0.0 | 0.00 | 0.13 | 0.06 | 85 | 1012.5 |
| 20260507142716 | 55 | 173 | 0.0 | 0.0 | 0.00 | 0.13 | 0.06 | 85 | 1012.5 |
| 20260507142623 | 55 | 173 | 0.0 | 0.0 | 0.00 | 0.13 | 0.06 | 85 | 1012.5 |
| 20260507142510 | 55 | 267 | 0.0 | 0.0 | 0.00 | 0.13 | 0.06 | 86 | 1012.5 |
| 20260507142443 | 55 | 267 | 0.0 | 0.0 | 0.00 | 0.13 | 0.06 | 86 | 1012.5 |
| 20260507142329 | 55 | 251 | 0.0 | 0.0 | 0.00 | 0.13 | 0.06 | 85 | 1012.5 |
| 20260507142220 | 55 | 251 | 0.0 | 0.0 | 0.00 | 0.13 | 0.06 | 86 | 1012.5 |
| 20260507142122 | 55 | 251 | 0.0 | 0.0 | 0.00 | 0.13 | 0.06 | 86 | 1012.6 |
| 20260507142033 | 55 | 251 | 0.0 | 1.0 | 0.00 | 0.13 | 0.06 | 85 | 1012.5 |
| 20260507141918 | 55 | 251 | 0.0 | 1.0 | 0.00 | 0.13 | 0.06 | 85 | 1012.5 |
| 20260507141825 | 55 | 251 | 0.0 | 1.0 | 0.00 | 0.13 | 0.06 | 85 | 1012.5 |
| 20260507141712 | 55 | 251 | 0.0 | 1.0 | 0.00 | 0.13 | 0.06 | 84 | 1012.5 |
| 20260507141645 | 55 | 246 | 0.0 | 1.0 | 0.00 | 0.13 | 0.06 | 85 | 1012.5 |
| 20260507141602 | 54 | 189 | 0.0 | 1.0 | 0.00 | 0.13 | 0.06 | 85 | 1012.0 |
| 20260507141515 | 55 | 189 | 0.0 | 1.0 | 0.00 | 0.13 | 0.06 | 85 | 1012.4 |
| 20260507141421 | 55 | 189 | 0.0 | 1.0 | 0.00 | 0.13 | 0.06 | 85 | 1012.4 |
| 20260507141327 | 55 | 189 | 0.0 | 1.0 | 0.00 | 0.13 | 0.06 | 85 | 1012.4 |
| 20260507141213 | 55 | 189 | 0.0 | 1.0 | 0.00 | 0.13 | 0.06 | 85 | 1012.4 |
| 20260507141126 | 55 | 206 | 0.0 | 1.0 | 0.00 | 0.13 | 0.06 | 85 | 1012.4 |
| 20260507141017 | 55 | 220 | 0.0 | 1.0 | 0.00 | 0.13 | 0.06 | 85 | 1012.4 |
| 20260507140923 | 55 | 211 | 0.0 | 1.0 | 0.00 | 0.13 | 0.06 | 87 | 1012.5 |
| 20260507140809 | 55 | 49 | 0.0 | 1.0 | 0.00 | 0.13 | 0.06 | 86 | 1012.4 |
| 20260507140715 | 55 | 194 | 0.0 | 0.0 | 0.00 | 0.13 | 0.06 | 86 | 1012.4 |
| 20260507140621 | 55 | 194 | 0.0 | 0.0 | 0.00 | 0.13 | 0.06 | 87 | 1012.4 |
| 20260507140512 | 55 | 194 | 0.0 | 0.0 | 0.00 | 0.13 | 0.06 | 87 | 1012.5 |
| 20260507140425 | 55 | 194 | 0.0 | 0.0 | 0.00 | 0.13 | 0.06 | 87 | 1012.5 |
| 20260507140311 | 55 | 194 | 0.0 | 1.0 | 0.00 | 0.13 | 0.06 | 86 | 1012.6 |
| 20260507140218 | 55 | 194 | 0.0 | 1.0 | 0.00 | 0.13 | 0.06 | 85 | 1012.6 |
| 20260507140124 | 55 | 147 | 0.0 | 1.0 | 0.00 | 0.13 | 0.06 | 85 | 1012.6 |
| 20260507140038 | 54 | 147 | 0.0 | 1.0 | 0.00 | 0.13 | 0.06 | 85 | 1012.3 |
| 20260507140010 | 55 | 121 | 0.0 | 1.0 | 0.00 | 0.13 | 0.06 | 85 | 1012.7 |
| 20260507135947 | 55 | 220 | 0.0 | 1.0 | 0.00 | 0.13 | 0.06 | 85 | 1012.7 |
| 20260507135812 | 55 | 213 | 0.0 | 1.0 | 0.00 | 0.13 | 0.06 | 85 | 1012.8 |
| 20260507135719 | 55 | 213 | 0.0 | 1.0 | 0.00 | 0.13 | 0.06 | 86 | 1012.8 |
| 20260507135652 | 55 | 213 | 0.0 | 1.0 | 0.00 | 0.13 | 0.06 | 85 | 1012.8 |
| 20260507135517 | 55 | 71 | 0.0 | 1.0 | 0.00 | 0.13 | 0.06 | 86 | 1012.8 |
| 20260507135424 | 55 | 286 | 0.0 | 1.0 | 0.00 | 0.13 | 0.06 | 86 | 1012.7 |
| 20260507135311 | 55 | 272 | 0.0 | 1.0 | 0.00 | 0.13 | 0.06 | 86 | 1012.7 |
| 20260507135218 | 55 | 311 | 0.0 | 1.0 | 0.00 | 0.13 | 0.06 | 87 | 1012.7 |
| 20260507135131 | 55 | 311 | 0.0 | 1.0 | 0.00 | 0.13 | 0.06 | 87 | 1012.6 |
| 20260507135019 | 55 | 278 | 0.0 | 1.0 | 0.00 | 0.13 | 0.06 | 86 | 1012.6 |
| 20260507134924 | 55 | 186 | 0.0 | 1.0 | 0.00 | 0.13 | 0.06 | 87 | 1012.5 |
| 20260507134814 | 55 | 257 | 0.0 | 0.0 | 0.00 | 0.13 | 0.06 | 87 | 1012.6 |
| 20260507134721 | 55 | 210 | 0.0 | 0.0 | 0.00 | 0.13 | 0.06 | 87 | 1012.6 |
| 20260507134627 | 55 | 164 | 0.0 | 0.0 | 0.00 | 0.13 | 0.06 | 87 | 1012.5 |
| 20260507134540 | 55 | 111 | 0.0 | 1.0 | 0.00 | 0.13 | 0.06 | 87 | 1012.6 |
| 20260507134511 | 54 | 238 | 0.0 | 1.0 | 0.00 | 0.15 | 0.06 | 87 | 1012.2 |
| 20260507134425 | 55 | 238 | 0.0 | 1.0 | 0.00 | 0.15 | 0.06 | 87 | 1012.6 |
| 20260507134311 | 55 | 238 | 0.0 | 1.0 | 0.00 | 0.15 | 0.06 | 87 | 1012.7 |
| 20260507134222 | 55 | 238 | 0.0 | 1.0 | 0.00 | 0.15 | 0.06 | 87 | 1012.7 |
| 20260507134109 | 55 | 238 | 0.0 | 1.0 | 0.00 | 0.15 | 0.06 | 87 | 1012.7 |
| 20260507134015 | 55 | 238 | 0.0 | 1.0 | 0.00 | 0.15 | 0.06 | 87 | 1012.7 |
| 20260507133927 | 55 | 238 | 0.0 | 1.0 | 0.00 | 0.15 | 0.06 | 86 | 1012.7 |
| 20260507133814 | 55 | 238 | 0.0 | 1.0 | 0.00 | 0.15 | 0.06 | 86 | 1012.9 |
| 20260507133717 | 55 | 243 | 0.0 | 1.0 | 0.00 | 0.15 | 0.06 | 87 | 1012.9 |
| 20260507133655 | 55 | 238 | 0.0 | 0.0 | 0.00 | 0.15 | 0.06 | 87 | 1012.9 |
| 20260507133519 | 55 | 38 | 0.0 | 0.0 | 0.00 | 0.15 | 0.06 | 87 | 1012.9 |
| 20260507133446 | 55 | 302 | 0.0 | 1.0 | 0.00 | 0.15 | 0.06 | 87 | 1012.9 |
| 20260507133338 | 55 | 279 | 0.0 | 1.0 | 0.00 | 0.15 | 0.06 | 87 | 1012.9 |
| 20260507133238 | 55 | 279 | 0.0 | 1.0 | 0.00 | 0.15 | 0.06 | 87 | 1012.9 |
| 20260507133211 | 55 | 297 | 0.0 | 1.0 | 0.00 | 0.15 | 0.06 | 87 | 1012.8 |
| 20260507133027 | 54 | 319 | 0.0 | 1.0 | 0.00 | 0.15 | 0.06 | 87 | 1012.3 |
| 20260507133014 | 55 | 319 | 0.0 | 1.0 | 0.00 | 0.15 | 0.06 | 87 | 1012.8 |
| 20260507132929 | 55 | 319 | 0.0 | 1.0 | 0.00 | 0.15 | 0.06 | 87 | 1012.8 |
| 20260507132814 | 55 | 319 | 0.0 | 1.0 | 0.00 | 0.15 | 0.06 | 87 | 1012.7 |
| 20260507132721 | 55 | 319 | 0.0 | 1.0 | 0.00 | 0.15 | 0.06 | 86 | 1012.7 |
| 20260507132627 | 55 | 309 | 0.0 | 1.0 | 0.00 | 0.15 | 0.06 | 87 | 1012.7 |
| 20260507132514 | 55 | 242 | 0.0 | 0.0 | 0.00 | 0.15 | 0.06 | 87 | 1012.6 |
| 20260507132431 | 55 | 242 | 0.0 | 0.0 | 0.00 | 0.15 | 0.06 | 87 | 1012.6 |
| 20260507132318 | 55 | 242 | 0.0 | 0.0 | 0.00 | 0.15 | 0.06 | 87 | 1012.6 |
| 20260507132224 | 55 | 242 | 0.0 | 0.0 | 0.00 | 0.15 | 0.06 | 87 | 1012.6 |
| 20260507132110 | 55 | 242 | 0.0 | 0.0 | 0.00 | 0.15 | 0.06 | 87 | 1012.5 |
| 20260507132017 | 55 | 184 | 0.0 | 0.0 | 0.00 | 0.15 | 0.06 | 87 | 1012.5 |
| 20260507131923 | 55 | 184 | 0.0 | 0.0 | 0.00 | 0.15 | 0.06 | 87 | 1012.4 |
| 20260507131814 | 55 | 223 | 0.0 | 0.0 | 0.00 | 0.15 | 0.06 | 87 | 1012.4 |
| 20260507131727 | 55 | 223 | 0.0 | 0.0 | 0.00 | 0.15 | 0.06 | 87 | 1012.4 |
| 20260507131627 | 54 | 169 | 0.0 | 0.0 | 0.00 | 0.15 | 0.06 | 88 | 1012.1 |
| 20260507131613 | 55 | 177 | 0.0 | 0.0 | 0.00 | 0.15 | 0.06 | 88 | 1012.4 |
| 20260507131519 | 55 | 269 | 0.0 | 0.0 | 0.00 | 0.15 | 0.06 | 88 | 1012.4 |
| 20260507131425 | 55 | 274 | 0.0 | 0.0 | 0.00 | 0.15 | 0.06 | 88 | 1012.4 |
| 20260507131316 | 55 | 275 | 0.0 | 0.0 | 0.00 | 0.15 | 0.06 | 88 | 1012.4 |
| 20260507131222 | 55 | 275 | 0.0 | 0.0 | 0.00 | 0.15 | 0.06 | 88 | 1012.4 |
| 20260507131109 | 55 | 275 | 0.0 | 0.0 | 0.00 | 0.15 | 0.06 | 88 | 1012.4 |
| 20260507131022 | 55 | 275 | 0.0 | 0.0 | 0.00 | 0.15 | 0.06 | 89 | 1012.4 |
| 20260507130909 | 55 | 285 | 0.0 | 0.0 | 0.00 | 0.15 | 0.06 | 88 | 1012.4 |
| 20260507130820 | 55 | 285 | 0.0 | 0.0 | 0.00 | 0.15 | 0.06 | 88 | 1012.4 |
| 20260507130727 | 55 | 285 | 0.0 | 0.0 | 0.00 | 0.15 | 0.06 | 88 | 1012.4 |
| 20260507130614 | 55 | 285 | 0.0 | 0.0 | 0.00 | 0.15 | 0.06 | 88 | 1012.4 |
| 20260507130520 | 55 | 280 | 0.0 | 0.0 | 0.00 | 0.15 | 0.06 | 88 | 1012.4 |
| 20260507130433 | 55 | 271 | 0.0 | 0.0 | 0.00 | 0.15 | 0.06 | 89 | 1012.4 |
| 20260507130320 | 55 | 224 | 0.0 | 0.0 | 0.00 | 0.15 | 0.06 | 89 | 1012.4 |
| 20260507130230 | 55 | 200 | 0.0 | 0.0 | 0.00 | 0.15 | 0.06 | 89 | 1012.4 |
| 20260507130116 | 55 | 200 | 0.0 | 0.0 | 0.00 | 0.15 | 0.06 | 89 | 1012.4 |
| 20260507130029 | 55 | 200 | 0.0 | 0.0 | 0.00 | 0.15 | 0.06 | 89 | 1012.4 |
| 20260507130016 | 54 | 200 | 0.0 | 0.0 | 0.00 | 0.15 | 0.06 | 89 | 1012.0 |
| 20260507125915 | 55 | 200 | 0.0 | 0.0 | 0.00 | 0.15 | 0.06 | 89 | 1012.4 |
| 20260507125822 | 55 | 296 | 0.0 | 0.0 | 0.00 | 0.15 | 0.06 | 89 | 1012.4 |
| 20260507125712 | 55 | 296 | 0.0 | 0.0 | 0.00 | 0.15 | 0.06 | 89 | 1012.4 |
| 20260507125619 | 55 | 252 | 0.0 | 0.0 | 0.00 | 0.15 | 0.06 | 89 | 1012.4 |
| 20260507125525 | 55 | 233 | 0.0 | 0.0 | 0.00 | 0.15 | 0.06 | 89 | 1012.4 |
| 20260507125438 | 55 | 233 | 0.0 | 0.0 | 0.00 | 0.15 | 0.06 | 89 | 1012.5 |
| 20260507125324 | 55 | 233 | 0.0 | 0.0 | 0.00 | 0.15 | 0.06 | 89 | 1012.5 |
| 20260507125210 | 55 | 233 | 0.0 | 0.0 | 0.00 | 0.15 | 0.06 | 89 | 1012.4 |
| 20260507125121 | 55 | 265 | 0.0 | 0.0 | 0.00 | 0.15 | 0.06 | 89 | 1012.4 |
| 20260507125034 | 55 | 293 | 0.0 | 0.0 | 0.00 | 0.15 | 0.06 | 89 | 1012.4 |
| 20260507124920 | 55 | 293 | 0.0 | 0.0 | 0.00 | 0.15 | 0.06 | 89 | 1012.3 |
| 20260507124827 | 55 | 293 | 0.0 | 0.0 | 0.00 | 0.15 | 0.06 | 89 | 1012.3 |
| 20260507124713 | 55 | 293 | 0.0 | 0.0 | 0.00 | 0.15 | 0.06 | 89 | 1012.3 |
| 20260507124636 | 55 | 293 | 0.0 | 0.0 | 0.00 | 0.15 | 0.06 | 89 | 1012.3 |
| 20260507124531 | 55 | 293 | 0.0 | 0.0 | 0.00 | 0.15 | 0.06 | 89 | 1012.3 |
| 20260507124510 | 54 | 293 | 0.0 | 0.0 | 0.00 | 0.18 | 0.06 | 89 | 1011.9 |
| 20260507124418 | 55 | 293 | 0.0 | 0.0 | 0.00 | 0.18 | 0.06 | 89 | 1012.3 |
| 20260507124324 | 55 | 306 | 0.0 | 0.0 | 0.00 | 0.18 | 0.06 | 89 | 1012.3 |
| 20260507124210 | 55 | 263 | 0.0 | 0.0 | 0.00 | 0.18 | 0.06 | 89 | 1012.3 |
| 20260507124117 | 55 | 263 | 0.0 | 0.0 | 0.00 | 0.18 | 0.06 | 89 | 1012.3 |
| 20260507124031 | 55 | 263 | 0.0 | 0.0 | 0.00 | 0.18 | 0.06 | 89 | 1012.3 |
| 20260507123940 | 55 | 263 | 0.0 | 0.0 | 0.00 | 0.18 | 0.06 | 89 | 1012.3 |
| 20260507123825 | 55 | 263 | 0.0 | 0.0 | 0.00 | 0.18 | 0.06 | 90 | 1012.4 |
| 20260507123711 | 55 | 263 | 0.0 | 0.0 | 0.00 | 0.18 | 0.06 | 89 | 1012.4 |
| 20260507123618 | 55 | 263 | 0.0 | 0.0 | 0.00 | 0.18 | 0.06 | 89 | 1012.4 |
| 20260507123532 | 55 | 263 | 0.0 | 0.0 | 0.00 | 0.18 | 0.06 | 89 | 1012.5 |
| 20260507123419 | 55 | 263 | 0.0 | 0.0 | 0.00 | 0.18 | 0.06 | 89 | 1012.5 |
| 20260507123326 | 55 | 263 | 0.0 | 0.0 | 0.00 | 0.18 | 0.06 | 89 | 1012.5 |
| 20260507123300 | 55 | 263 | 0.0 | 0.0 | 0.00 | 0.18 | 0.06 | 89 | 1012.5 |
| 20260507123120 | 55 | 263 | 0.0 | 0.0 | 0.00 | 0.18 | 0.06 | 89 | 1012.5 |
| 20260507123043 | 54 | 263 | 0.0 | 0.0 | 0.00 | 0.18 | 0.06 | 90 | 1012.1 |
| 20260507123018 | 55 | 263 | 0.0 | 0.0 | 0.00 | 0.18 | 0.06 | 90 | 1012.5 |
| 20260507122931 | 55 | 263 | 0.0 | 0.0 | 0.00 | 0.18 | 0.06 | 91 | 1012.4 |
| 20260507122810 | 55 | 321 | 0.0 | 0.0 | 0.00 | 0.18 | 0.06 | 90 | 1012.4 |
| 20260507122747 | 55 | 321 | 0.0 | 0.0 | 0.00 | 0.18 | 0.06 | 90 | 1012.4 |
| 20260507122612 | 55 | 321 | 0.0 | 0.0 | 0.00 | 0.18 | 0.06 | 89 | 1012.5 |
| 20260507122519 | 55 | 321 | 0.0 | 0.0 | 0.00 | 0.18 | 0.06 | 89 | 1012.5 |
| 20260507122432 | 55 | 321 | 0.0 | 0.0 | 0.00 | 0.18 | 0.06 | 89 | 1012.5 |
| 20260507122318 | 55 | 233 | 0.0 | 0.0 | 0.00 | 0.18 | 0.06 | 89 | 1012.4 |
| 20260507122244 | 55 | 233 | 0.0 | 0.0 | 0.00 | 0.18 | 0.06 | 89 | 1012.4 |
| 20260507122113 | 55 | 233 | 0.0 | 0.0 | 0.00 | 0.18 | 0.06 | 89 | 1012.3 |
| 20260507122026 | 54 | 233 | 0.0 | 0.0 | 0.00 | 0.18 | 0.06 | 90 | 1012.3 |
| 20260507121932 | 55 | 286 | 0.0 | 0.0 | 0.00 | 0.18 | 0.06 | 90 | 1012.3 |
| 20260507121815 | 54 | 286 | 0.0 | 0.0 | 0.00 | 0.18 | 0.06 | 90 | 1012.2 |
| 20260507121633 | 55 | 286 | 0.0 | 0.0 | 0.00 | 0.18 | 0.06 | 90 | 1012.2 |
| 20260507121611 | 54 | 286 | 0.0 | 0.0 | 0.00 | 0.18 | 0.06 | 90 | 1011.8 |
| 20260507121512 | 55 | 286 | 0.0 | 0.0 | 0.00 | 0.18 | 0.06 | 90 | 1012.2 |
| 20260507121419 | 54 | 286 | 0.0 | 1.0 | 0.00 | 0.18 | 0.06 | 90 | 1012.2 |
| 20260507121325 | 54 | 286 | 0.0 | 1.0 | 0.00 | 0.18 | 0.06 | 90 | 1012.1 |
| 20260507121235 | 54 | 286 | 0.0 | 1.0 | 0.00 | 0.18 | 0.06 | 90 | 1012.2 |
| 20260507121121 | 54 | 286 | 0.0 | 1.0 | 0.00 | 0.18 | 0.06 | 89 | 1012.2 |
| 20260507121027 | 54 | 286 | 0.0 | 1.0 | 0.00 | 0.18 | 0.06 | 89 | 1012.2 |
| 20260507120917 | 54 | 286 | 0.0 | 1.0 | 0.00 | 0.18 | 0.06 | 90 | 1012.1 |
| 20260507120819 | 54 | 337 | 0.0 | 1.0 | 0.00 | 0.18 | 0.06 | 90 | 1012.0 |
| 20260507120732 | 54 | 337 | 0.0 | 1.0 | 0.00 | 0.18 | 0.06 | 90 | 1012.0 |
| 20260507120624 | 54 | 337 | 0.0 | 1.0 | 0.00 | 0.18 | 0.06 | 90 | 1011.9 |
| 20260507120530 | 54 | 307 | 0.0 | 1.0 | 0.00 | 0.18 | 0.06 | 90 | 1012.0 |
| 20260507120442 | 54 | 267 | 0.0 | 1.0 | 0.00 | 0.18 | 0.06 | 91 | 1012.0 |
| 20260507120311 | 54 | 267 | 0.0 | 1.0 | 0.00 | 0.18 | 0.06 | 91 | 1012.0 |
| 20260507120217 | 54 | 327 | 0.0 | 1.0 | 0.00 | 0.18 | 0.06 | 91 | 1012.0 |
| 20260507120130 | 54 | 327 | 0.0 | 1.0 | 0.00 | 0.18 | 0.06 | 91 | 1012.1 |
| 20260507120018 | 54 | 327 | 0.0 | 1.0 | 0.00 | 0.18 | 0.06 | 90 | 1012.0 |
| 20260507120009 | 54 | 327 | 0.0 | 1.0 | 0.00 | 0.18 | 0.06 | 90 | 1011.7 |
| 20260507115922 | 54 | 327 | 0.0 | 1.0 | 0.00 | 0.18 | 0.06 | 90 | 1012.1 |
| 20260507115825 | 54 | 327 | 0.0 | 1.0 | 0.00 | 0.18 | 0.06 | 91 | 1012.0 |
| 20260507115715 | 54 | 279 | 0.0 | 0.0 | 0.00 | 0.18 | 0.06 | 91 | 1012.1 |
| 20260507115622 | 54 | 190 | 0.0 | 0.0 | 0.00 | 0.18 | 0.06 | 91 | 1012.1 |
| 20260507115535 | 54 | 190 | 0.0 | 0.0 | 0.00 | 0.18 | 0.06 | 91 | 1012.1 |
| 20260507115420 | 54 | 190 | 0.0 | 0.0 | 0.00 | 0.18 | 0.06 | 91 | 1012.1 |
| 20260507115326 | 55 | 190 | 0.0 | 0.0 | 0.00 | 0.18 | 0.06 | 91 | 1012.1 |
| 20260507115240 | 55 | 190 | 0.0 | 0.0 | 0.00 | 0.18 | 0.06 | 92 | 1012.1 |
| 20260507115110 | 54 | 190 | 0.0 | 0.0 | 0.00 | 0.18 | 0.06 | 92 | 1012.1 |
| 20260507115037 | 54 | 190 | 0.0 | 0.0 | 0.00 | 0.18 | 0.06 | 91 | 1012.1 |
| 20260507114922 | 54 | 190 | 0.0 | 0.0 | 0.00 | 0.18 | 0.06 | 91 | 1012.1 |
| 20260507114810 | 54 | 190 | 0.0 | 0.0 | 0.00 | 0.18 | 0.06 | 91 | 1012.2 |
| 20260507114722 | 54 | 190 | 0.0 | 0.0 | 0.00 | 0.18 | 0.06 | 91 | 1012.2 |
| 20260507114649 | 54 | 190 | 0.0 | 0.0 | 0.00 | 0.18 | 0.06 | 91 | 1012.2 |
| 20260507114536 | 54 | 190 | 0.0 | 0.0 | 0.00 | 0.18 | 0.06 | 91 | 1011.8 |
| 20260507114517 | 54 | 190 | 0.0 | 0.0 | 0.00 | 0.18 | 0.06 | 91 | 1012.2 |
| 20260507114430 | 54 | 190 | 0.0 | 0.0 | 0.00 | 0.18 | 0.06 | 91 | 1012.1 |
| 20260507114316 | 54 | 190 | 0.0 | 0.0 | 0.00 | 0.18 | 0.06 | 91 | 1012.1 |
| 20260507114244 | 54 | 190 | 0.0 | 0.0 | 0.00 | 0.18 | 0.06 | 91 | 1012.1 |
| 20260507114135 | 54 | 190 | 0.0 | 0.0 | 0.00 | 0.18 | 0.06 | 91 | 1012.1 |
| 20260507114014 | 54 | 190 | 0.0 | 0.0 | 0.00 | 0.18 | 0.06 | 91 | 1012.0 |
| 20260507113931 | 54 | 190 | 0.0 | 0.0 | 0.00 | 0.18 | 0.06 | 91 | 1012.0 |
| 20260507113818 | 54 | 190 | 0.0 | 0.0 | 0.00 | 0.18 | 0.06 | 92 | 1011.9 |
| 20260507113724 | 54 | 190 | 0.0 | 0.0 | 0.00 | 0.18 | 0.06 | 92 | 1012.0 |
| 20260507113610 | 54 | 190 | 0.0 | 0.0 | 0.00 | 0.18 | 0.06 | 92 | 1011.9 |
| 20260507113516 | 54 | 190 | 0.0 | 0.0 | 0.00 | 0.18 | 0.06 | 92 | 1011.9 |
| 20260507113449 | 54 | 190 | 0.0 | 0.0 | 0.00 | 0.18 | 0.06 | 92 | 1011.9 |
| 20260507113338 | 54 | 190 | 0.0 | 0.0 | 0.00 | 0.18 | 0.06 | 92 | 1011.9 |
| 20260507113210 | 54 | 190 | 0.0 | 0.0 | 0.00 | 0.18 | 0.06 | 92 | 1011.9 |
| 20260507113124 | 54 | 190 | 0.0 | 0.0 | 0.00 | 0.18 | 0.06 | 92 | 1011.9 |
| 20260507113016 | 54 | 190 | 0.0 | 0.0 | 0.00 | 0.18 | 0.06 | 92 | 1011.9 |
| 20260507112917 | 54 | 190 | 0.0 | 0.0 | 0.00 | 0.18 | 0.06 | 92 | 1011.9 |
| 20260507112824 | 54 | 190 | 0.0 | 0.0 | 0.00 | 0.18 | 0.06 | 92 | 1011.9 |
| 20260507112714 | 54 | 190 | 0.0 | 0.0 | 0.00 | 0.18 | 0.06 | 92 | 1011.9 |
| 20260507112627 | 54 | 190 | 0.0 | 0.0 | 0.00 | 0.18 | 0.06 | 92 | 1011.9 |
| 20260507112514 | 54 | 190 | 0.0 | 0.0 | 0.00 | 0.18 | 0.06 | 92 | 1011.8 |
| 20260507112440 | 54 | 190 | 0.0 | 0.0 | 0.00 | 0.18 | 0.06 | 92 | 1011.8 |
| 20260507112333 | 54 | 190 | 0.0 | 0.0 | 0.00 | 0.18 | 0.06 | 92 | 1011.9 |
| 20260507112228 | 54 | 190 | 0.0 | 0.0 | 0.00 | 0.18 | 0.06 | 92 | 1011.9 |
| 20260507112127 | 54 | 267 | 0.0 | 0.0 | 0.00 | 0.18 | 0.06 | 92 | 1011.9 |
| 20260507112012 | 54 | 267 | 0.0 | 0.0 | 0.00 | 0.18 | 0.06 | 92 | 1011.8 |
| 20260507111945 | 54 | 272 | 0.0 | 0.0 | 0.00 | 0.18 | 0.06 | 92 | 1011.8 |
| 20260507111810 | 54 | 272 | 0.0 | 0.0 | 0.00 | 0.18 | 0.06 | 92 | 1011.8 |
| 20260507111737 | 54 | 272 | 0.0 | 0.0 | 0.00 | 0.18 | 0.06 | 92 | 1011.8 |
| 20260507111645 | 54 | 272 | 0.0 | 0.0 | 0.00 | 0.18 | 0.06 | 92 | 1011.8 |
| 20260507111556 | 54 | 272 | 0.0 | 0.0 | 0.00 | 0.18 | 0.06 | 92 | 1011.8 |
| 20260507111522 | 54 | 272 | 0.0 | 0.0 | 0.00 | 0.18 | 0.06 | 92 | 1011.4 |
| 20260507111441 | 54 | 272 | 0.0 | 0.0 | 0.00 | 0.18 | 0.06 | 92 | 1011.8 |
| 20260507111310 | 54 | 272 | 0.0 | 0.0 | 0.00 | 0.18 | 0.06 | 92 | 1011.7 |
| 20260507111218 | 54 | 272 | 0.0 | 0.0 | 0.00 | 0.18 | 0.06 | 92 | 1011.7 |
| 20260507111130 | 54 | 272 | 0.0 | 0.0 | 0.00 | 0.18 | 0.06 | 92 | 1011.7 |
| 20260507111036 | 54 | 272 | 0.0 | 0.0 | 0.00 | 0.18 | 0.06 | 92 | 1011.7 |
| 20260507110949 | 54 | 272 | 0.0 | 0.0 | 0.00 | 0.18 | 0.06 | 92 | 1011.7 |
| 20260507110849 | 54 | 272 | 0.0 | 0.0 | 0.00 | 0.18 | 0.06 | 92 | 1011.7 |
| 20260507110715 | 54 | 272 | 0.0 | 0.0 | 0.00 | 0.18 | 0.06 | 92 | 1011.7 |
| 20260507110618 | 54 | 272 | 0.0 | 0.0 | 0.00 | 0.18 | 0.06 | 92 | 1011.7 |
| 20260507110531 | 54 | 272 | 0.0 | 0.0 | 0.00 | 0.18 | 0.06 | 91 | 1011.7 |
| 20260507110418 | 54 | 272 | 0.0 | 0.0 | 0.00 | 0.18 | 0.06 | 91 | 1011.7 |
| 20260507110323 | 54 | 272 | 0.0 | 0.0 | 0.00 | 0.18 | 0.06 | 91 | 1011.6 |
| 20260507110227 | 54 | 272 | 0.0 | 2.0 | 0.00 | 0.18 | 0.06 | 91 | 1011.6 |
| 20260507110136 | 54 | 272 | 0.0 | 2.0 | 0.00 | 0.18 | 0.06 | 92 | 1011.6 |
| 20260507110015 | 54 | 272 | 0.0 | 2.0 | 0.00 | 0.18 | 0.06 | 91 | 1011.4 |
| 20260507110006 | 54 | 272 | 0.0 | 2.0 | 0.00 | 0.18 | 0.06 | 91 | 1011.0 |
| 20260507105921 | 54 | 272 | 0.0 | 2.0 | 0.00 | 0.18 | 0.06 | 91 | 1011.4 |
| 20260507105840 | 54 | 272 | 0.0 | 2.0 | 0.00 | 0.18 | 0.06 | 92 | 1011.4 |
| 20260507105731 | 54 | 272 | 0.0 | 2.0 | 0.00 | 0.18 | 0.06 | 92 | 1011.3 |
| 20260507105647 | 54 | 300 | 0.0 | 2.0 | 0.00 | 0.18 | 0.06 | 92 | 1011.3 |
| 20260507105539 | 54 | 300 | 0.0 | 2.0 | 0.00 | 0.18 | 0.06 | 92 | 1011.2 |
| 20260507105429 | 54 | 300 | 0.0 | 2.0 | 0.00 | 0.18 | 0.06 | 92 | 1011.2 |
| 20260507105335 | 54 | 288 | 0.0 | 1.0 | 0.00 | 0.18 | 0.06 | 92 | 1011.2 |
| 20260507105245 | 54 | 288 | 0.0 | 1.0 | 0.00 | 0.18 | 0.06 | 92 | 1011.2 |
| 20260507105110 | 54 | 288 | 0.0 | 1.0 | 0.00 | 0.18 | 0.06 | 92 | 1011.2 |
| 20260507105014 | 54 | 288 | 0.0 | 1.0 | 0.00 | 0.18 | 0.06 | 92 | 1011.2 |
| 20260507104926 | 54 | 298 | 0.0 | 0.0 | 0.00 | 0.18 | 0.06 | 92 | 1011.2 |
| 20260507104818 | 54 | 298 | 0.0 | 0.0 | 0.00 | 0.18 | 0.06 | 92 | 1011.2 |
| 20260507104721 | 54 | 298 | 0.0 | 0.0 | 0.00 | 0.18 | 0.06 | 92 | 1011.2 |
| 20260507104624 | 54 | 298 | 0.0 | 0.0 | 0.00 | 0.18 | 0.06 | 92 | 1011.2 |
| 20260507104537 | 54 | 298 | 0.0 | 0.0 | 0.00 | 0.18 | 0.06 | 92 | 1010.9 |
| 20260507104524 | 54 | 298 | 0.0 | 0.0 | 0.00 | 0.18 | 0.06 | 92 | 1011.3 |
| 20260507104416 | 54 | 298 | 0.0 | 0.0 | 0.00 | 0.18 | 0.06 | 92 | 1011.3 |
| 20260507104323 | 54 | 298 | 0.0 | 0.0 | 0.00 | 0.18 | 0.06 | 92 | 1011.3 |
| 20260507104230 | 54 | 298 | 0.0 | 0.0 | 0.00 | 0.18 | 0.06 | 92 | 1011.4 |
| 20260507104126 | 54 | 298 | 0.0 | 0.0 | 0.00 | 0.18 | 0.06 | 92 | 1011.4 |
| 20260507104028 | 54 | 298 | 0.0 | 0.0 | 0.00 | 0.18 | 0.06 | 92 | 1011.3 |
| 20260507103915 | 54 | 298 | 0.0 | 0.0 | 0.00 | 0.18 | 0.06 | 92 | 1011.3 |
| 20260507103822 | 54 | 298 | 0.0 | 0.0 | 0.00 | 0.18 | 0.06 | 92 | 1011.3 |
| 20260507103709 | 54 | 298 | 0.0 | 0.0 | 0.00 | 0.18 | 0.06 | 92 | 1011.3 |
| 20260507103642 | 54 | 298 | 0.0 | 0.0 | 0.00 | 0.18 | 0.06 | 92 | 1011.3 |
| 20260507103511 | 54 | 298 | 0.0 | 0.0 | 0.00 | 0.18 | 0.06 | 92 | 1011.3 |
| 20260507103418 | 54 | 298 | 0.0 | 0.0 | 0.00 | 0.18 | 0.06 | 92 | 1011.3 |
| 20260507103321 | 54 | 298 | 0.0 | 0.0 | 0.00 | 0.18 | 0.06 | 92 | 1011.3 |
| 20260507103234 | 54 | 298 | 0.0 | 0.0 | 0.00 | 0.18 | 0.06 | 92 | 1011.3 |
| 20260507103138 | 54 | 298 | 0.0 | 0.0 | 0.00 | 0.18 | 0.06 | 92 | 1011.4 |
| 20260507103050 | 54 | 298 | 0.0 | 0.0 | 0.00 | 0.18 | 0.06 | 92 | 1011.0 |
| 20260507103013 | 54 | 298 | 0.0 | 0.0 | 0.00 | 0.18 | 0.06 | 92 | 1011.5 |
| 20260507102947 | 54 | 298 | 0.0 | 0.0 | 0.00 | 0.18 | 0.06 | 93 | 1011.6 |
| 20260507102845 | 54 | 298 | 0.0 | 0.0 | 0.00 | 0.18 | 0.06 | 93 | 1011.6 |
| 20260507102740 | 54 | 298 | 0.0 | 0.0 | 0.00 | 0.18 | 0.06 | 92 | 1011.6 |
| 20260507102626 | 54 | 298 | 0.0 | 0.0 | 0.00 | 0.18 | 0.06 | 92 | 1011.5 |
| 20260507102512 | 54 | 298 | 0.0 | 0.0 | 0.00 | 0.18 | 0.06 | 92 | 1011.4 |
| 20260507102418 | 54 | 298 | 0.0 | 0.0 | 0.00 | 0.18 | 0.06 | 92 | 1011.4 |
| 20260507102331 | 54 | 298 | 0.0 | 0.0 | 0.00 | 0.18 | 0.06 | 93 | 1011.4 |
| 20260507102220 | 54 | 298 | 0.0 | 0.0 | 0.00 | 0.18 | 0.06 | 93 | 1011.4 |
| 20260507102126 | 54 | 298 | 0.0 | 0.0 | 0.00 | 0.18 | 0.06 | 92 | 1011.4 |
| 20260507102013 | 54 | 298 | 0.0 | 0.0 | 0.00 | 0.18 | 0.06 | 92 | 1011.5 |
| 20260507101926 | 54 | 298 | 0.0 | 0.0 | 0.00 | 0.18 | 0.06 | 92 | 1011.5 |
| 20260507101833 | 54 | 298 | 0.0 | 0.0 | 0.00 | 0.18 | 0.06 | 92 | 1011.6 |
| 20260507101723 | 54 | 298 | 0.0 | 0.0 | 0.00 | 0.18 | 0.06 | 92 | 1011.6 |
| 20260507101610 | 54 | 298 | 0.0 | 0.0 | 0.00 | 0.18 | 0.06 | 92 | 1011.6 |
| 20260507101549 | 54 | 298 | 0.0 | 0.0 | 0.00 | 0.18 | 0.06 | 92 | 1011.1 |
| 20260507101517 | 55 | 298 | 0.0 | 0.0 | 0.00 | 0.18 | 0.06 | 92 | 1011.5 |
| 20260507101422 | 55 | 298 | 0.0 | 0.0 | 0.00 | 0.18 | 0.06 | 92 | 1011.5 |
| 20260507101335 | 54 | 298 | 0.0 | 0.0 | 0.00 | 0.18 | 0.06 | 92 | 1011.5 |
| 20260507101241 | 55 | 298 | 0.0 | 0.0 | 0.00 | 0.18 | 0.06 | 92 | 1011.5 |
| 20260507101110 | 55 | 298 | 0.0 | 0.0 | 0.00 | 0.18 | 0.06 | 92 | 1011.4 |
| 20260507101016 | 54 | 298 | 0.0 | 0.0 | 0.00 | 0.18 | 0.06 | 92 | 1011.4 |
| 20260507100929 | 55 | 298 | 0.0 | 0.0 | 0.00 | 0.18 | 0.06 | 92 | 1011.4 |
| 20260507100836 | 54 | 298 | 0.0 | 0.0 | 0.00 | 0.18 | 0.06 | 92 | 1011.4 |
| 20260507100722 | 54 | 298 | 0.0 | 0.0 | 0.00 | 0.18 | 0.06 | 92 | 1011.4 |
| 20260507100613 | 55 | 298 | 0.0 | 0.0 | 0.00 | 0.18 | 0.06 | 92 | 1011.4 |
| 20260507100539 | 54 | 298 | 0.0 | 0.0 | 0.00 | 0.18 | 0.06 | 92 | 1011.4 |
| 20260507100430 | 55 | 298 | 0.0 | 0.0 | 0.00 | 0.18 | 0.06 | 92 | 1011.4 |
| 20260507100313 | 54 | 298 | 0.0 | 0.0 | 0.00 | 0.18 | 0.06 | 92 | 1011.6 |
| 20260507100212 | 55 | 298 | 0.0 | 0.0 | 0.00 | 0.18 | 0.06 | 92 | 1011.6 |
| 20260507100118 | 55 | 298 | 0.0 | 0.0 | 0.00 | 0.18 | 0.06 | 92 | 1011.6 |
| 20260507100037 | 54 | 298 | 0.0 | 0.0 | 0.00 | 0.18 | 0.06 | 92 | 1011.1 |
| 20260507100024 | 55 | 298 | 0.0 | 0.0 | 0.00 | 0.18 | 0.06 | 92 | 1011.6 |
| 20260507095917 | 55 | 298 | 0.0 | 0.0 | 0.00 | 0.18 | 0.06 | 92 | 1011.5 |
| 20260507095821 | 55 | 298 | 0.0 | 0.0 | 0.00 | 0.18 | 0.06 | 92 | 1011.5 |
| 20260507095717 | 55 | 298 | 0.0 | 0.0 | 0.00 | 0.18 | 0.06 | 92 | 1011.4 |
| 20260507095650 | 55 | 298 | 0.0 | 0.0 | 0.00 | 0.18 | 0.06 | 92 | 1011.4 |
| 20260507095516 | 55 | 298 | 0.0 | 0.0 | 0.00 | 0.18 | 0.06 | 91 | 1011.4 |
| 20260507095422 | 55 | 298 | 0.0 | 1.0 | 0.00 | 0.18 | 0.06 | 91 | 1011.4 |
| 20260507095312 | 55 | 298 | 0.0 | 1.0 | 0.00 | 0.18 | 0.06 | 91 | 1011.3 |
| 20260507095219 | 55 | 298 | 0.0 | 1.0 | 0.00 | 0.18 | 0.06 | 91 | 1011.3 |
| 20260507095132 | 55 | 298 | 0.0 | 1.0 | 0.00 | 0.18 | 0.06 | 91 | 1011.2 |
| 20260507095018 | 55 | 298 | 0.0 | 1.0 | 0.00 | 0.18 | 0.06 | 91 | 1011.2 |
| 20260507094944 | 55 | 298 | 0.0 | 1.0 | 0.00 | 0.18 | 0.06 | 91 | 1011.2 |
| 20260507094809 | 55 | 298 | 0.0 | 1.0 | 0.00 | 0.18 | 0.06 | 91 | 1011.2 |
| 20260507094726 | 55 | 298 | 0.0 | 1.0 | 0.00 | 0.18 | 0.06 | 91 | 1011.2 |
| 20260507094613 | 55 | 253 | 0.0 | 1.0 | 0.00 | 0.18 | 0.06 | 91 | 1011.1 |
| 20260507094609 | 54 | 253 | 0.0 | 1.0 | 0.00 | 0.18 | 0.06 | 91 | 1010.6 |
| 20260507094519 | 55 | 253 | 0.0 | 1.0 | 0.00 | 0.18 | 0.06 | 91 | 1011.1 |
| 20260507094425 | 55 | 314 | 0.0 | 1.0 | 0.00 | 0.18 | 0.06 | 91 | 1011.0 |
| 20260507094312 | 55 | 314 | 0.0 | 1.0 | 0.00 | 0.18 | 0.06 | 92 | 1011.0 |
| 20260507094229 | 55 | 298 | 0.0 | 1.0 | 0.00 | 0.18 | 0.06 | 92 | 1011.0 |
| 20260507094135 | 55 | 298 | 0.0 | 1.0 | 0.00 | 0.18 | 0.06 | 92 | 1010.9 |
| 20260507094021 | 55 | 277 | 0.0 | 0.0 | 0.00 | 0.18 | 0.06 | 92 | 1010.9 |
| 20260507093927 | 55 | 277 | 0.0 | 0.0 | 0.00 | 0.18 | 0.06 | 92 | 1010.9 |
| 20260507093840 | 55 | 277 | 0.0 | 0.0 | 0.00 | 0.18 | 0.06 | 92 | 1011.0 |
| 20260507093746 | 55 | 277 | 0.0 | 0.0 | 0.00 | 0.18 | 0.06 | 92 | 1010.9 |
| 20260507093611 | 55 | 277 | 0.0 | 0.0 | 0.00 | 0.18 | 0.06 | 92 | 1010.8 |
| 20260507093528 | 55 | 277 | 0.0 | 0.0 | 0.00 | 0.18 | 0.06 | 92 | 1010.8 |
| 20260507093415 | 55 | 277 | 0.0 | 0.0 | 0.00 | 0.18 | 0.06 | 92 | 1010.7 |
| 20260507093321 | 55 | 277 | 0.0 | 0.0 | 0.00 | 0.18 | 0.06 | 92 | 1010.7 |
| 20260507093228 | 55 | 301 | 0.0 | 0.0 | 0.00 | 0.18 | 0.06 | 92 | 1010.7 |
| 20260507093112 | 55 | 301 | 0.0 | 0.0 | 0.00 | 0.18 | 0.06 | 92 | 1010.8 |
| 20260507093031 | 54 | 301 | 0.0 | 0.0 | 0.00 | 0.18 | 0.06 | 92 | 1010.3 |
| 20260507093022 | 55 | 301 | 0.0 | 0.0 | 0.00 | 0.18 | 0.06 | 92 | 1010.8 |
| 20260507092935 | 55 | 301 | 0.0 | 0.0 | 0.00 | 0.18 | 0.06 | 92 | 1010.9 |
| 20260507092821 | 55 | 301 | 0.0 | 0.0 | 0.00 | 0.18 | 0.06 | 92 | 1011.0 |
| 20260507092747 | 55 | 301 | 0.0 | 0.0 | 0.00 | 0.18 | 0.06 | 92 | 1011.0 |
| 20260507092612 | 55 | 302 | 0.0 | 0.0 | 0.00 | 0.18 | 0.06 | 92 | 1011.3 |
| 20260507092525 | 55 | 302 | 0.0 | 0.0 | 0.00 | 0.18 | 0.06 | 92 | 1011.3 |
| 20260507092415 | 55 | 302 | 0.0 | 0.0 | 0.00 | 0.18 | 0.06 | 92 | 1011.3 |
| 20260507092321 | 55 | 302 | 0.0 | 0.0 | 0.00 | 0.18 | 0.06 | 92 | 1011.3 |
| 20260507092228 | 55 | 302 | 0.0 | 0.0 | 0.00 | 0.18 | 0.06 | 92 | 1011.3 |
| 20260507092134 | 55 | 302 | 0.0 | 0.0 | 0.00 | 0.18 | 0.06 | 92 | 1011.3 |
| 20260507092046 | 55 | 302 | 0.0 | 0.0 | 0.00 | 0.18 | 0.06 | 92 | 1011.3 |
| 20260507091912 | 55 | 302 | 0.0 | 0.0 | 0.00 | 0.18 | 0.06 | 92 | 1011.2 |
| 20260507091822 | 55 | 302 | 0.0 | 0.0 | 0.00 | 0.18 | 0.06 | 92 | 1011.2 |
| 20260507091734 | 55 | 302 | 0.0 | 0.0 | 0.00 | 0.18 | 0.06 | 92 | 1011.2 |
| 20260507091621 | 55 | 302 | 0.0 | 0.0 | 0.00 | 0.18 | 0.06 | 92 | 1011.2 |
| 20260507091608 | 55 | 302 | 0.0 | 0.0 | 0.00 | 0.18 | 0.06 | 92 | 1010.8 |
| 20260507091527 | 55 | 302 | 0.0 | 0.0 | 0.00 | 0.18 | 0.06 | 92 | 1011.3 |
| 20260507091413 | 55 | 302 | 0.0 | 0.0 | 0.00 | 0.18 | 0.06 | 92 | 1011.3 |
| 20260507091320 | 55 | 302 | 0.0 | 0.0 | 0.00 | 0.18 | 0.06 | 92 | 1011.3 |
| 20260507091210 | 55 | 302 | 0.0 | 0.0 | 0.00 | 0.18 | 0.06 | 92 | 1011.2 |
| 20260507091122 | 55 | 302 | 0.0 | 0.0 | 0.00 | 0.18 | 0.06 | 92 | 1011.2 |
| 20260507091010 | 55 | 302 | 0.0 | 0.0 | 0.00 | 0.18 | 0.06 | 92 | 1011.2 |
| 20260507090916 | 55 | 302 | 0.0 | 0.0 | 0.00 | 0.18 | 0.06 | 92 | 1011.2 |
| 20260507090849 | 55 | 302 | 0.0 | 0.0 | 0.00 | 0.18 | 0.06 | 92 | 1011.2 |
| 20260507090715 | 55 | 302 | 0.0 | 0.0 | 0.00 | 0.18 | 0.06 | 92 | 1011.2 |
| 20260507090625 | 55 | 302 | 0.0 | 0.0 | 0.00 | 0.18 | 0.06 | 92 | 1011.2 |
| 20260507090510 | 55 | 302 | 0.0 | 0.0 | 0.00 | 0.18 | 0.06 | 92 | 1011.2 |
| 20260507090444 | 55 | 302 | 0.0 | 0.0 | 0.00 | 0.18 | 0.06 | 92 | 1011.2 |
| 20260507090328 | 55 | 302 | 0.0 | 0.0 | 0.00 | 0.18 | 0.06 | 92 | 1011.2 |
| 20260507090214 | 55 | 302 | 0.0 | 0.0 | 0.00 | 0.18 | 0.06 | 92 | 1011.2 |
| 20260507090121 | 55 | 302 | 0.0 | 0.0 | 0.00 | 0.18 | 0.06 | 92 | 1011.2 |
| 20260507090047 | 55 | 302 | 0.0 | 0.0 | 0.00 | 0.18 | 0.06 | 92 | 1010.7 |
| 20260507090011 | 55 | 302 | 0.0 | 0.0 | 0.00 | 0.18 | 0.06 | 92 | 1011.1 |
| 20260507085918 | 55 | 302 | 0.0 | 0.0 | 0.00 | 0.18 | 0.06 | 92 | 1011.1 |
| 20260507085831 | 55 | 302 | 0.0 | 0.0 | 0.00 | 0.18 | 0.06 | 92 | 1011.1 |
| 20260507085738 | 56 | 302 | 0.0 | 0.0 | 0.00 | 0.18 | 0.06 | 92 | 1011.1 |
| 20260507085650 | 55 | 78 | 0.0 | 0.0 | 0.00 | 0.18 | 0.06 | 92 | 1011.1 |
| 20260507085535 | 56 | 67 | 0.0 | 0.0 | 0.00 | 0.18 | 0.06 | 92 | 1011.0 |
| 20260507085425 | 56 | 261 | 0.0 | 1.0 | 0.00 | 0.18 | 0.06 | 92 | 1011.0 |
| 20260507085217 | 56 | 261 | 0.0 | 1.0 | 0.00 | 0.18 | 0.06 | 92 | 1011.0 |
| 20260507085124 | 56 | 261 | 0.0 | 1.0 | 0.00 | 0.18 | 0.06 | 92 | 1011.0 |
| 20260507085010 | 56 | 261 | 0.0 | 1.0 | 0.00 | 0.18 | 0.06 | 92 | 1011.0 |
| 20260507084927 | 56 | 261 | 0.0 | 1.0 | 0.00 | 0.18 | 0.06 | 92 | 1011.0 |
| 20260507084834 | 56 | 261 | 0.0 | 1.0 | 0.00 | 0.18 | 0.06 | 92 | 1010.9 |
| 20260507084719 | 56 | 261 | 0.0 | 1.0 | 0.00 | 0.18 | 0.06 | 92 | 1010.9 |
| 20260507084632 | 56 | 261 | 0.0 | 1.0 | 0.00 | 0.18 | 0.06 | 92 | 1010.7 |
| 20260507084606 | 55 | 261 | 0.0 | 1.0 | 0.00 | 0.18 | 0.06 | 92 | 1010.3 |
| 20260507084517 | 56 | 266 | 0.0 | 1.0 | 0.00 | 0.18 | 0.06 | 92 | 1010.7 |
| 20260507084423 | 56 | 267 | 0.0 | 1.0 | 0.00 | 0.18 | 0.06 | 92 | 1010.7 |
| 20260507084313 | 56 | 267 | 0.0 | 1.0 | 0.00 | 0.18 | 0.06 | 92 | 1010.6 |
| 20260507084219 | 56 | 267 | 0.0 | 1.0 | 0.00 | 0.18 | 0.06 | 92 | 1010.6 |
| 20260507084132 | 56 | 267 | 0.0 | 1.0 | 0.00 | 0.18 | 0.06 | 93 | 1010.5 |
| 20260507084018 | 56 | 267 | 0.0 | 0.0 | 0.00 | 0.18 | 0.06 | 93 | 1010.5 |
| 20260507083924 | 56 | 267 | 0.0 | 1.0 | 0.00 | 0.18 | 0.06 | 93 | 1010.5 |
| 20260507083810 | 56 | 61 | 0.0 | 1.0 | 0.00 | 0.18 | 0.06 | 93 | 1010.5 |
| 20260507083719 | 56 | 61 | 0.0 | 1.0 | 0.00 | 0.18 | 0.06 | 93 | 1010.5 |
| 20260507083653 | 56 | 61 | 0.0 | 1.0 | 0.00 | 0.18 | 0.06 | 93 | 1010.6 |
| 20260507083538 | 56 | 61 | 0.0 | 1.0 | 0.00 | 0.18 | 0.06 | 93 | 1010.6 |
| 20260507083424 | 56 | 61 | 0.0 | 1.0 | 0.00 | 0.18 | 0.06 | 93 | 1010.6 |
| 20260507083337 | 56 | 61 | 0.0 | 1.0 | 0.00 | 0.18 | 0.06 | 92 | 1010.7 |
| 20260507083224 | 56 | 61 | 0.0 | 1.0 | 0.00 | 0.18 | 0.06 | 92 | 1010.7 |
| 20260507083114 | 56 | 23 | 0.0 | 1.0 | 0.00 | 0.18 | 0.06 | 92 | 1010.7 |
| 20260507083039 | 55 | 303 | 0.0 | 1.0 | 0.00 | 0.18 | 0.06 | 92 | 1010.2 |
| 20260507083020 | 56 | 226 | 0.0 | 1.0 | 0.00 | 0.18 | 0.06 | 92 | 1010.7 |
| 20260507082933 | 56 | 200 | 0.0 | 0.0 | 0.00 | 0.18 | 0.06 | 92 | 1010.6 |
| 20260507082817 | 56 | 200 | 0.0 | 0.0 | 0.00 | 0.18 | 0.06 | 92 | 1010.6 |
| 20260507082724 | 56 | 200 | 0.0 | 0.0 | 0.00 | 0.18 | 0.06 | 92 | 1010.7 |
| 20260507082612 | 56 | 200 | 0.0 | 0.0 | 0.00 | 0.18 | 0.06 | 92 | 1010.8 |
| 20260507082522 | 56 | 200 | 0.0 | 0.0 | 0.00 | 0.18 | 0.06 | 92 | 1010.8 |
| 20260507082435 | 56 | 200 | 0.0 | 0.0 | 0.00 | 0.18 | 0.06 | 92 | 1010.8 |
| 20260507082321 | 56 | 200 | 0.0 | 0.0 | 0.00 | 0.18 | 0.06 | 92 | 1010.8 |
| 20260507082228 | 56 | 200 | 0.0 | 0.0 | 0.00 | 0.18 | 0.06 | 92 | 1010.7 |
| 20260507082114 | 56 | 200 | 0.0 | 0.0 | 0.00 | 0.18 | 0.06 | 92 | 1010.6 |
| 20260507082021 | 56 | 200 | 0.0 | 0.0 | 0.00 | 0.18 | 0.06 | 92 | 1010.6 |
| 20260507081912 | 56 | 200 | 0.0 | 0.0 | 0.00 | 0.18 | 0.06 | 92 | 1010.7 |
| 20260507081826 | 56 | 200 | 0.0 | 0.0 | 0.00 | 0.18 | 0.06 | 92 | 1010.7 |
| 20260507081731 | 56 | 200 | 0.0 | 1.0 | 0.00 | 0.18 | 0.06 | 92 | 1010.8 |
| 20260507081617 | 56 | 200 | 0.0 | 1.0 | 0.00 | 0.18 | 0.06 | 92 | 1010.7 |
| 20260507081601 | 55 | 200 | 0.0 | 1.0 | 0.00 | 0.18 | 0.06 | 92 | 1010.3 |
| 20260507081523 | 56 | 200 | 0.0 | 1.0 | 0.00 | 0.18 | 0.06 | 92 | 1010.7 |
| 20260507081413 | 56 | 200 | 0.0 | 1.0 | 0.00 | 0.18 | 0.06 | 92 | 1010.8 |
| 20260507081320 | 56 | 200 | 0.0 | 1.0 | 0.00 | 0.18 | 0.06 | 92 | 1010.8 |
| 20260507081233 | 56 | 200 | 0.0 | 1.0 | 0.00 | 0.18 | 0.06 | 92 | 1010.8 |
| 20260507081119 | 56 | 200 | 0.0 | 1.0 | 0.00 | 0.18 | 0.06 | 92 | 1010.9 |
| 20260507081025 | 56 | 200 | 0.0 | 1.0 | 0.00 | 0.18 | 0.06 | 92 | 1010.8 |
| 20260507080915 | 56 | 209 | 0.0 | 1.0 | 0.00 | 0.18 | 0.06 | 92 | 1010.8 |
| 20260507080821 | 56 | 209 | 0.0 | 1.0 | 0.00 | 0.18 | 0.06 | 92 | 1010.8 |
| 20260507080727 | 56 | 150 | 0.0 | 1.0 | 0.00 | 0.18 | 0.06 | 92 | 1010.7 |
| 20260507080614 | 56 | 150 | 0.0 | 1.0 | 0.00 | 0.18 | 0.06 | 92 | 1010.7 |
| 20260507080527 | 56 | 150 | 0.0 | 1.0 | 0.00 | 0.18 | 0.06 | 92 | 1010.7 |
| 20260507080413 | 56 | 150 | 0.0 | 1.0 | 0.00 | 0.18 | 0.06 | 92 | 1010.6 |
| 20260507080324 | 56 | 137 | 0.0 | 1.0 | 0.00 | 0.18 | 0.06 | 92 | 1010.6 |
| 20260507080230 | 56 | 137 | 0.0 | 2.0 | 0.00 | 0.18 | 0.06 | 92 | 1010.7 |
| 20260507080123 | 56 | 137 | 0.0 | 3.0 | 0.00 | 0.18 | 0.06 | 92 | 1010.7 |
| 20260507080028 | 56 | 137 | 0.0 | 3.0 | 0.00 | 0.18 | 0.06 | 92 | 1010.8 |
| 20260507080005 | 56 | 137 | 0.0 | 3.0 | 0.00 | 0.18 | 0.06 | 92 | 1010.2 |
| 20260507075914 | 56 | 137 | 0.0 | 3.0 | 0.00 | 0.18 | 0.06 | 92 | 1010.7 |
| 20260507075841 | 56 | 193 | 0.0 | 3.0 | 0.00 | 0.18 | 0.06 | 92 | 1010.7 |
| 20260507075710 | 56 | 193 | 0.0 | 3.0 | 0.00 | 0.18 | 0.06 | 92 | 1010.6 |
| 20260507075643 | 56 | 193 | 0.0 | 3.0 | 0.00 | 0.18 | 0.06 | 92 | 1010.6 |
| 20260507075509 | 56 | 193 | 0.0 | 3.0 | 0.00 | 0.18 | 0.06 | 92 | 1010.6 |
| 20260507075415 | 56 | 193 | 0.0 | 3.0 | 0.00 | 0.18 | 0.06 | 92 | 1010.7 |
| 20260507075328 | 56 | 187 | 0.0 | 3.0 | 0.00 | 0.18 | 0.06 | 92 | 1010.7 |
| 20260507075235 | 56 | 262 | 0.0 | 0.0 | 0.00 | 0.18 | 0.06 | 92 | 1010.7 |
| 20260507075125 | 56 | 262 | 0.0 | 0.0 | 0.00 | 0.18 | 0.06 | 92 | 1010.8 |
| 20260507075011 | 56 | 262 | 0.0 | 3.0 | 0.00 | 0.18 | 0.06 | 92 | 1010.7 |
| 20260507074917 | 57 | 262 | 0.0 | 3.0 | 0.00 | 0.18 | 0.06 | 92 | 1010.7 |
| 20260507074824 | 57 | 262 | 0.0 | 3.0 | 0.00 | 0.18 | 0.06 | 92 | 1010.5 |
| 20260507074710 | 57 | 262 | 0.0 | 3.0 | 0.00 | 0.18 | 0.06 | 92 | 1010.5 |
| 20260507074626 | 57 | 267 | 0.0 | 3.0 | 0.00 | 0.18 | 0.06 | 92 | 1010.5 |
| 20260507074512 | 57 | 267 | 0.0 | 3.0 | 0.00 | 0.18 | 0.06 | 92 | 1010.6 |
| 20260507074507 | 56 | 267 | 0.0 | 3.0 | 0.00 | 0.18 | 0.06 | 92 | 1010.2 |
| 20260507074418 | 57 | 267 | 0.0 | 3.0 | 0.00 | 0.18 | 0.06 | 92 | 1010.6 |
| 20260507074325 | 57 | 267 | 0.0 | 3.0 | 0.00 | 0.18 | 0.06 | 92 | 1010.7 |
| 20260507074211 | 57 | 267 | 0.0 | 3.0 | 0.00 | 0.18 | 0.06 | 92 | 1010.6 |
| 20260507074118 | 57 | 267 | 0.0 | 1.0 | 0.00 | 0.18 | 0.06 | 92 | 1010.6 |
| 20260507074034 | 57 | 267 | 0.0 | 1.0 | 0.00 | 0.18 | 0.06 | 92 | 1010.5 |
| 20260507073920 | 57 | 267 | 0.0 | 1.0 | 0.00 | 0.18 | 0.06 | 92 | 1010.5 |
| 20260507073847 | 57 | 267 | 0.0 | 1.0 | 0.00 | 0.18 | 0.06 | 92 | 1010.5 |
| 20260507073712 | 57 | 267 | 0.0 | 1.0 | 0.00 | 0.18 | 0.06 | 92 | 1010.5 |
| 20260507073645 | 57 | 267 | 0.0 | 1.0 | 0.00 | 0.18 | 0.06 | 92 | 1010.5 |
| 20260507073511 | 57 | 313 | 0.0 | 1.0 | 0.00 | 0.18 | 0.06 | 92 | 1010.4 |
| 20260507073421 | 57 | 313 | 0.0 | 1.0 | 0.00 | 0.18 | 0.06 | 92 | 1010.4 |
| 20260507073328 | 57 | 183 | 0.0 | 0.0 | 0.00 | 0.18 | 0.06 | 92 | 1010.4 |
| 20260507073214 | 57 | 183 | 0.0 | 0.0 | 0.00 | 0.18 | 0.06 | 92 | 1010.3 |
| 20260507073127 | 57 | 183 | 0.0 | 0.0 | 0.00 | 0.18 | 0.06 | 92 | 1010.3 |
| 20260507073110 | 56 | 183 | 0.0 | 0.0 | 0.00 | 0.18 | 0.06 | 92 | 1009.8 |
| 20260507073013 | 57 | 183 | 0.0 | 0.0 | 0.00 | 0.18 | 0.06 | 92 | 1010.2 |
| 20260507072940 | 57 | 183 | 0.0 | 0.0 | 0.00 | 0.18 | 0.06 | 92 | 1010.2 |
| 20260507072836 | 57 | 183 | 0.0 | 1.0 | 0.00 | 0.18 | 0.06 | 92 | 1010.1 |
| 20260507072722 | 57 | 183 | 0.0 | 1.0 | 0.00 | 0.18 | 0.06 | 92 | 1010.1 |
| 20260507072609 | 57 | 183 | 0.0 | 1.0 | 0.00 | 0.18 | 0.06 | 92 | 1010.0 |
| 20260507072516 | 57 | 183 | 0.0 | 1.0 | 0.00 | 0.18 | 0.06 | 92 | 1010.0 |
| 20260507072449 | 57 | 177 | 0.0 | 1.0 | 0.00 | 0.18 | 0.06 | 92 | 1010.0 |
| 20260507072315 | 57 | 188 | 0.0 | 1.0 | 0.00 | 0.18 | 0.06 | 92 | 1009.9 |
| 20260507072226 | 57 | 175 | 0.0 | 1.0 | 0.00 | 0.18 | 0.06 | 92 | 1009.9 |
| 20260507072113 | 57 | 55 | 0.0 | 1.0 | 0.00 | 0.18 | 0.06 | 92 | 1009.9 |
| 20260507072047 | 57 | 336 | 0.0 | 1.0 | 0.00 | 0.18 | 0.06 | 92 | 1009.9 |
| 20260507071913 | 57 | 201 | 0.0 | 0.0 | 0.00 | 0.18 | 0.06 | 92 | 1009.9 |
| 20260507071819 | 57 | 201 | 0.0 | 0.0 | 0.00 | 0.18 | 0.06 | 92 | 1009.9 |
| 20260507071710 | 57 | 201 | 0.0 | 0.0 | 0.00 | 0.18 | 0.06 | 92 | 1010.0 |
| 20260507071616 | 57 | 201 | 0.0 | 0.0 | 0.00 | 0.18 | 0.06 | 92 | 1010.0 |
| 20260507071532 | 57 | 201 | 0.0 | 0.0 | 0.00 | 0.18 | 0.06 | 92 | 1009.6 |
| 20260507071522 | 57 | 201 | 0.0 | 0.0 | 0.00 | 0.18 | 0.06 | 92 | 1010.0 |
| 20260507071435 | 57 | 201 | 0.0 | 0.0 | 0.00 | 0.18 | 0.06 | 92 | 1009.9 |
| 20260507071320 | 57 | 201 | 0.0 | 0.0 | 0.00 | 0.18 | 0.06 | 92 | 1009.9 |
| 20260507071227 | 57 | 201 | 0.0 | 0.0 | 0.00 | 0.18 | 0.06 | 92 | 1009.9 |
| 20260507071117 | 57 | 201 | 0.0 | 0.0 | 0.00 | 0.18 | 0.06 | 92 | 1010.0 |
| 20260507071029 | 57 | 201 | 0.0 | 0.0 | 0.00 | 0.18 | 0.06 | 92 | 1010.0 |
| 20260507070917 | 57 | 201 | 0.0 | 0.0 | 0.00 | 0.18 | 0.06 | 92 | 1010.1 |
| 20260507070822 | 57 | 201 | 0.0 | 0.0 | 0.00 | 0.18 | 0.06 | 92 | 1010.1 |
| 20260507070710 | 57 | 201 | 0.0 | 0.0 | 0.00 | 0.18 | 0.06 | 92 | 1010.0 |
| 20260507070616 | 57 | 201 | 0.0 | 1.0 | 0.00 | 0.18 | 0.06 | 92 | 1010.0 |
| 20260507070526 | 57 | 201 | 0.0 | 1.0 | 0.00 | 0.18 | 0.06 | 92 | 1009.9 |
| 20260507070412 | 57 | 201 | 0.0 | 1.0 | 0.00 | 0.18 | 0.06 | 92 | 1009.8 |
| 20260507070325 | 57 | 277 | 0.0 | 1.0 | 0.00 | 0.18 | 0.06 | 92 | 1009.8 |
| 20260507070212 | 58 | 277 | 0.0 | 1.0 | 0.00 | 0.18 | 0.06 | 92 | 1009.8 |
| 20260507070138 | 57 | 277 | 0.0 | 1.0 | 0.00 | 0.18 | 0.06 | 92 | 1009.8 |
| 20260507070030 | 58 | 284 | 0.0 | 1.0 | 0.00 | 0.18 | 0.06 | 92 | 1009.8 |
| 20260507070023 | 57 | 284 | 0.0 | 1.0 | 0.00 | 0.18 | 0.06 | 92 | 1009.3 |
| 20260507065920 | 58 | 284 | 0.0 | 1.0 | 0.00 | 0.18 | 0.06 | 92 | 1009.8 |
| 20260507065826 | 58 | 288 | 0.0 | 1.0 | 0.00 | 0.18 | 0.06 | 92 | 1009.8 |
| 20260507065714 | 58 | 134 | 0.0 | 0.0 | 0.00 | 0.18 | 0.06 | 92 | 1009.8 |
| 20260507065639 | 58 | 215 | 0.0 | 0.0 | 0.00 | 0.18 | 0.06 | 92 | 1009.8 |
| 20260507065531 | 58 | 289 | 0.0 | 0.0 | 0.00 | 0.18 | 0.06 | 92 | 1009.7 |
| 20260507065421 | 58 | 289 | 0.0 | 0.0 | 0.00 | 0.18 | 0.06 | 92 | 1009.7 |
| 20260507065327 | 58 | 289 | 0.0 | 0.0 | 0.00 | 0.18 | 0.06 | 92 | 1009.7 |
| 20260507065215 | 58 | 289 | 0.0 | 0.0 | 0.00 | 0.18 | 0.06 | 92 | 1009.7 |
| 20260507065120 | 58 | 289 | 0.0 | 0.0 | 0.00 | 0.18 | 0.06 | 92 | 1009.7 |
| 20260507065053 | 58 | 289 | 0.0 | 0.0 | 0.00 | 0.18 | 0.06 | 92 | 1009.8 |
| 20260507064919 | 58 | 289 | 0.0 | 0.0 | 0.00 | 0.18 | 0.06 | 92 | 1009.8 |
| 20260507064809 | 58 | 289 | 0.0 | 0.0 | 0.00 | 0.18 | 0.06 | 92 | 1009.8 |
| 20260507064736 | 58 | 289 | 0.0 | 0.0 | 0.00 | 0.18 | 0.06 | 92 | 1009.8 |
| 20260507064628 | 58 | 289 | 0.0 | 1.0 | 0.00 | 0.18 | 0.06 | 91 | 1009.7 |
| 20260507064609 | 58 | 289 | 0.0 | 1.0 | 0.00 | 0.18 | 0.06 | 91 | 1009.3 |
| 20260507064515 | 58 | 289 | 0.0 | 1.0 | 0.00 | 0.18 | 0.06 | 91 | 1009.9 |
| 20260507064421 | 58 | 289 | 0.0 | 1.0 | 0.00 | 0.18 | 0.06 | 91 | 1009.9 |
| 20260507064354 | 58 | 289 | 0.0 | 1.0 | 0.00 | 0.18 | 0.06 | 92 | 1010.0 |
| 20260507064224 | 58 | 289 | 0.0 | 1.0 | 0.00 | 0.18 | 0.06 | 92 | 1010.0 |
| 20260507064111 | 58 | 289 | 0.0 | 1.0 | 0.00 | 0.18 | 0.06 | 92 | 1009.9 |
| 20260507064017 | 58 | 323 | 0.0 | 1.0 | 0.00 | 0.18 | 0.06 | 91 | 1009.9 |
| 20260507063925 | 58 | 256 | 0.0 | 1.0 | 0.00 | 0.18 | 0.06 | 91 | 1009.9 |
| 20260507063810 | 58 | 256 | 0.0 | 1.0 | 0.00 | 0.18 | 0.06 | 91 | 1009.8 |
| 20260507063717 | 58 | 305 | 0.0 | 1.0 | 0.00 | 0.18 | 0.06 | 91 | 1009.8 |
| 20260507063634 | 58 | 355 | 0.0 | 1.0 | 0.00 | 0.18 | 0.06 | 91 | 1009.7 |
| 20260507063519 | 58 | 341 | 0.0 | 1.0 | 0.00 | 0.18 | 0.06 | 91 | 1009.7 |
| 20260507063425 | 59 | 137 | 0.0 | 1.0 | 0.00 | 0.18 | 0.06 | 91 | 1009.7 |
| 20260507063312 | 59 | 137 | 0.0 | 1.0 | 0.00 | 0.18 | 0.06 | 91 | 1009.9 |
| 20260507063226 | 59 | 137 | 0.0 | 1.0 | 0.00 | 0.18 | 0.06 | 91 | 1009.9 |
| 20260507063116 | 59 | 137 | 0.0 | 1.0 | 0.00 | 0.18 | 0.06 | 92 | 1009.9 |
| 20260507063107 | 58 | 137 | 0.0 | 1.0 | 0.00 | 0.18 | 0.06 | 92 | 1009.5 |
| 20260507063022 | 59 | 208 | 0.0 | 1.0 | 0.00 | 0.18 | 0.06 | 91 | 1010.0 |
| 20260507062909 | 59 | 208 | 0.0 | 1.0 | 0.00 | 0.18 | 0.06 | 91 | 1010.0 |
| 20260507062815 | 59 | 163 | 0.0 | 1.0 | 0.00 | 0.18 | 0.06 | 91 | 1010.0 |
| 20260507062722 | 59 | 129 | 0.0 | 1.0 | 0.00 | 0.18 | 0.06 | 91 | 1010.0 |
| 20260507062635 | 59 | 121 | 0.0 | 1.0 | 0.00 | 0.18 | 0.06 | 91 | 1010.0 |
| 20260507062545 | 59 | 259 | 0.0 | 1.0 | 0.00 | 0.18 | 0.06 | 91 | 1009.9 |
| 20260507062410 | 59 | 140 | 0.0 | 1.0 | 0.00 | 0.18 | 0.06 | 91 | 1009.9 |
| 20260507062316 | 59 | 54 | 0.0 | 2.0 | 0.00 | 0.18 | 0.06 | 91 | 1009.9 |
| 20260507062222 | 59 | 204 | 0.0 | 2.0 | 0.00 | 0.18 | 0.06 | 92 | 1010.0 |
| 20260507062135 | 60 | 200 | 0.0 | 2.0 | 0.00 | 0.18 | 0.06 | 92 | 1010.1 |
| 20260507062020 | 60 | 168 | 0.0 | 2.0 | 0.00 | 0.18 | 0.06 | 92 | 1010.1 |
| 20260507061931 | 60 | 196 | 0.0 | 4.0 | 0.00 | 0.18 | 0.06 | 92 | 1010.1 |
| 20260507061816 | 60 | 196 | 0.0 | 4.0 | 0.00 | 0.18 | 0.06 | 92 | 1010.1 |
| 20260507061729 | 60 | 196 | 0.0 | 4.0 | 0.00 | 0.18 | 0.06 | 92 | 1010.1 |
| 20260507061615 | 60 | 214 | 0.0 | 4.0 | 0.00 | 0.18 | 0.06 | 92 | 1010.1 |
| 20260507061603 | 59 | 214 | 0.0 | 4.0 | 0.00 | 0.18 | 0.06 | 92 | 1009.7 |
| 20260507061519 | 60 | 327 | 0.0 | 6.0 | 0.00 | 0.18 | 0.06 | 92 | 1010.1 |
| 20260507061410 | 60 | 147 | 0.0 | 6.0 | 0.00 | 0.18 | 0.06 | 92 | 1010.2 |
| 20260507061315 | 60 | 298 | 0.0 | 6.0 | 0.00 | 0.18 | 0.06 | 92 | 1010.2 |
| 20260507061222 | 60 | 280 | 0.0 | 6.0 | 0.00 | 0.18 | 0.06 | 92 | 1010.2 |
| 20260507061135 | 60 | 285 | 1.0 | 6.0 | 0.00 | 0.18 | 0.06 | 92 | 1010.1 |
| 20260507061020 | 60 | 285 | 1.0 | 6.0 | 0.00 | 0.18 | 0.06 | 92 | 1010.1 |
| 20260507060927 | 60 | 205 | 1.0 | 6.0 | 0.00 | 0.18 | 0.06 | 92 | 1010.1 |
| 20260507060817 | 61 | 134 | 2.0 | 6.0 | 0.00 | 0.18 | 0.06 | 92 | 1010.1 |
| 20260507060723 | 61 | 189 | 1.0 | 6.0 | 0.01 | 0.18 | 0.06 | 92 | 1010.1 |
| 20260507060609 | 61 | 254 | 0.0 | 3.0 | 0.01 | 0.18 | 0.06 | 92 | 1010.0 |
| 20260507060517 | 61 | 254 | 0.0 | 3.0 | 0.01 | 0.18 | 0.06 | 92 | 1010.0 |
| 20260507060429 | 61 | 254 | 0.0 | 3.0 | 0.01 | 0.18 | 0.06 | 92 | 1010.0 |
| 20260507060319 | 61 | 254 | 0.0 | 3.0 | 0.01 | 0.18 | 0.06 | 92 | 1010.0 |
| 20260507060225 | 61 | 254 | 0.0 | 6.0 | 0.01 | 0.18 | 0.06 | 92 | 1010.0 |
| 20260507060111 | 61 | 254 | 0.0 | 8.0 | 0.01 | 0.18 | 0.06 | 93 | 1009.8 |
| 20260507060044 | 61 | 292 | 0.0 | 8.0 | 0.01 | 0.18 | 0.06 | 93 | 1009.8 |
| 20260507060009 | 61 | 256 | 0.0 | 8.0 | 0.01 | 0.18 | 0.06 | 93 | 1009.4 |
| 20260507055926 | 61 | 256 | 0.0 | 8.0 | 0.01 | 0.18 | 0.06 | 93 | 1009.9 |
| 20260507055812 | 61 | 256 | 0.0 | 8.0 | 0.01 | 0.18 | 0.06 | 93 | 1009.9 |
| 20260507055723 | 61 | 265 | 0.0 | 8.0 | 0.01 | 0.18 | 0.06 | 93 | 1009.9 |
| 20260507055609 | 61 | 299 | 0.0 | 8.0 | 0.01 | 0.18 | 0.06 | 93 | 1010.0 |
| 20260507055517 | 61 | 263 | 2.0 | 8.0 | 0.01 | 0.18 | 0.06 | 93 | 1010.0 |
| 20260507055429 | 61 | 40 | 2.0 | 8.0 | 0.01 | 0.18 | 0.06 | 93 | 1010.0 |
| 20260507055335 | 62 | 246 | 1.0 | 4.0 | 0.01 | 0.18 | 0.06 | 93 | 1010.0 |
| 20260507055221 | 62 | 287 | 0.0 | 4.0 | 0.01 | 0.18 | 0.06 | 93 | 1010.0 |
| 20260507055138 | 62 | 22 | 0.0 | 4.0 | 0.01 | 0.18 | 0.06 | 93 | 1010.1 |
| 20260507055043 | 62 | 22 | 0.0 | 4.0 | 0.01 | 0.18 | 0.06 | 93 | 1010.2 |
| 20260507054935 | 62 | 134 | 1.0 | 4.0 | 0.01 | 0.18 | 0.06 | 93 | 1010.3 |
| 20260507054820 | 62 | 134 | 1.0 | 4.0 | 0.01 | 0.18 | 0.06 | 93 | 1010.3 |
| 20260507054726 | 62 | 142 | 1.0 | 4.0 | 0.01 | 0.18 | 0.06 | 93 | 1010.3 |
| 20260507054640 | 62 | 355 | 0.0 | 4.0 | 0.01 | 0.18 | 0.06 | 93 | 1010.3 |
| 20260507054524 | 62 | 219 | 0.0 | 4.0 | 0.01 | 0.18 | 0.06 | 93 | 1010.2 |
| 20260507054501 | 61 | 219 | 0.0 | 4.0 | 0.01 | 0.18 | 0.06 | 93 | 1009.8 |
| 20260507054415 | 62 | 294 | 0.0 | 4.0 | 0.01 | 0.18 | 0.06 | 93 | 1010.1 |
| 20260507054321 | 62 | 215 | 0.0 | 4.0 | 0.01 | 0.18 | 0.06 | 93 | 1010.1 |
| 20260507054227 | 62 | 276 | 0.0 | 4.0 | 0.01 | 0.18 | 0.06 | 93 | 1010.0 |
| 20260507054113 | 62 | 278 | 0.0 | 4.0 | 0.01 | 0.18 | 0.06 | 93 | 1009.9 |
| 20260507054026 | 62 | 319 | 1.0 | 4.0 | 0.01 | 0.18 | 0.06 | 93 | 1009.9 |
| 20260507053916 | 62 | 11 | 1.0 | 4.0 | 0.01 | 0.18 | 0.06 | 93 | 1009.9 |
| 20260507053822 | 62 | 303 | 0.0 | 4.0 | 0.01 | 0.18 | 0.06 | 93 | 1009.9 |
| 20260507053728 | 62 | 318 | 0.0 | 4.0 | 0.01 | 0.18 | 0.06 | 93 | 1009.9 |
| 20260507053614 | 62 | 261 | 0.0 | 4.0 | 0.01 | 0.18 | 0.06 | 93 | 1009.9 |
| 20260507053520 | 63 | 5 | 0.0 | 4.0 | 0.01 | 0.18 | 0.06 | 94 | 1009.9 |
| 20260507053433 | 63 | 270 | 0.0 | 4.0 | 0.01 | 0.18 | 0.06 | 94 | 1009.8 |
| 20260507053324 | 63 | 313 | 1.0 | 4.0 | 0.01 | 0.18 | 0.06 | 93 | 1009.7 |
| 20260507053210 | 63 | 298 | 1.0 | 4.0 | 0.01 | 0.18 | 0.06 | 94 | 1009.7 |
| 20260507053116 | 63 | 273 | 0.0 | 4.0 | 0.01 | 0.18 | 0.06 | 94 | 1009.7 |
| 20260507053052 | 62 | 293 | 0.0 | 4.0 | 0.01 | 0.18 | 0.06 | 94 | 1009.1 |
| 20260507053021 | 63 | 293 | 0.0 | 4.0 | 0.01 | 0.18 | 0.06 | 94 | 1009.6 |
| 20260507052909 | 63 | 304 | 0.0 | 4.0 | 0.02 | 0.18 | 0.06 | 94 | 1009.6 |
| 20260507052827 | 63 | 273 | 0.0 | 4.0 | 0.02 | 0.18 | 0.06 | 94 | 1009.6 |
| 20260507052732 | 63 | 287 | 0.0 | 4.0 | 0.02 | 0.18 | 0.06 | 94 | 1009.5 |
| 20260507052619 | 63 | 290 | 1.0 | 4.0 | 0.02 | 0.18 | 0.06 | 94 | 1009.5 |
| 20260507052526 | 63 | 300 | 1.0 | 4.0 | 0.02 | 0.18 | 0.06 | 94 | 1009.5 |
| 20260507052413 | 63 | 232 | 0.0 | 4.0 | 0.03 | 0.18 | 0.06 | 94 | 1009.5 |
| 20260507052318 | 63 | 27 | 0.0 | 4.0 | 0.03 | 0.18 | 0.06 | 94 | 1009.5 |
| 20260507052209 | 63 | 279 | 0.0 | 4.0 | 0.04 | 0.18 | 0.06 | 94 | 1009.6 |
| 20260507052122 | 63 | 279 | 0.0 | 4.0 | 0.04 | 0.18 | 0.06 | 94 | 1009.6 |
| 20260507052011 | 63 | 279 | 0.0 | 4.0 | 0.05 | 0.18 | 0.06 | 94 | 1009.6 |
| 20260507051916 | 63 | 279 | 0.0 | 4.0 | 0.05 | 0.18 | 0.06 | 94 | 1009.6 |
| 20260507051823 | 63 | 291 | 0.0 | 0.0 | 0.05 | 0.18 | 0.06 | 94 | 1009.5 |
| 20260507051713 | 63 | 292 | 0.0 | 0.0 | 0.05 | 0.18 | 0.06 | 94 | 1009.4 |
| 20260507051619 | 63 | 292 | 0.0 | 0.0 | 0.05 | 0.18 | 0.06 | 94 | 1009.4 |
| 20260507051532 | 63 | 333 | 0.0 | 0.0 | 0.05 | 0.18 | 0.06 | 94 | 1009.4 |
| 20260507051522 | 63 | 333 | 0.0 | 0.0 | 0.05 | 0.18 | 0.06 | 94 | 1008.9 |
| 20260507051438 | 63 | 300 | 0.0 | 0.0 | 0.05 | 0.18 | 0.06 | 94 | 1009.3 |
| 20260507051324 | 63 | 300 | 0.0 | 0.0 | 0.05 | 0.18 | 0.06 | 94 | 1009.1 |
| 20260507051211 | 63 | 300 | 0.0 | 0.0 | 0.05 | 0.18 | 0.06 | 94 | 1008.7 |
| 20260507051128 | 63 | 300 | 0.0 | 0.0 | 0.05 | 0.18 | 0.06 | 94 | 1008.7 |
| 20260507051009 | 63 | 313 | 0.0 | 0.0 | 0.05 | 0.18 | 0.06 | 94 | 1008.4 |
| 20260507050922 | 63 | 314 | 0.0 | 0.0 | 0.05 | 0.18 | 0.06 | 94 | 1008.4 |
| 20260507050828 | 63 | 314 | 0.0 | 0.0 | 0.05 | 0.18 | 0.06 | 94 | 1008.4 |
| 20260507050715 | 63 | 37 | 0.0 | 0.0 | 0.04 | 0.17 | 0.05 | 94 | 1008.3 |
| 20260507050626 | 63 | 37 | 0.0 | 0.0 | 0.04 | 0.17 | 0.05 | 94 | 1008.3 |
| 20260507050513 | 63 | 38 | 0.0 | 0.0 | 0.05 | 0.17 | 0.05 | 94 | 1008.2 |
| 20260507050426 | 63 | 37 | 0.0 | 0.0 | 0.05 | 0.17 | 0.05 | 94 | 1008.2 |
| 20260507050314 | 63 | 37 | 0.0 | 0.0 | 0.05 | 0.17 | 0.05 | 94 | 1008.1 |
| 20260507050219 | 63 | 37 | 0.0 | 0.0 | 0.05 | 0.17 | 0.05 | 94 | 1008.1 |
| 20260507050146 | 63 | 38 | 0.0 | 0.0 | 0.05 | 0.17 | 0.05 | 94 | 1008.0 |
| 20260507050025 | 63 | 37 | 0.0 | 0.0 | 0.05 | 0.17 | 0.05 | 94 | 1007.6 |
| 20260507050015 | 63 | 37 | 0.0 | 0.0 | 0.05 | 0.17 | 0.05 | 94 | 1008.1 |
| 20260507045927 | 63 | 37 | 0.0 | 0.0 | 0.05 | 0.17 | 0.05 | 94 | 1008.1 |
| 20260507045813 | 63 | 37 | 0.0 | 0.0 | 0.05 | 0.17 | 0.05 | 94 | 1008.1 |
| 20260507045720 | 63 | 29 | 0.0 | 0.0 | 0.05 | 0.17 | 0.05 | 94 | 1008.1 |
| 20260507045627 | 63 | 29 | 0.0 | 0.0 | 0.05 | 0.17 | 0.05 | 94 | 1008.2 |
| 20260507045518 | 63 | 29 | 0.0 | 0.0 | 0.05 | 0.17 | 0.05 | 94 | 1008.3 |
| 20260507045431 | 63 | 29 | 0.0 | 0.0 | 0.05 | 0.17 | 0.05 | 94 | 1008.5 |
| 20260507045310 | 63 | 29 | 0.0 | 0.0 | 0.05 | 0.17 | 0.05 | 94 | 1008.8 |
| 20260507045223 | 63 | 29 | 0.0 | 0.0 | 0.05 | 0.17 | 0.05 | 94 | 1008.8 |
| 20260507045109 | 63 | 29 | 0.0 | 0.0 | 0.05 | 0.17 | 0.05 | 94 | 1009.0 |
| 20260507045015 | 63 | 29 | 0.0 | 0.0 | 0.05 | 0.17 | 0.05 | 94 | 1009.1 |
| 20260507044925 | 63 | 29 | 0.0 | 0.0 | 0.05 | 0.17 | 0.05 | 94 | 1009.1 |
| 20260507044812 | 63 | 29 | 0.0 | 0.0 | 0.05 | 0.17 | 0.05 | 94 | 1009.4 |
| 20260507044725 | 63 | 29 | 0.0 | 0.0 | 0.05 | 0.17 | 0.05 | 94 | 1009.4 |
| 20260507044631 | 63 | 29 | 0.0 | 0.0 | 0.05 | 0.17 | 0.05 | 94 | 1009.6 |
| 20260507044605 | 63 | 29 | 0.0 | 0.0 | 0.05 | 0.17 | 0.05 | 94 | 1009.2 |
| 20260507044517 | 63 | 29 | 0.0 | 0.0 | 0.05 | 0.17 | 0.05 | 94 | 1009.6 |
| 20260507044427 | 63 | 29 | 0.0 | 0.0 | 0.05 | 0.17 | 0.05 | 94 | 1009.6 |
| 20260507044314 | 63 | 29 | 0.0 | 0.0 | 0.05 | 0.17 | 0.05 | 94 | 1009.7 |
| 20260507044220 | 63 | 29 | 0.0 | 0.0 | 0.05 | 0.17 | 0.05 | 94 | 1009.7 |
| 20260507044133 | 63 | 29 | 0.0 | 0.0 | 0.05 | 0.17 | 0.05 | 94 | 1009.8 |
| 20260507044020 | 63 | 29 | 0.0 | 0.0 | 0.05 | 0.17 | 0.05 | 94 | 1009.8 |
| 20260507043911 | 63 | 29 | 0.0 | 0.0 | 0.05 | 0.17 | 0.05 | 94 | 1009.9 |
| 20260507043818 | 63 | 29 | 0.0 | 0.0 | 0.05 | 0.17 | 0.05 | 94 | 1009.9 |
| 20260507043751 | 63 | 29 | 0.0 | 0.0 | 0.05 | 0.17 | 0.05 | 94 | 1009.9 |
| 20260507043610 | 63 | 29 | 0.0 | 0.0 | 0.05 | 0.17 | 0.05 | 94 | 1009.8 |
| 20260507043523 | 63 | 29 | 0.0 | 0.0 | 0.05 | 0.17 | 0.05 | 94 | 1009.8 |
| 20260507043429 | 63 | 29 | 0.0 | 0.0 | 0.05 | 0.17 | 0.05 | 94 | 1009.7 |
| 20260507043320 | 63 | 29 | 0.0 | 0.0 | 0.05 | 0.17 | 0.05 | 94 | 1009.7 |
| 20260507043226 | 63 | 29 | 0.0 | 0.0 | 0.05 | 0.17 | 0.05 | 94 | 1009.7 |
| 20260507043140 | 63 | 29 | 0.0 | 0.0 | 0.05 | 0.17 | 0.05 | 94 | 1009.8 |
| 20260507043105 | 63 | 29 | 0.0 | 0.0 | 0.05 | 0.17 | 0.05 | 94 | 1009.2 |
| 20260507043044 | 63 | 29 | 0.0 | 0.0 | 0.05 | 0.17 | 0.05 | 94 | 1009.7 |
| 20260507042910 | 63 | 29 | 0.0 | 0.0 | 0.04 | 0.16 | 0.04 | 94 | 1009.5 |
| 20260507042815 | 63 | 29 | 0.0 | 0.0 | 0.04 | 0.16 | 0.04 | 94 | 1009.5 |
| 20260507042728 | 63 | 29 | 0.0 | 0.0 | 0.05 | 0.16 | 0.04 | 94 | 1009.5 |
| 20260507042618 | 63 | 29 | 0.0 | 0.0 | 0.06 | 0.16 | 0.04 | 94 | 1009.4 |
| 20260507042524 | 63 | 29 | 0.0 | 0.0 | 0.07 | 0.16 | 0.04 | 94 | 1009.3 |
| 20260507042410 | 63 | 29 | 0.0 | 0.0 | 0.08 | 0.15 | 0.03 | 94 | 1009.5 |
| 20260507042318 | 63 | 29 | 0.0 | 0.0 | 0.08 | 0.15 | 0.03 | 94 | 1009.5 |
| 20260507042230 | 63 | 29 | 0.0 | 0.0 | 0.08 | 0.14 | 0.02 | 94 | 1009.7 |
| 20260507042119 | 63 | 29 | 0.0 | 0.0 | 0.08 | 0.14 | 0.02 | 94 | 1009.7 |
| 20260507042026 | 63 | 29 | 0.0 | 0.0 | 0.07 | 0.13 | 0.01 | 94 | 1009.7 |
| 20260507041912 | 63 | 29 | 0.0 | 0.0 | 0.07 | 0.13 | 0.01 | 94 | 1009.6 |
| 20260507041819 | 63 | 29 | 0.0 | 0.0 | 0.07 | 0.13 | 0.01 | 94 | 1009.6 |
| 20260507041732 | 63 | 29 | 0.0 | 0.0 | 0.07 | 0.13 | 0.01 | 94 | 1009.6 |
| 20260507041618 | 63 | 29 | 0.0 | 0.0 | 0.07 | 0.13 | 0.01 | 94 | 1009.6 |
| 20260507041604 | 62 | 29 | 0.0 | 0.0 | 0.07 | 0.13 | 0.01 | 94 | 1009.1 |
| 20260507041528 | 63 | 29 | 0.0 | 0.0 | 0.07 | 0.13 | 0.01 | 94 | 1009.6 |
| 20260507041415 | 63 | 29 | 0.0 | 0.0 | 0.07 | 0.13 | 0.01 | 94 | 1009.6 |
| 20260507041321 | 63 | 29 | 0.0 | 0.0 | 0.07 | 0.13 | 0.01 | 94 | 1009.6 |
| 20260507041234 | 63 | 29 | 0.0 | 0.0 | 0.07 | 0.13 | 0.01 | 94 | 1009.6 |
| 20260507041141 | 63 | 29 | 0.0 | 0.0 | 0.07 | 0.13 | 0.01 | 94 | 1009.5 |
| 20260507041046 | 63 | 29 | 0.0 | 0.0 | 0.07 | 0.13 | 0.01 | 94 | 1009.4 |
| 20260507040923 | 63 | 29 | 0.0 | 0.0 | 0.07 | 0.13 | 0.01 | 94 | 1009.4 |
| 20260507040828 | 63 | 29 | 0.0 | 0.0 | 0.07 | 0.13 | 0.01 | 94 | 1009.4 |
| 20260507040734 | 63 | 29 | 0.0 | 0.0 | 0.07 | 0.13 | 0.01 | 94 | 1009.4 |
| 20260507040619 | 63 | 29 | 0.0 | 0.0 | 0.06 | 0.12 | 0.00 | 94 | 1009.4 |
| 20260507040532 | 63 | 29 | 0.0 | 0.0 | 0.06 | 0.12 | 0.00 | 94 | 1009.4 |
| 20260507040437 | 63 | 29 | 0.0 | 0.0 | 0.06 | 0.12 | 0.00 | 94 | 1009.4 |
| 20260507040329 | 63 | 29 | 0.0 | 0.0 | 0.06 | 0.12 | 0.00 | 94 | 1009.3 |
| 20260507040220 | 63 | 29 | 0.0 | 0.0 | 0.06 | 0.12 | 0.00 | 94 | 1009.3 |
| 20260507040126 | 63 | 29 | 0.0 | 0.0 | 0.06 | 0.12 | 0.00 | 94 | 1009.3 |
| 20260507040012 | 63 | 29 | 0.0 | 0.0 | 0.06 | 0.12 | 0.00 | 94 | 1009.2 |
| 20260507035918 | 63 | 29 | 0.0 | 0.0 | 0.06 | 0.12 | 0.00 | 94 | 1009.2 |
| 20260507035825 | 63 | 29 | 0.0 | 0.0 | 0.06 | 0.12 | 0.00 | 94 | 1009.1 |
| 20260507035742 | 63 | 29 | 0.0 | 0.0 | 0.06 | 0.12 | 0.00 | 94 | 1009.2 |
| 20260507035648 | 63 | 29 | 0.0 | 0.0 | 0.06 | 0.12 | 0.00 | 94 | 1009.3 |
| 20260507035539 | 63 | 29 | 0.0 | 0.0 | 0.06 | 0.12 | 0.00 | 93 | 1009.4 |
| 20260507035444 | 63 | 29 | 0.0 | 0.0 | 0.06 | 0.12 | 0.00 | 93 | 1009.5 |
| 20260507035310 | 63 | 29 | 0.0 | 0.0 | 0.06 | 0.12 | 0.00 | 93 | 1009.6 |
| 20260507035223 | 63 | 29 | 0.0 | 0.0 | 0.06 | 0.12 | 0.00 | 93 | 1009.6 |
| 20260507035109 | 63 | 29 | 0.0 | 0.0 | 0.06 | 0.12 | 0.00 | 93 | 1009.3 |
| 20260507035019 | 63 | 29 | 0.0 | 0.0 | 0.06 | 0.12 | 0.00 | 94 | 1009.3 |
| 20260507034925 | 63 | 29 | 0.0 | 0.0 | 0.06 | 0.12 | 0.00 | 94 | 1009.2 |
| 20260507034811 | 63 | 29 | 0.0 | 0.0 | 0.06 | 0.12 | 0.00 | 93 | 1009.4 |
| 20260507034744 | 63 | 29 | 0.0 | 0.0 | 0.06 | 0.12 | 0.00 | 93 | 1009.4 |
| 20260507034649 | 63 | 29 | 0.0 | 0.0 | 0.06 | 0.12 | 0.00 | 93 | 1009.5 |
| 20260507034549 | 62 | 29 | 0.0 | 0.0 | 0.06 | 0.12 | 0.00 | 93 | 1009.2 |
| 20260507034514 | 63 | 29 | 0.0 | 0.0 | 0.06 | 0.12 | 0.12 | 93 | 1009.7 |
| 20260507034431 | 63 | 29 | 0.0 | 0.0 | 0.06 | 0.12 | 0.12 | 93 | 1009.7 |
| 20260507034317 | 63 | 29 | 0.0 | 0.0 | 0.06 | 0.12 | 0.12 | 93 | 1009.6 |
| 20260507034224 | 63 | 29 | 0.0 | 0.0 | 0.06 | 0.12 | 0.12 | 93 | 1009.6 |
| 20260507034110 | 63 | 29 | 0.0 | 0.0 | 0.06 | 0.12 | 0.12 | 93 | 1009.7 |
| 20260507034017 | 63 | 29 | 0.0 | 0.0 | 0.06 | 0.12 | 0.12 | 93 | 1009.7 |
| 20260507033923 | 63 | 29 | 0.0 | 0.0 | 0.06 | 0.12 | 0.12 | 93 | 1009.7 |
| 20260507033814 | 63 | 29 | 0.0 | 0.0 | 0.06 | 0.12 | 0.12 | 93 | 1009.7 |
| 20260507033727 | 63 | 29 | 0.0 | 0.0 | 0.06 | 0.12 | 0.12 | 93 | 1009.7 |
| 20260507033633 | 63 | 29 | 0.0 | 0.0 | 0.06 | 0.12 | 0.12 | 93 | 1009.7 |
| 20260507033518 | 63 | 29 | 0.0 | 0.0 | 0.06 | 0.12 | 0.12 | 93 | 1009.7 |
| 20260507033432 | 63 | 29 | 0.0 | 0.0 | 0.06 | 0.12 | 0.12 | 93 | 1009.7 |
| 20260507033322 | 63 | 29 | 0.0 | 0.0 | 0.06 | 0.12 | 0.12 | 93 | 1009.8 |
| 20260507033228 | 63 | 29 | 0.0 | 0.0 | 0.06 | 0.12 | 0.12 | 93 | 1009.8 |
| 20260507033115 | 63 | 29 | 0.0 | 0.0 | 0.06 | 0.12 | 0.12 | 93 | 1010.0 |
| 20260507033050 | 62 | 29 | 0.0 | 0.0 | 0.06 | 0.12 | 0.12 | 93 | 1009.6 |
| 20260507033020 | 63 | 29 | 0.0 | 0.0 | 0.06 | 0.12 | 0.12 | 93 | 1010.0 |
| 20260507032926 | 63 | 29 | 0.0 | 0.0 | 0.06 | 0.12 | 0.12 | 93 | 1010.1 |
| 20260507032812 | 62 | 29 | 0.0 | 0.0 | 0.05 | 0.11 | 0.11 | 93 | 1010.0 |
| 20260507032729 | 62 | 29 | 0.0 | 0.0 | 0.04 | 0.10 | 0.10 | 93 | 1010.0 |
| 20260507032615 | 62 | 29 | 0.0 | 0.0 | 0.03 | 0.09 | 0.09 | 93 | 1010.0 |
| 20260507032521 | 62 | 29 | 0.0 | 0.0 | 0.02 | 0.08 | 0.08 | 93 | 1010.0 |
| 20260507032427 | 62 | 29 | 0.0 | 0.0 | 0.01 | 0.07 | 0.07 | 93 | 1010.0 |
| 20260507032314 | 62 | 29 | 0.0 | 0.0 | 0.01 | 0.07 | 0.07 | 93 | 1009.9 |
| 20260507032232 | 62 | 29 | 0.0 | 0.0 | 0.00 | 0.06 | 0.06 | 93 | 1009.9 |
| 20260507032111 | 62 | 29 | 0.0 | 0.0 | 0.00 | 0.06 | 0.06 | 93 | 1009.7 |
| 20260507032044 | 62 | 29 | 0.0 | 0.0 | 0.00 | 0.06 | 0.06 | 93 | 1009.7 |
| 20260507031910 | 62 | 29 | 0.0 | 0.0 | 0.00 | 0.06 | 0.06 | 93 | 1009.7 |
| 20260507031817 | 62 | 29 | 0.0 | 0.0 | 0.00 | 0.06 | 0.06 | 93 | 1009.7 |
| 20260507031730 | 62 | 29 | 0.0 | 0.0 | 0.00 | 0.06 | 0.06 | 93 | 1009.7 |
| 20260507031641 | 62 | 29 | 0.0 | 0.0 | 0.00 | 0.06 | 0.06 | 93 | 1009.7 |
| 20260507031548 | 62 | 29 | 0.0 | 0.0 | 0.00 | 0.06 | 0.06 | 93 | 1009.2 |
| 20260507031526 | 62 | 29 | 0.0 | 0.0 | 0.00 | 0.06 | 0.06 | 93 | 1009.7 |
| 20260507031412 | 62 | 29 | 0.0 | 0.0 | 0.00 | 0.06 | 0.06 | 93 | 1009.7 |
| 20260507031319 | 62 | 29 | 0.0 | 0.0 | 0.00 | 0.06 | 0.06 | 92 | 1009.7 |
| 20260507031232 | 62 | 29 | 0.0 | 0.0 | 0.00 | 0.06 | 0.06 | 92 | 1009.6 |
| 20260507031118 | 62 | 29 | 0.0 | 0.0 | 0.00 | 0.06 | 0.06 | 92 | 1009.5 |
| 20260507031009 | 62 | 29 | 0.0 | 0.0 | 0.00 | 0.06 | 0.06 | 92 | 1009.4 |
| 20260507030916 | 62 | 29 | 0.0 | 0.0 | 0.00 | 0.06 | 0.06 | 92 | 1009.4 |
| 20260507030811 | 62 | 29 | 0.0 | 0.0 | 0.00 | 0.06 | 0.06 | 92 | 1009.4 |
| 20260507030724 | 62 | 29 | 0.0 | 0.0 | 0.00 | 0.06 | 0.06 | 92 | 1009.4 |
| 20260507030631 | 62 | 29 | 0.0 | 0.0 | 0.00 | 0.06 | 0.06 | 92 | 1009.4 |
| 20260507030517 | 62 | 29 | 0.0 | 0.0 | 0.00 | 0.06 | 0.06 | 92 | 1009.4 |
| 20260507030451 | 62 | 29 | 0.0 | 0.0 | 0.00 | 0.06 | 0.06 | 92 | 1009.4 |
| 20260507030309 | 62 | 29 | 0.0 | 0.0 | 0.00 | 0.06 | 0.06 | 92 | 1009.3 |
| 20260507030222 | 62 | 29 | 0.0 | 0.0 | 0.00 | 0.06 | 0.06 | 92 | 1009.3 |
| 20260507030109 | 62 | 29 | 0.0 | 0.0 | 0.00 | 0.06 | 0.06 | 92 | 1009.1 |
| 20260507030054 | 62 | 29 | 0.0 | 0.0 | 0.00 | 0.06 | 0.06 | 92 | 1008.7 |
| 20260507030015 | 62 | 29 | 0.0 | 0.0 | 0.00 | 0.06 | 0.06 | 92 | 1009.1 |
| 20260507025926 | 62 | 29 | 0.0 | 0.0 | 0.00 | 0.06 | 0.06 | 92 | 1009.1 |
| 20260507025839 | 62 | 29 | 0.0 | 0.0 | 0.00 | 0.06 | 0.06 | 92 | 1009.2 |
| 20260507025725 | 62 | 29 | 0.0 | 0.0 | 0.00 | 0.06 | 0.06 | 92 | 1009.2 |
| 20260507025612 | 62 | 29 | 0.0 | 0.0 | 0.00 | 0.06 | 0.06 | 92 | 1009.4 |
| 20260507025518 | 62 | 29 | 0.0 | 0.0 | 0.00 | 0.06 | 0.06 | 92 | 1009.5 |
| 20260507025424 | 62 | 29 | 0.0 | 0.0 | 0.00 | 0.06 | 0.06 | 92 | 1009.5 |
| 20260507025341 | 62 | 29 | 0.0 | 0.0 | 0.00 | 0.06 | 0.06 | 92 | 1009.5 |
| 20260507025227 | 63 | 29 | 0.0 | 0.0 | 0.00 | 0.06 | 0.06 | 92 | 1009.4 |
| 20260507025114 | 62 | 29 | 0.0 | 0.0 | 0.00 | 0.06 | 0.06 | 92 | 1009.4 |
| 20260507025020 | 62 | 29 | 0.0 | 0.0 | 0.00 | 0.06 | 0.06 | 92 | 1009.4 |
| 20260507024933 | 62 | 29 | 0.0 | 0.0 | 0.00 | 0.06 | 0.06 | 92 | 1009.2 |
| 20260507024821 | 62 | 29 | 0.0 | 0.0 | 0.00 | 0.06 | 0.06 | 92 | 1009.1 |
| 20260507024731 | 62 | 29 | 0.0 | 0.0 | 0.00 | 0.06 | 0.06 | 92 | 1009.2 |
| 20260507024643 | 62 | 29 | 0.0 | 0.0 | 0.00 | 0.06 | 0.06 | 92 | 1009.2 |
| 20260507024528 | 62 | 29 | 0.0 | 0.0 | 0.00 | 0.06 | 0.06 | 92 | 1009.3 |
| 20260507024503 | 62 | 29 | 0.0 | 0.0 | 0.00 | 0.06 | 0.06 | 91 | 1008.8 |
| 20260507024434 | 62 | 29 | 0.0 | 0.0 | 0.00 | 0.06 | 0.06 | 91 | 1009.2 |
| 20260507024319 | 62 | 29 | 0.0 | 0.0 | 0.00 | 0.06 | 0.06 | 91 | 1009.2 |
| 20260507024231 | 62 | 29 | 0.0 | 0.0 | 0.00 | 0.06 | 0.06 | 91 | 1009.3 |
| 20260507024123 | 62 | 29 | 0.0 | 0.0 | 0.00 | 0.06 | 0.06 | 91 | 1009.2 |
| 20260507024029 | 62 | 29 | 0.0 | 0.0 | 0.00 | 0.06 | 0.06 | 91 | 1009.3 |
| 20260507023916 | 62 | 29 | 0.0 | 0.0 | 0.00 | 0.06 | 0.06 | 91 | 1009.3 |
| 20260507023822 | 62 | 29 | 0.0 | 0.0 | 0.00 | 0.06 | 0.06 | 91 | 1009.3 |
| 20260507023710 | 62 | 29 | 0.0 | 0.0 | 0.00 | 0.06 | 0.06 | 91 | 1009.3 |
| 20260507023616 | 63 | 29 | 0.0 | 0.0 | 0.00 | 0.06 | 0.06 | 91 | 1009.2 |
| 20260507023533 | 63 | 29 | 0.0 | 0.0 | 0.00 | 0.06 | 0.06 | 91 | 1009.2 |
| 20260507023418 | 63 | 29 | 0.0 | 0.0 | 0.00 | 0.06 | 0.06 | 91 | 1009.1 |
| 20260507023330 | 63 | 29 | 0.0 | 0.0 | 0.00 | 0.06 | 0.06 | 91 | 1009.1 |
| 20260507023216 | 63 | 29 | 0.0 | 0.0 | 0.00 | 0.06 | 0.06 | 91 | 1009.2 |
| 20260507023123 | 63 | 29 | 0.0 | 0.0 | 0.00 | 0.06 | 0.06 | 91 | 1009.2 |
| 20260507023053 | 62 | 29 | 0.0 | 0.0 | 0.00 | 0.06 | 0.06 | 91 | 1008.8 |
| 20260507023010 | 63 | 29 | 0.0 | 0.0 | 0.00 | 0.06 | 0.06 | 92 | 1009.1 |
| 20260507022946 | 63 | 29 | 0.0 | 0.0 | 0.00 | 0.06 | 0.06 | 92 | 1009.1 |
| 20260507022812 | 63 | 29 | 0.0 | 0.0 | 0.00 | 0.06 | 0.06 | 92 | 1009.1 |
| 20260507022719 | 63 | 29 | 0.0 | 0.0 | 0.00 | 0.06 | 0.06 | 92 | 1009.1 |
| 20260507022654 | 63 | 29 | 0.0 | 0.0 | 0.00 | 0.06 | 0.06 | 92 | 1009.0 |
| 20260507022512 | 63 | 29 | 0.0 | 0.0 | 0.00 | 0.06 | 0.06 | 92 | 1009.0 |
| 20260507022425 | 62 | 29 | 0.0 | 0.0 | 0.00 | 0.06 | 0.06 | 92 | 1009.0 |
| 20260507022316 | 62 | 29 | 0.0 | 0.0 | 0.00 | 0.06 | 0.06 | 92 | 1009.1 |
| 20260507022222 | 62 | 29 | 0.0 | 0.0 | 0.00 | 0.06 | 0.06 | 92 | 1009.1 |
| 20260507022155 | 62 | 29 | 0.0 | 0.0 | 0.00 | 0.06 | 0.06 | 92 | 1009.1 |
| 20260507022039 | 62 | 29 | 0.0 | 0.0 | 0.00 | 0.06 | 0.06 | 92 | 1009.1 |
| 20260507021924 | 62 | 29 | 0.0 | 0.0 | 0.00 | 0.06 | 0.06 | 92 | 1009.1 |
| 20260507021811 | 62 | 29 | 0.0 | 0.0 | 0.00 | 0.06 | 0.06 | 92 | 1009.2 |
| 20260507021728 | 62 | 29 | 0.0 | 0.0 | 0.00 | 0.06 | 0.06 | 91 | 1009.2 |
| 20260507021634 | 62 | 29 | 0.0 | 0.0 | 0.00 | 0.06 | 0.06 | 91 | 1009.2 |
| 20260507021550 | 62 | 29 | 0.0 | 0.0 | 0.00 | 0.06 | 0.06 | 91 | 1008.8 |
| 20260507021519 | 62 | 29 | 0.0 | 0.0 | 0.00 | 0.06 | 0.06 | 91 | 1009.2 |
| 20260507021452 | 62 | 29 | 0.0 | 0.0 | 0.00 | 0.06 | 0.06 | 91 | 1009.2 |
| 20260507021317 | 62 | 29 | 0.0 | 0.0 | 0.00 | 0.06 | 0.06 | 91 | 1009.1 |
| 20260507021224 | 62 | 29 | 0.0 | 0.0 | 0.00 | 0.06 | 0.06 | 91 | 1009.1 |
| 20260507021114 | 62 | 29 | 0.0 | 0.0 | 0.00 | 0.06 | 0.06 | 91 | 1009.0 |
| 20260507021021 | 62 | 29 | 0.0 | 0.0 | 0.00 | 0.06 | 0.06 | 91 | 1009.0 |
| 20260507020933 | 62 | 29 | 0.0 | 0.0 | 0.00 | 0.06 | 0.06 | 91 | 1009.0 |
| 20260507020839 | 62 | 29 | 0.0 | 0.0 | 0.00 | 0.06 | 0.06 | 91 | 1008.9 |
| 20260507020748 | 62 | 29 | 0.0 | 0.0 | 0.00 | 0.06 | 0.06 | 91 | 1008.9 |
| 20260507020633 | 62 | 29 | 0.0 | 0.0 | 0.00 | 0.06 | 0.06 | 91 | 1008.8 |
| 20260507020537 | 62 | 29 | 0.0 | 0.0 | 0.00 | 0.06 | 0.06 | 91 | 1008.7 |
| 20260507020435 | 62 | 29 | 0.0 | 0.0 | 0.00 | 0.06 | 0.06 | 91 | 1008.7 |
| 20260507020314 | 62 | 29 | 0.0 | 0.0 | 0.00 | 0.06 | 0.06 | 91 | 1008.8 |
| 20260507020227 | 62 | 29 | 0.0 | 0.0 | 0.00 | 0.06 | 0.06 | 90 | 1008.8 |
| 20260507020134 | 62 | 29 | 0.0 | 0.0 | 0.00 | 0.06 | 0.06 | 90 | 1008.8 |
| 20260507020034 | 62 | 29 | 0.0 | 0.0 | 0.00 | 0.06 | 0.06 | 90 | 1008.4 |
| 20260507020016 | 62 | 29 | 0.0 | 0.0 | 0.00 | 0.06 | 0.06 | 90 | 1008.8 |
| 20260507015949 | 62 | 29 | 0.0 | 0.0 | 0.00 | 0.06 | 0.06 | 90 | 1008.8 |
| 20260507015819 | 62 | 29 | 0.0 | 0.0 | 0.00 | 0.06 | 0.06 | 90 | 1008.8 |
| 20260507015725 | 62 | 29 | 0.0 | 0.0 | 0.00 | 0.06 | 0.06 | 90 | 1008.8 |
| 20260507015611 | 62 | 29 | 0.0 | 0.0 | 0.00 | 0.06 | 0.06 | 90 | 1008.7 |
| 20260507015518 | 63 | 29 | 0.0 | 0.0 | 0.00 | 0.06 | 0.06 | 90 | 1008.7 |
| 20260507015430 | 63 | 29 | 0.0 | 0.0 | 0.00 | 0.06 | 0.06 | 90 | 1008.7 |
| 20260507015317 | 63 | 29 | 0.0 | 0.0 | 0.00 | 0.06 | 0.06 | 90 | 1008.7 |
| 20260507015227 | 63 | 29 | 0.0 | 0.0 | 0.00 | 0.06 | 0.06 | 90 | 1008.7 |
| 20260507015114 | 63 | 29 | 0.0 | 0.0 | 0.00 | 0.06 | 0.06 | 90 | 1008.9 |
| 20260507015026 | 63 | 29 | 0.0 | 0.0 | 0.00 | 0.06 | 0.06 | 90 | 1008.9 |
| 20260507014912 | 63 | 29 | 0.0 | 0.0 | 0.00 | 0.06 | 0.06 | 90 | 1008.9 |
| 20260507014839 | 63 | 29 | 0.0 | 0.0 | 0.00 | 0.06 | 0.06 | 90 | 1008.9 |
| 20260507014737 | 63 | 29 | 0.0 | 0.0 | 0.00 | 0.06 | 0.06 | 89 | 1008.8 |
| 20260507014622 | 63 | 29 | 0.0 | 0.0 | 0.00 | 0.06 | 0.06 | 89 | 1008.7 |
| 20260507014615 | 63 | 29 | 0.0 | 0.0 | 0.00 | 0.06 | 0.06 | 89 | 1008.2 |
| 20260507014525 | 63 | 29 | 0.0 | 0.0 | 0.00 | 0.06 | 0.06 | 89 | 1008.6 |
| 20260507014428 | 63 | 29 | 0.0 | 0.0 | 0.00 | 0.06 | 0.06 | 89 | 1008.4 |
| 20260507014335 | 63 | 29 | 0.0 | 0.0 | 0.00 | 0.06 | 0.06 | 90 | 1008.4 |
| 20260507014227 | 63 | 29 | 0.0 | 0.0 | 0.00 | 0.06 | 0.06 | 90 | 1008.4 |
| 20260507014113 | 63 | 29 | 0.0 | 0.0 | 0.00 | 0.06 | 0.06 | 90 | 1008.3 |
| 20260507014042 | 63 | 29 | 0.0 | 0.0 | 0.00 | 0.06 | 0.06 | 89 | 1008.3 |
| 20260507013934 | 63 | 29 | 0.0 | 0.0 | 0.00 | 0.06 | 0.06 | 89 | 1008.3 |
| 20260507013821 | 64 | 29 | 0.0 | 0.0 | 0.00 | 0.06 | 0.06 | 89 | 1008.3 |
| 20260507013709 | 64 | 29 | 0.0 | 0.0 | 0.00 | 0.06 | 0.06 | 89 | 1008.4 |
| 20260507013634 | 64 | 29 | 0.0 | 0.0 | 0.00 | 0.06 | 0.06 | 89 | 1008.4 |
| 20260507013520 | 64 | 29 | 0.0 | 0.0 | 0.00 | 0.06 | 0.06 | 89 | 1008.6 |
| 20260507013434 | 64 | 29 | 0.0 | 0.0 | 0.00 | 0.06 | 0.06 | 89 | 1008.6 |
| 20260507013340 | 64 | 29 | 0.0 | 0.0 | 0.00 | 0.06 | 0.06 | 89 | 1008.7 |
| 20260507013223 | 64 | 29 | 0.0 | 0.0 | 0.00 | 0.06 | 0.06 | 89 | 1008.7 |
| 20260507013136 | 64 | 29 | 0.0 | 0.0 | 0.00 | 0.06 | 0.06 | 89 | 1008.7 |
| 20260507013058 | 64 | 29 | 0.0 | 0.0 | 0.00 | 0.06 | 0.06 | 89 | 1008.3 |
| 20260507013017 | 64 | 29 | 0.0 | 0.0 | 0.00 | 0.06 | 0.06 | 89 | 1008.7 |
| 20260507012917 | 64 | 29 | 0.0 | 0.0 | 0.00 | 0.06 | 0.06 | 89 | 1008.7 |
| 20260507012830 | 64 | 29 | 0.0 | 0.0 | 0.00 | 0.06 | 0.06 | 89 | 1008.7 |
| 20260507012721 | 64 | 29 | 0.0 | 0.0 | 0.00 | 0.06 | 0.06 | 89 | 1008.8 |
| 20260507012625 | 64 | 29 | 0.0 | 0.0 | 0.00 | 0.06 | 0.06 | 89 | 1008.8 |
| 20260507012525 | 64 | 29 | 0.0 | 0.0 | 0.00 | 0.06 | 0.06 | 89 | 1008.8 |
| 20260507012411 | 64 | 29 | 0.0 | 0.0 | 0.00 | 0.06 | 0.06 | 89 | 1008.8 |
| 20260507012344 | 65 | 29 | 0.0 | 0.0 | 0.00 | 0.06 | 0.06 | 89 | 1008.8 |
| 20260507012249 | 65 | 29 | 0.0 | 0.0 | 0.00 | 0.06 | 0.06 | 89 | 1008.8 |
| 20260507012118 | 65 | 29 | 0.0 | 0.0 | 0.00 | 0.06 | 0.06 | 89 | 1008.7 |
| 20260507012031 | 65 | 29 | 0.0 | 0.0 | 0.00 | 0.06 | 0.06 | 89 | 1008.7 |
| 20260507011930 | 65 | 29 | 0.0 | 0.0 | 0.00 | 0.06 | 0.06 | 89 | 1008.7 |
| 20260507011842 | 65 | 29 | 0.0 | 0.0 | 0.00 | 0.06 | 0.06 | 89 | 1008.7 |
| 20260507011717 | 65 | 29 | 0.0 | 0.0 | 0.00 | 0.06 | 0.06 | 89 | 1008.9 |
| 20260507011620 | 65 | 29 | 0.0 | 0.0 | 0.00 | 0.06 | 0.06 | 89 | 1008.9 |
| 20260507011554 | 65 | 29 | 0.0 | 0.0 | 0.00 | 0.06 | 0.06 | 89 | 1008.9 |
| 20260507011537 | 64 | 29 | 0.0 | 0.0 | 0.00 | 0.06 | 0.06 | 89 | 1008.5 |
| 20260507011416 | 64 | 29 | 0.0 | 0.0 | 0.00 | 0.06 | 0.06 | 90 | 1008.9 |
| 20260507011319 | 64 | 29 | 0.0 | 0.0 | 0.00 | 0.06 | 0.06 | 90 | 1008.9 |
| 20260507011222 | 64 | 29 | 0.0 | 0.0 | 0.00 | 0.06 | 0.06 | 90 | 1008.9 |
| 20260507011129 | 64 | 29 | 0.0 | 0.0 | 0.00 | 0.06 | 0.06 | 90 | 1009.0 |
| 20260507011014 | 64 | 29 | 0.0 | 0.0 | 0.00 | 0.06 | 0.06 | 90 | 1009.1 |
| 20260507010813 | 64 | 29 | 0.0 | 0.0 | 0.00 | 0.06 | 0.06 | 90 | 1009.1 |
| 20260507010740 | 64 | 29 | 0.0 | 0.0 | 0.00 | 0.06 | 0.06 | 90 | 1009.1 |
| 20260507010631 | 64 | 29 | 0.0 | 0.0 | 0.00 | 0.06 | 0.06 | 90 | 1009.0 |
| 20260507010519 | 64 | 29 | 0.0 | 0.0 | 0.00 | 0.06 | 0.06 | 90 | 1008.9 |
| 20260507010424 | 64 | 29 | 0.0 | 0.0 | 0.00 | 0.06 | 0.06 | 90 | 1009.0 |
| 20260507010315 | 64 | 29 | 0.0 | 0.0 | 0.00 | 0.06 | 0.06 | 90 | 1009.0 |
| 20260507010222 | 64 | 29 | 0.0 | 0.0 | 0.00 | 0.06 | 0.06 | 90 | 1009.0 |
| 20260507010129 | 64 | 29 | 0.0 | 0.0 | 0.00 | 0.06 | 0.06 | 90 | 1009.0 |
| 20260507010116 | 63 | 29 | 0.0 | 0.0 | 0.00 | 0.06 | 0.06 | 90 | 1008.6 |
| 20260507010035 | 64 | 29 | 0.0 | 0.0 | 0.00 | 0.06 | 0.06 | 89 | 1009.1 |
| 20260507005921 | 64 | 29 | 0.0 | 0.0 | 0.00 | 0.06 | 0.06 | 89 | 1009.1 |
| 20260507005834 | 64 | 29 | 0.0 | 0.0 | 0.00 | 0.06 | 0.06 | 89 | 1009.1 |
| 20260507005741 | 64 | 29 | 0.0 | 0.0 | 0.00 | 0.06 | 0.06 | 89 | 1009.1 |
| 20260507005611 | 64 | 29 | 0.0 | 0.0 | 0.00 | 0.06 | 0.06 | 89 | 1009.1 |
| 20260507005544 | 64 | 29 | 0.0 | 0.0 | 0.00 | 0.06 | 0.06 | 89 | 1009.1 |
| 20260507005411 | 64 | 29 | 0.0 | 0.0 | 0.00 | 0.06 | 0.06 | 89 | 1009.1 |
| 20260507005316 | 64 | 29 | 0.0 | 0.0 | 0.00 | 0.06 | 0.06 | 89 | 1009.1 |
| 20260507005222 | 64 | 29 | 0.0 | 0.0 | 0.00 | 0.06 | 0.06 | 89 | 1009.1 |
| 20260507005155 | 64 | 29 | 0.0 | 0.0 | 0.00 | 0.06 | 0.06 | 89 | 1009.1 |
| 20260507005027 | 64 | 29 | 0.0 | 0.0 | 0.00 | 0.06 | 0.06 | 89 | 1009.0 |
| 20260507004909 | 64 | 29 | 0.0 | 0.0 | 0.00 | 0.06 | 0.06 | 89 | 1008.9 |
| 20260507004816 | 64 | 29 | 0.0 | 0.0 | 0.00 | 0.06 | 0.06 | 89 | 1008.9 |
| 20260507004729 | 64 | 29 | 0.0 | 0.0 | 0.00 | 0.06 | 0.06 | 89 | 1008.9 |
| 20260507004616 | 64 | 29 | 0.0 | 0.0 | 0.00 | 0.06 | 0.06 | 89 | 1009.0 |
| 20260507004603 | 64 | 29 | 0.0 | 0.0 | 0.00 | 0.06 | 0.06 | 89 | 1008.6 |
| 20260507004519 | 64 | 29 | 0.0 | 0.0 | 0.00 | 0.06 | 0.06 | 89 | 1009.1 |
| 20260507004430 | 64 | 29 | 0.0 | 0.0 | 0.00 | 0.06 | 0.06 | 89 | 1009.1 |
| 20260507004332 | 64 | 29 | 0.0 | 0.0 | 0.00 | 0.06 | 0.06 | 89 | 1009.0 |
| 20260507004225 | 64 | 29 | 0.0 | 0.0 | 0.00 | 0.06 | 0.06 | 89 | 1009.0 |
| 20260507004149 | 65 | 29 | 0.0 | 0.0 | 0.00 | 0.06 | 0.06 | 88 | 1009.1 |
| 20260507004022 | 65 | 29 | 0.0 | 0.0 | 0.00 | 0.06 | 0.06 | 88 | 1009.1 |
| 20260507003909 | 65 | 29 | 0.0 | 0.0 | 0.00 | 0.06 | 0.06 | 88 | 1009.1 |
| 20260507003820 | 65 | 29 | 0.0 | 0.0 | 0.00 | 0.06 | 0.06 | 88 | 1009.1 |
| 20260507003726 | 65 | 29 | 0.0 | 0.0 | 0.00 | 0.06 | 0.06 | 88 | 1009.0 |
| 20260507003612 | 65 | 29 | 0.0 | 0.0 | 0.00 | 0.06 | 0.06 | 88 | 1008.8 |
| 20260507003525 | 65 | 29 | 0.0 | 0.0 | 0.00 | 0.06 | 0.06 | 88 | 1008.8 |
| 20260507003428 | 65 | 29 | 0.0 | 0.0 | 0.00 | 0.06 | 0.06 | 88 | 1008.7 |
| 20260507003310 | 65 | 29 | 0.0 | 0.0 | 0.00 | 0.06 | 0.06 | 88 | 1008.7 |
| 20260507003221 | 65 | 29 | 0.0 | 0.0 | 0.00 | 0.06 | 0.06 | 88 | 1008.7 |
| 20260507003128 | 65 | 29 | 0.0 | 0.0 | 0.00 | 0.06 | 0.06 | 87 | 1008.8 |
| 20260507003031 | 65 | 29 | 0.0 | 0.0 | 0.00 | 0.06 | 0.06 | 87 | 1008.4 |
| 20260507003013 | 65 | 29 | 0.0 | 0.0 | 0.00 | 0.06 | 0.06 | 87 | 1008.9 |
| 20260507002927 | 65 | 29 | 0.0 | 0.0 | 0.00 | 0.06 | 0.06 | 87 | 1008.9 |
| 20260507002828 | 65 | 29 | 0.0 | 0.0 | 0.00 | 0.06 | 0.06 | 87 | 1008.9 |
| 20260507002711 | 65 | 29 | 0.0 | 0.0 | 0.00 | 0.06 | 0.06 | 87 | 1008.9 |
| 20260507002619 | 66 | 29 | 0.0 | 0.0 | 0.00 | 0.06 | 0.06 | 87 | 1008.9 |
| 20260507002533 | 66 | 29 | 0.0 | 0.0 | 0.00 | 0.06 | 0.06 | 87 | 1009.0 |
| 20260507002432 | 66 | 29 | 0.0 | 0.0 | 0.00 | 0.06 | 0.06 | 87 | 1009.0 |
| 20260507002319 | 66 | 29 | 0.0 | 0.0 | 0.00 | 0.06 | 0.06 | 87 | 1009.0 |
| 20260507002222 | 66 | 29 | 0.0 | 0.0 | 0.00 | 0.06 | 0.06 | 87 | 1008.9 |
| 20260507002133 | 66 | 29 | 0.0 | 0.0 | 0.00 | 0.06 | 0.06 | 87 | 1008.9 |
| 20260507002025 | 66 | 29 | 0.0 | 0.0 | 0.00 | 0.06 | 0.06 | 87 | 1008.9 |
| 20260507001929 | 66 | 29 | 0.0 | 0.0 | 0.00 | 0.06 | 0.06 | 86 | 1008.8 |
| 20260507001815 | 66 | 29 | 0.0 | 0.0 | 0.00 | 0.06 | 0.06 | 86 | 1008.8 |
| 20260507001721 | 66 | 29 | 0.0 | 0.0 | 0.00 | 0.06 | 0.06 | 86 | 1008.7 |
| 20260507001631 | 66 | 29 | 0.0 | 0.0 | 0.00 | 0.06 | 0.06 | 87 | 1008.3 |
| 20260507001620 | 66 | 29 | 0.0 | 0.0 | 0.00 | 0.06 | 0.06 | 86 | 1008.7 |
| 20260507001538 | 66 | 29 | 0.0 | 0.0 | 0.00 | 0.06 | 0.06 | 86 | 1008.7 |
| 20260507001439 | 66 | 29 | 0.0 | 0.0 | 0.00 | 0.06 | 0.06 | 86 | 1008.7 |
| 20260507001352 | 67 | 29 | 0.0 | 0.0 | 0.00 | 0.06 | 0.06 | 86 | 1008.7 |
| 20260507001257 | 67 | 29 | 0.0 | 0.0 | 0.00 | 0.06 | 0.06 | 86 | 1008.7 |
| 20260507001121 | 67 | 29 | 0.0 | 0.0 | 0.00 | 0.06 | 0.06 | 86 | 1008.6 |
| 20260507001021 | 67 | 29 | 0.0 | 0.0 | 0.00 | 0.06 | 0.06 | 86 | 1008.6 |
| 20260507000925 | 67 | 29 | 0.0 | 0.0 | 0.00 | 0.06 | 0.06 | 86 | 1008.6 |
| 20260507000815 | 67 | 29 | 0.0 | 0.0 | 0.00 | 0.06 | 0.06 | 86 | 1008.5 |
| 20260507000725 | 67 | 29 | 0.0 | 0.0 | 0.00 | 0.06 | 0.06 | 86 | 1008.5 |
| 20260507000631 | 67 | 29 | 0.0 | 0.0 | 0.00 | 0.06 | 0.06 | 86 | 1008.5 |
| 20260507000543 | 67 | 29 | 0.0 | 0.0 | 0.00 | 0.06 | 0.06 | 86 | 1008.5 |
| 20260507000452 | 67 | 29 | 0.0 | 0.0 | 0.00 | 0.06 | 0.06 | 85 | 1008.5 |
| 20260507000343 | 68 | 29 | 0.0 | 0.0 | 0.00 | 0.06 | 0.06 | 85 | 1008.5 |
| 20260507000227 | 68 | 29 | 0.0 | 0.0 | 0.00 | 0.06 | 0.06 | 85 | 1008.4 |
| 20260507000112 | 68 | 29 | 0.0 | 0.0 | 0.00 | 0.06 | 0.06 | 85 | 1008.4 |
| 20260507000051 | 67 | 29 | 0.0 | 0.0 | 0.00 | 0.06 | 0.06 | 85 | 1008.0 |
| 20260507000029 | 68 | 29 | 0.0 | 0.0 | 0.00 | 0.06 | 0.06 | 85 | 1008.4 |
| 20260506235911 | 68 | 29 | 0.0 | 0.0 | 0.00 | 0.06 | 0.06 | 85 | 1008.3 |
| 20260506235822 | 68 | 29 | 0.0 | 0.0 | 0.00 | 0.06 | 0.06 | 85 | 1008.3 |
| 20260506235738 | 68 | 29 | 0.0 | 0.0 | 0.00 | 0.06 | 0.06 | 84 | 1008.3 |
| 20260506235630 | 68 | 29 | 0.0 | 0.0 | 0.00 | 0.06 | 0.06 | 84 | 1008.3 |
| 20260506235516 | 68 | 29 | 0.0 | 0.0 | 0.00 | 0.06 | 0.06 | 84 | 1008.3 |
| 20260506235424 | 68 | 29 | 0.0 | 0.0 | 0.00 | 0.06 | 0.06 | 84 | 1008.3 |
| 20260506235331 | 68 | 29 | 0.0 | 0.0 | 0.00 | 0.06 | 0.06 | 84 | 1008.3 |
| 20260506235242 | 68 | 29 | 0.0 | 0.0 | 0.00 | 0.06 | 0.06 | 84 | 1008.2 |
| 20260506235126 | 69 | 29 | 0.0 | 0.0 | 0.00 | 0.06 | 0.06 | 84 | 1008.2 |
| 20260506235033 | 69 | 29 | 0.0 | 0.0 | 0.00 | 0.06 | 0.06 | 84 | 1008.3 |
| 20260506234959 | 69 | 29 | 0.0 | 0.0 | 0.00 | 0.06 | 0.06 | 83 | 1008.2 |
| 20260506234825 | 69 | 29 | 0.0 | 0.0 | 0.00 | 0.06 | 0.06 | 84 | 1008.2 |
| 20260506234748 | 69 | 29 | 0.0 | 0.0 | 0.00 | 0.06 | 0.06 | 84 | 1008.2 |
| 20260506234609 | 69 | 29 | 0.0 | 0.0 | 0.00 | 0.06 | 0.06 | 84 | 1008.3 |
| 20260506234522 | 69 | 29 | 0.0 | 0.0 | 0.00 | 0.06 | 0.06 | 84 | 1008.3 |
| 20260506234508 | 68 | 29 | 0.0 | 0.0 | 0.00 | 0.06 | 0.06 | 84 | 1007.9 |
| 20260506234428 | 69 | 29 | 0.0 | 0.0 | 0.00 | 0.06 | 0.06 | 84 | 1008.3 |
| 20260506234312 | 69 | 29 | 0.0 | 0.0 | 0.00 | 0.06 | 0.06 | 83 | 1008.3 |
| 20260506234223 | 69 | 29 | 0.0 | 0.0 | 0.00 | 0.06 | 0.06 | 83 | 1008.3 |
| 20260506234109 | 69 | 29 | 0.0 | 0.0 | 0.00 | 0.06 | 0.06 | 83 | 1008.4 |
| 20260506234039 | 69 | 29 | 0.0 | 0.0 | 0.00 | 0.06 | 0.06 | 83 | 1008.4 |
| 20260506233930 | 69 | 29 | 0.0 | 0.0 | 0.00 | 0.06 | 0.06 | 83 | 1008.4 |
| 20260506233816 | 69 | 36 | 0.0 | 0.0 | 0.00 | 0.06 | 0.06 | 83 | 1008.4 |
| 20260506233729 | 69 | 38 | 0.0 | 0.0 | 0.00 | 0.06 | 0.06 | 83 | 1008.4 |
| 20260506233611 | 69 | 36 | 0.0 | 0.0 | 0.00 | 0.06 | 0.06 | 83 | 1008.5 |
| 20260506233518 | 70 | 59 | 0.0 | 0.0 | 0.00 | 0.06 | 0.06 | 82 | 1008.5 |
| 20260506233451 | 70 | 59 | 0.0 | 0.0 | 0.00 | 0.06 | 0.06 | 82 | 1008.5 |
| 20260506233316 | 70 | 59 | 0.0 | 0.0 | 0.00 | 0.06 | 0.06 | 82 | 1008.5 |
| 20260506233221 | 70 | 48 | 0.0 | 0.0 | 0.00 | 0.06 | 0.06 | 82 | 1008.5 |
| 20260506233123 | 70 | 28 | 0.0 | 0.0 | 0.00 | 0.06 | 0.06 | 82 | 1008.5 |
| 20260506233052 | 69 | 28 | 0.0 | 0.0 | 0.00 | 0.06 | 0.06 | 82 | 1008.1 |
| 20260506233026 | 70 | 28 | 0.0 | 0.0 | 0.00 | 0.06 | 0.06 | 82 | 1008.6 |
| 20260506232934 | 70 | 5 | 0.0 | 0.0 | 0.00 | 0.06 | 0.06 | 82 | 1008.6 |
| 20260506232821 | 70 | 5 | 0.0 | 0.0 | 0.00 | 0.06 | 0.06 | 82 | 1008.7 |
| 20260506232724 | 70 | 5 | 0.0 | 0.0 | 0.00 | 0.06 | 0.06 | 81 | 1008.7 |
| 20260506232611 | 70 | 5 | 0.0 | 0.0 | 0.00 | 0.06 | 0.06 | 82 | 1008.7 |
| 20260506232514 | 70 | 5 | 0.0 | 0.0 | 0.00 | 0.06 | 0.06 | 81 | 1008.6 |
| 20260506232431 | 70 | 5 | 0.0 | 0.0 | 0.00 | 0.06 | 0.06 | 81 | 1008.6 |
| 20260506232319 | 70 | 5 | 0.0 | 0.0 | 0.00 | 0.06 | 0.06 | 81 | 1008.5 |
| 20260506232224 | 70 | 5 | 0.0 | 0.0 | 0.00 | 0.06 | 0.06 | 81 | 1008.7 |
| 20260506232112 | 70 | 5 | 0.0 | 0.0 | 0.00 | 0.06 | 0.06 | 81 | 1008.7 |
| 20260506232018 | 71 | 5 | 0.0 | 0.0 | 0.00 | 0.06 | 0.06 | 81 | 1008.7 |
| 20260506231924 | 71 | 5 | 0.0 | 0.0 | 0.00 | 0.06 | 0.06 | 81 | 1008.7 |
| 20260506231815 | 71 | 5 | 0.0 | 0.0 | 0.00 | 0.06 | 0.06 | 81 | 1008.6 |
| 20260506231726 | 71 | 5 | 0.0 | 0.0 | 0.00 | 0.06 | 0.06 | 81 | 1008.6 |
| 20260506231613 | 71 | 5 | 0.0 | 0.0 | 0.00 | 0.06 | 0.06 | 80 | 1008.6 |
| 20260506231605 | 70 | 5 | 0.0 | 0.0 | 0.00 | 0.06 | 0.06 | 80 | 1008.1 |
| 20260506231519 | 71 | 5 | 0.0 | 0.0 | 0.00 | 0.06 | 0.06 | 80 | 1008.6 |
| 20260506231426 | 71 | 16 | 0.0 | 0.0 | 0.00 | 0.06 | 0.06 | 80 | 1008.5 |
| 20260506231317 | 71 | 38 | 0.0 | 0.0 | 0.00 | 0.06 | 0.06 | 79 | 1008.5 |
| 20260506231225 | 71 | 74 | 0.0 | 0.0 | 0.00 | 0.06 | 0.06 | 80 | 1008.5 |
| 20260506231137 | 71 | 171 | 0.0 | 0.0 | 0.00 | 0.06 | 0.06 | 81 | 1008.5 |
| 20260506231016 | 71 | 233 | 0.0 | 0.0 | 0.00 | 0.06 | 0.06 | 80 | 1008.5 |
| 20260506230923 | 71 | 233 | 0.0 | 0.0 | 0.00 | 0.06 | 0.06 | 80 | 1008.5 |
| 20260506230812 | 71 | 233 | 0.0 | 0.0 | 0.00 | 0.06 | 0.06 | 79 | 1008.4 |
| 20260506230718 | 71 | 225 | 0.0 | 0.0 | 0.00 | 0.06 | 0.06 | 80 | 1008.4 |
| 20260506230624 | 71 | 194 | 0.0 | 1.0 | 0.00 | 0.06 | 0.06 | 79 | 1008.3 |
| 20260506230534 | 71 | 63 | 0.0 | 1.0 | 0.00 | 0.06 | 0.06 | 79 | 1008.3 |
| 20260506230421 | 71 | 63 | 0.0 | 1.0 | 0.00 | 0.06 | 0.06 | 78 | 1008.3 |
| 20260506230342 | 71 | 63 | 0.0 | 1.0 | 0.00 | 0.06 | 0.06 | 80 | 1008.2 |
| 20260506230234 | 71 | 28 | 0.0 | 1.0 | 0.00 | 0.06 | 0.06 | 79 | 1008.2 |
| 20260506230135 | 71 | 43 | 0.0 | 1.0 | 0.00 | 0.06 | 0.06 | 79 | 1008.0 |
| 20260506230043 | 71 | 75 | 0.0 | 1.0 | 0.00 | 0.06 | 0.06 | 79 | 1007.6 |
| 20260506230016 | 71 | 68 | 0.0 | 1.0 | 0.00 | 0.06 | 0.06 | 78 | 1008.0 |
| 20260506225929 | 71 | 59 | 0.0 | 1.0 | 0.00 | 0.06 | 0.06 | 78 | 1008.0 |
| 20260506225811 | 71 | 68 | 0.0 | 1.0 | 0.00 | 0.06 | 0.06 | 79 | 1008.1 |
| 20260506225731 | 72 | 355 | 0.0 | 0.0 | 0.00 | 0.06 | 0.06 | 79 | 1008.1 |
| 20260506225626 | 71 | 355 | 0.0 | 0.0 | 0.00 | 0.06 | 0.06 | 78 | 1008.1 |
| 20260506225513 | 72 | 71 | 0.0 | 1.0 | 0.00 | 0.06 | 0.06 | 79 | 1008.2 |
| 20260506225426 | 72 | 71 | 0.0 | 1.0 | 0.00 | 0.06 | 0.06 | 80 | 1008.2 |
| 20260506225326 | 72 | 269 | 0.0 | 3.0 | 0.00 | 0.06 | 0.06 | 79 | 1008.2 |
| 20260506225212 | 72 | 269 | 0.0 | 3.0 | 0.00 | 0.06 | 0.06 | 79 | 1008.1 |
| 20260506225142 | 72 | 269 | 0.0 | 3.0 | 0.00 | 0.06 | 0.06 | 79 | 1008.1 |
| 20260506225021 | 72 | 269 | 0.0 | 3.0 | 0.00 | 0.06 | 0.06 | 79 | 1008.1 |
| 20260506224911 | 72 | 269 | 0.0 | 3.0 | 0.00 | 0.06 | 0.06 | 79 | 1008.0 |
| 20260506224818 | 72 | 269 | 0.0 | 3.0 | 0.00 | 0.06 | 0.06 | 79 | 1008.0 |
| 20260506224725 | 72 | 269 | 0.0 | 3.0 | 0.00 | 0.06 | 0.06 | 78 | 1008.0 |
| 20260506224658 | 72 | 269 | 1.0 | 3.0 | 0.00 | 0.06 | 0.06 | 77 | 1007.9 |
| 20260506224600 | 71 | 269 | 0.0 | 3.0 | 0.00 | 0.06 | 0.06 | 77 | 1007.4 |
| 20260506224528 | 72 | 269 | 1.0 | 3.0 | 0.00 | 0.06 | 0.06 | 77 | 1007.9 |
| 20260506224415 | 72 | 42 | 0.0 | 1.0 | 0.00 | 0.06 | 0.06 | 77 | 1007.9 |
| 20260506224352 | 72 | 59 | 0.0 | 1.0 | 0.00 | 0.06 | 0.06 | 77 | 1007.9 |
| 20260506224215 | 72 | 31 | 0.0 | 1.0 | 0.00 | 0.06 | 0.06 | 77 | 1008.0 |
| 20260506224121 | 72 | 37 | 0.0 | 5.0 | 0.00 | 0.06 | 0.06 | 78 | 1008.0 |
| 20260506224023 | 72 | 333 | 0.0 | 5.0 | 0.00 | 0.06 | 0.06 | 77 | 1008.0 |
| 20260506223934 | 72 | 325 | 0.0 | 5.0 | 0.00 | 0.06 | 0.06 | 77 | 1008.1 |
| 20260506223814 | 72 | 57 | 0.0 | 5.0 | 0.00 | 0.06 | 0.06 | 77 | 1008.2 |
| 20260506223731 | 72 | 5 | 0.0 | 6.0 | 0.00 | 0.06 | 0.06 | 77 | 1008.2 |
| 20260506223618 | 72 | 5 | 0.0 | 6.0 | 0.00 | 0.06 | 0.06 | 77 | 1008.1 |
| 20260506223514 | 72 | 21 | 0.0 | 6.0 | 0.00 | 0.06 | 0.06 | 77 | 1008.1 |
| 20260506223418 | 72 | 98 | 0.0 | 6.0 | 0.00 | 0.06 | 0.06 | 77 | 1008.1 |
| 20260506223332 | 72 | 298 | 0.0 | 6.0 | 0.00 | 0.06 | 0.06 | 77 | 1008.2 |
| 20260506223218 | 72 | 51 | 0.0 | 6.0 | 0.00 | 0.06 | 0.06 | 77 | 1008.2 |
| 20260506223153 | 72 | 81 | 0.0 | 6.0 | 0.00 | 0.06 | 0.06 | 77 | 1008.2 |
| 20260506223114 | 71 | 11 | 0.0 | 6.0 | 0.00 | 0.06 | 0.06 | 77 | 1007.8 |
| 20260506223035 | 72 | 17 | 1.0 | 6.0 | 0.00 | 0.06 | 0.06 | 77 | 1008.2 |
| 20260506222913 | 72 | 45 | 1.0 | 6.0 | 0.00 | 0.06 | 0.06 | 77 | 1008.3 |
| 20260506222820 | 72 | 28 | 1.0 | 6.0 | 0.00 | 0.06 | 0.06 | 77 | 1008.3 |
| 20260506222723 | 72 | 76 | 1.0 | 6.0 | 0.00 | 0.06 | 0.06 | 77 | 1008.3 |
| 20260506222610 | 72 | 46 | 0.0 | 0.0 | 0.00 | 0.06 | 0.06 | 77 | 1008.2 |
| 20260506222527 | 72 | 47 | 0.0 | 0.0 | 0.00 | 0.06 | 0.06 | 77 | 1008.2 |
| 20260506222414 | 72 | 30 | 0.0 | 1.0 | 0.00 | 0.06 | 0.06 | 77 | 1008.2 |
| 20260506222318 | 72 | 34 | 0.0 | 1.0 | 0.00 | 0.06 | 0.06 | 77 | 1008.2 |
| 20260506222220 | 72 | 37 | 0.0 | 1.0 | 0.00 | 0.06 | 0.06 | 77 | 1008.2 |
| 20260506222130 | 72 | 61 | 0.0 | 2.0 | 0.00 | 0.06 | 0.06 | 77 | 1008.2 |
| 20260506222016 | 72 | 65 | 0.0 | 2.0 | 0.00 | 0.06 | 0.06 | 77 | 1008.1 |
| 20260506221922 | 72 | 5 | 0.0 | 2.0 | 0.00 | 0.06 | 0.06 | 77 | 1008.1 |
| 20260506221809 | 72 | 25 | 0.0 | 3.0 | 0.00 | 0.06 | 0.06 | 77 | 1008.1 |
| 20260506221715 | 72 | 350 | 0.0 | 3.0 | 0.00 | 0.06 | 0.06 | 77 | 1008.1 |
| 20260506221622 | 72 | 74 | 0.0 | 3.0 | 0.00 | 0.06 | 0.06 | 76 | 1008.1 |
| 20260506221535 | 72 | 86 | 0.0 | 8.0 | 0.00 | 0.06 | 0.06 | 77 | 1008.1 |
| 20260506221520 | 71 | 89 | 0.0 | 8.0 | 0.00 | 0.06 | 0.06 | 77 | 1007.6 |
| 20260506221425 | 72 | 73 | 0.0 | 8.0 | 0.00 | 0.06 | 0.06 | 78 | 1008.1 |
| 20260506221325 | 72 | 73 | 0.0 | 8.0 | 0.00 | 0.06 | 0.06 | 77 | 1008.1 |
| 20260506221225 | 72 | 138 | 0.0 | 8.0 | 0.00 | 0.06 | 0.06 | 76 | 1008.1 |
| 20260506221139 | 72 | 43 | 1.0 | 8.0 | 0.00 | 0.06 | 0.06 | 76 | 1008.1 |
| 20260506221024 | 72 | 234 | 0.0 | 8.0 | 0.00 | 0.06 | 0.06 | 76 | 1008.1 |
| 20260506220928 | 72 | 360 | 0.0 | 8.0 | 0.00 | 0.06 | 0.06 | 77 | 1008.1 |
| 20260506220819 | 72 | 360 | 1.0 | 8.0 | 0.00 | 0.06 | 0.06 | 76 | 1008.0 |
| 20260506220718 | 72 | 325 | 1.0 | 10.0 | 0.00 | 0.06 | 0.06 | 76 | 1008.0 |
| 20260506220631 | 72 | 355 | 0.0 | 10.0 | 0.00 | 0.06 | 0.06 | 76 | 1008.0 |
| 20260506220517 | 72 | 111 | 0.0 | 10.0 | 0.00 | 0.06 | 0.06 | 76 | 1008.1 |
| 20260506220424 | 72 | 66 | 0.0 | 10.0 | 0.00 | 0.06 | 0.06 | 76 | 1008.1 |
| 20260506220311 | 72 | 290 | 0.0 | 10.0 | 0.00 | 0.06 | 0.06 | 76 | 1008.0 |
| 20260506220228 | 72 | 58 | 0.0 | 10.0 | 0.00 | 0.06 | 0.06 | 76 | 1008.0 |
| 20260506220114 | 72 | 63 | 1.0 | 10.0 | 0.00 | 0.06 | 0.06 | 76 | 1008.0 |
| 20260506220106 | 72 | 80 | 1.0 | 10.0 | 0.00 | 0.06 | 0.06 | 76 | 1007.6 |
| 20260506220039 | 72 | 80 | 1.0 | 10.0 | 0.00 | 0.06 | 0.06 | 75 | 1008.0 |
| 20260506215924 | 72 | 97 | 1.0 | 10.0 | 0.00 | 0.06 | 0.06 | 76 | 1008.0 |
| 20260506215812 | 72 | 77 | 0.0 | 1.0 | 0.00 | 0.06 | 0.06 | 76 | 1008.1 |
| 20260506215724 | 72 | 122 | 0.0 | 1.0 | 0.00 | 0.06 | 0.06 | 76 | 1008.1 |
| 20260506215615 | 72 | 28 | 0.0 | 1.0 | 0.00 | 0.06 | 0.06 | 75 | 1008.0 |
| 20260506215541 | 73 | 296 | 0.0 | 1.0 | 0.00 | 0.06 | 0.06 | 75 | 1008.0 |
| 20260506215434 | 73 | 5 | 0.0 | 1.0 | 0.00 | 0.06 | 0.06 | 75 | 1008.0 |
| 20260506215320 | 73 | 252 | 0.0 | 4.0 | 0.00 | 0.06 | 0.06 | 75 | 1008.1 |
| 20260506215226 | 73 | 15 | 0.0 | 4.0 | 0.00 | 0.06 | 0.06 | 75 | 1008.0 |
| 20260506215118 | 73 | 74 | 0.0 | 4.0 | 0.00 | 0.06 | 0.06 | 75 | 1008.1 |
| 20260506215023 | 73 | 75 | 0.0 | 4.0 | 0.00 | 0.06 | 0.06 | 75 | 1008.1 |
| 20260506214909 | 73 | 40 | 0.0 | 4.0 | 0.00 | 0.06 | 0.06 | 74 | 1008.1 |
| 20260506214817 | 73 | 46 | 0.0 | 4.0 | 0.00 | 0.06 | 0.06 | 74 | 1008.1 |
| 20260506214729 | 73 | 105 | 0.0 | 4.0 | 0.00 | 0.06 | 0.06 | 74 | 1008.1 |
| 20260506214636 | 73 | 105 | 1.0 | 4.0 | 0.00 | 0.06 | 0.06 | 74 | 1008.1 |
| 20260506214544 | 73 | 95 | 0.0 | 4.0 | 0.00 | 0.06 | 0.06 | 74 | 1007.6 |
| 20260506214524 | 73 | 94 | 1.0 | 4.0 | 0.00 | 0.06 | 0.06 | 74 | 1008.1 |
| 20260506214437 | 74 | 279 | 1.0 | 4.0 | 0.00 | 0.06 | 0.06 | 73 | 1008.1 |
| 20260506214343 | 74 | 75 | 1.0 | 4.0 | 0.00 | 0.06 | 0.06 | 74 | 1008.1 |
| 20260506214234 | 74 | 291 | 0.0 | 6.0 | 0.00 | 0.06 | 0.06 | 74 | 1008.1 |
| 20260506214119 | 74 | 5 | 0.0 | 6.0 | 0.00 | 0.06 | 0.06 | 74 | 1008.1 |
| 20260506214026 | 74 | 329 | 0.0 | 6.0 | 0.00 | 0.06 | 0.06 | 73 | 1008.0 |
| 20260506213910 | 74 | 294 | 0.0 | 6.0 | 0.00 | 0.06 | 0.06 | 73 | 1007.9 |
| 20260506213821 | 74 | 298 | 0.0 | 6.0 | 0.00 | 0.06 | 0.06 | 73 | 1007.9 |
| 20260506213734 | 74 | 34 | 0.0 | 6.0 | 0.00 | 0.06 | 0.06 | 73 | 1008.0 |
| 20260506213620 | 74 | 85 | 1.0 | 6.0 | 0.00 | 0.06 | 0.06 | 73 | 1008.0 |
| 20260506213526 | 74 | 284 | 2.0 | 6.0 | 0.00 | 0.06 | 0.06 | 73 | 1007.9 |
| 20260506213412 | 74 | 342 | 0.0 | 1.0 | 0.00 | 0.06 | 0.06 | 73 | 1007.8 |
| 20260506213343 | 74 | 38 | 0.0 | 0.0 | 0.00 | 0.06 | 0.06 | 72 | 1007.8 |
| 20260506213209 | 74 | 52 | 0.0 | 0.0 | 0.00 | 0.06 | 0.06 | 73 | 1007.8 |
| 20260506213135 | 74 | 32 | 0.0 | 0.0 | 0.00 | 0.06 | 0.06 | 74 | 1007.8 |
| 20260506213043 | 74 | 330 | 0.0 | 0.0 | 0.00 | 0.06 | 0.06 | 74 | 1007.3 |
| 20260506213033 | 74 | 281 | 0.0 | 0.0 | 0.00 | 0.06 | 0.06 | 75 | 1007.8 |
| 20260506212913 | 74 | 65 | 0.0 | 0.0 | 0.00 | 0.06 | 0.06 | 74 | 1007.7 |
| 20260506212826 | 74 | 47 | 0.0 | 0.0 | 0.00 | 0.06 | 0.06 | 73 | 1007.7 |
| 20260506212716 | 74 | 82 | 0.0 | 0.0 | 0.00 | 0.06 | 0.06 | 75 | 1007.8 |
| 20260506212622 | 74 | 335 | 0.0 | 0.0 | 0.00 | 0.06 | 0.06 | 74 | 1007.8 |
| 20260506212528 | 74 | 223 | 0.0 | 0.0 | 0.00 | 0.06 | 0.06 | 73 | 1007.8 |
| 20260506212414 | 74 | 232 | 0.0 | 0.0 | 0.00 | 0.06 | 0.06 | 74 | 1007.8 |
| 20260506212320 | 74 | 289 | 0.0 | 0.0 | 0.00 | 0.06 | 0.06 | 74 | 1007.8 |
| 20260506212233 | 74 | 324 | 0.0 | 0.0 | 0.00 | 0.06 | 0.06 | 74 | 1007.8 |
| 20260506212123 | 74 | 89 | 0.0 | 0.0 | 0.00 | 0.06 | 0.06 | 73 | 1007.9 |
| 20260506212049 | 74 | 331 | 0.0 | 0.0 | 0.00 | 0.06 | 0.06 | 74 | 1007.8 |
| 20260506211914 | 74 | 17 | 0.0 | 0.0 | 0.00 | 0.06 | 0.06 | 74 | 1007.9 |
| 20260506211827 | 74 | 57 | 0.0 | 0.0 | 0.00 | 0.06 | 0.06 | 75 | 1007.9 |
| 20260506211729 | 74 | 125 | 0.0 | 1.0 | 0.00 | 0.06 | 0.06 | 74 | 1007.8 |
| 20260506211612 | 74 | 25 | 0.0 | 5.0 | 0.00 | 0.06 | 0.06 | 74 | 1007.8 |
| 20260506211551 | 73 | 16 | 0.0 | 5.0 | 0.00 | 0.06 | 0.06 | 74 | 1007.3 |
| 20260506211521 | 74 | 16 | 0.0 | 5.0 | 0.00 | 0.06 | 0.06 | 74 | 1007.8 |
| 20260506211435 | 74 | 10 | 0.0 | 5.0 | 0.00 | 0.06 | 0.06 | 74 | 1007.7 |
| 20260506211341 | 74 | 249 | 0.0 | 5.0 | 0.00 | 0.06 | 0.06 | 73 | 1007.7 |
| 20260506211226 | 74 | 262 | 0.0 | 5.0 | 0.00 | 0.06 | 0.06 | 73 | 1007.7 |
| 20260506211112 | 74 | 67 | 0.0 | 5.0 | 0.00 | 0.06 | 0.06 | 73 | 1007.8 |
| 20260506211018 | 74 | 239 | 0.0 | 5.0 | 0.00 | 0.06 | 0.06 | 73 | 1007.8 |
| 20260506210935 | 74 | 329 | 1.0 | 5.0 | 0.00 | 0.06 | 0.06 | 73 | 1007.8 |
| 20260506210820 | 74 | 277 | 1.0 | 5.0 | 0.00 | 0.06 | 0.06 | 74 | 1007.8 |
| 20260506210726 | 74 | 269 | 0.0 | 2.0 | 0.00 | 0.06 | 0.06 | 74 | 1007.9 |
| 20260506210613 | 74 | 297 | 0.0 | 2.0 | 0.00 | 0.06 | 0.06 | 74 | 1007.9 |
| 20260506210515 | 74 | 11 | 0.0 | 1.0 | 0.00 | 0.06 | 0.06 | 74 | 1007.9 |
| 20260506210433 | 74 | 5 | 0.0 | 1.0 | 0.00 | 0.06 | 0.06 | 74 | 1007.9 |
| 20260506210311 | 74 | 50 | 0.0 | 1.0 | 0.00 | 0.06 | 0.06 | 75 | 1007.9 |
| 20260506210224 | 74 | 313 | 0.0 | 1.0 | 0.00 | 0.06 | 0.06 | 75 | 1007.9 |
| 20260506210110 | 74 | 38 | 0.0 | 2.0 | 0.00 | 0.06 | 0.06 | 75 | 1007.8 |
| 20260506210056 | 73 | 44 | 0.0 | 2.0 | 0.00 | 0.06 | 0.06 | 75 | 1007.3 |
| 20260506210016 | 74 | 297 | 0.0 | 2.0 | 0.00 | 0.06 | 0.06 | 75 | 1007.8 |
| 20260506205923 | 74 | 308 | 0.0 | 2.0 | 0.00 | 0.06 | 0.06 | 75 | 1007.8 |
| 20260506205812 | 74 | 321 | 0.0 | 2.0 | 0.00 | 0.06 | 0.06 | 76 | 1007.9 |
| 20260506205726 | 73 | 319 | 0.0 | 2.0 | 0.00 | 0.06 | 0.06 | 75 | 1007.9 |
| 20260506205632 | 73 | 276 | 0.0 | 2.0 | 0.00 | 0.06 | 0.06 | 75 | 1007.9 |
| 20260506205537 | 73 | 285 | 0.0 | 2.0 | 0.00 | 0.06 | 0.06 | 75 | 1007.9 |
| 20260506205429 | 73 | 265 | 0.0 | 5.0 | 0.00 | 0.06 | 0.06 | 76 | 1007.9 |
| 20260506205315 | 73 | 267 | 0.0 | 5.0 | 0.00 | 0.06 | 0.06 | 77 | 1007.9 |
| 20260506205222 | 73 | 227 | 0.0 | 5.0 | 0.00 | 0.06 | 0.06 | 76 | 1007.9 |
| 20260506205127 | 73 | 224 | 0.0 | 5.0 | 0.00 | 0.06 | 0.06 | 76 | 1007.9 |
| 20260506205013 | 73 | 40 | 0.0 | 5.0 | 0.00 | 0.06 | 0.06 | 76 | 1007.9 |
| 20260506204926 | 73 | 65 | 0.0 | 5.0 | 0.00 | 0.06 | 0.06 | 76 | 1007.9 |
| 20260506204814 | 73 | 86 | 0.0 | 5.0 | 0.00 | 0.06 | 0.06 | 76 | 1007.9 |
| 20260506204719 | 73 | 111 | 1.0 | 5.0 | 0.00 | 0.06 | 0.06 | 76 | 1007.9 |
| 20260506204625 | 73 | 157 | 1.0 | 5.0 | 0.00 | 0.06 | 0.06 | 75 | 1007.9 |
| 20260506204542 | 72 | 78 | 0.0 | 5.0 | 0.00 | 0.06 | 0.06 | 75 | 1007.3 |
| 20260506204511 | 73 | 335 | 0.0 | 3.0 | 0.00 | 0.06 | 0.06 | 75 | 1007.8 |
| 20260506204417 | 73 | 287 | 0.0 | 3.0 | 0.00 | 0.06 | 0.06 | 76 | 1007.8 |
| 20260506204330 | 73 | 292 | 0.0 | 3.0 | 0.00 | 0.06 | 0.06 | 76 | 1007.8 |
| 20260506204236 | 73 | 29 | 0.0 | 3.0 | 0.00 | 0.06 | 0.06 | 76 | 1007.7 |
| 20260506204125 | 73 | 257 | 0.0 | 3.0 | 0.00 | 0.06 | 0.06 | 76 | 1007.7 |
| 20260506204011 | 73 | 321 | 0.0 | 3.0 | 0.00 | 0.06 | 0.06 | 75 | 1007.8 |
| 20260506203924 | 73 | 321 | 0.0 | 3.0 | 0.00 | 0.06 | 0.06 | 75 | 1007.8 |
| 20260506203830 | 73 | 309 | 0.0 | 2.0 | 0.00 | 0.06 | 0.06 | 75 | 1007.8 |
| 20260506203716 | 73 | 31 | 0.0 | 2.0 | 0.00 | 0.06 | 0.06 | 75 | 1007.8 |
| 20260506203622 | 73 | 360 | 0.0 | 2.0 | 0.00 | 0.06 | 0.06 | 76 | 1007.8 |
| 20260506203512 | 73 | 201 | 0.0 | 6.0 | 0.00 | 0.06 | 0.06 | 76 | 1007.7 |
| 20260506203418 | 73 | 36 | 0.0 | 6.0 | 0.00 | 0.06 | 0.06 | 75 | 1007.8 |
| 20260506203331 | 73 | 95 | 0.0 | 6.0 | 0.00 | 0.06 | 0.06 | 76 | 1007.8 |
| 20260506203217 | 73 | 78 | 0.0 | 6.0 | 0.00 | 0.06 | 0.06 | 76 | 1007.8 |
| 20260506203122 | 73 | 288 | 0.0 | 6.0 | 0.00 | 0.06 | 0.06 | 76 | 1007.8 |
| 20260506203056 | 72 | 336 | 0.0 | 6.0 | 0.00 | 0.06 | 0.06 | 76 | 1007.3 |
| 20260506203013 | 73 | 18 | 0.0 | 6.0 | 0.00 | 0.06 | 0.06 | 76 | 1007.8 |
| 20260506202919 | 73 | 30 | 0.0 | 6.0 | 0.00 | 0.06 | 0.06 | 76 | 1007.8 |
| 20260506202825 | 73 | 25 | 0.0 | 6.0 | 0.00 | 0.06 | 0.06 | 76 | 1007.7 |
| 20260506202711 | 73 | 53 | 0.0 | 6.0 | 0.00 | 0.06 | 0.06 | 76 | 1007.8 |
| 20260506202623 | 73 | 71 | 0.0 | 0.0 | 0.00 | 0.06 | 0.06 | 76 | 1007.8 |
| 20260506202514 | 73 | 61 | 0.0 | 1.0 | 0.00 | 0.06 | 0.06 | 76 | 1007.7 |
| 20260506202439 | 73 | 69 | 0.0 | 1.0 | 0.00 | 0.06 | 0.06 | 77 | 1007.7 |
| 20260506202332 | 73 | 18 | 0.0 | 1.0 | 0.00 | 0.06 | 0.06 | 76 | 1007.7 |
| 20260506202217 | 73 | 225 | 0.0 | 1.0 | 0.00 | 0.06 | 0.06 | 76 | 1007.7 |
| 20260506202143 | 73 | 355 | 0.0 | 1.0 | 0.00 | 0.06 | 0.06 | 76 | 1007.7 |
| 20260506202028 | 73 | 355 | 0.0 | 1.0 | 0.00 | 0.06 | 0.06 | 76 | 1007.8 |
| 20260506201914 | 73 | 138 | 0.0 | 1.0 | 0.01 | 0.06 | 0.06 | 76 | 1007.8 |
| 20260506201831 | 73 | 28 | 0.0 | 1.0 | 0.01 | 0.06 | 0.06 | 77 | 1007.8 |
| 20260506201718 | 73 | 49 | 0.0 | 1.0 | 0.01 | 0.06 | 0.06 | 76 | 1007.8 |
| 20260506201623 | 72 | 17 | 0.0 | 1.0 | 0.01 | 0.06 | 0.06 | 78 | 1007.8 |
| 20260506201550 | 72 | 307 | 0.0 | 1.0 | 0.01 | 0.06 | 0.06 | 77 | 1007.3 |
| 20260506201509 | 72 | 20 | 0.0 | 1.0 | 0.01 | 0.06 | 0.06 | 76 | 1007.8 |
| 20260506201415 | 72 | 31 | 0.0 | 1.0 | 0.01 | 0.06 | 0.06 | 77 | 1007.8 |
| 20260506201332 | 72 | 331 | 0.0 | 1.0 | 0.01 | 0.06 | 0.06 | 77 | 1007.8 |
| 20260506201238 | 72 | 300 | 0.0 | 1.0 | 0.01 | 0.06 | 0.06 | 78 | 1007.8 |
| 20260506201123 | 72 | 333 | 0.0 | 1.0 | 0.01 | 0.06 | 0.06 | 77 | 1007.8 |
| 20260506201009 | 72 | 5 | 0.0 | 7.0 | 0.01 | 0.06 | 0.06 | 77 | 1007.8 |
| 20260506200915 | 72 | 274 | 0.0 | 7.0 | 0.01 | 0.06 | 0.06 | 77 | 1007.8 |
| 20260506200828 | 72 | 78 | 0.0 | 7.0 | 0.01 | 0.06 | 0.06 | 79 | 1007.8 |
| 20260506200718 | 72 | 80 | 0.0 | 7.0 | 0.01 | 0.06 | 0.06 | 77 | 1007.8 |
| 20260506200624 | 72 | 97 | 0.0 | 7.0 | 0.01 | 0.06 | 0.06 | 78 | 1007.8 |
| 20260506200510 | 72 | 38 | 0.0 | 7.0 | 0.01 | 0.06 | 0.06 | 78 | 1007.8 |
| 20260506200416 | 72 | 44 | 0.0 | 7.0 | 0.01 | 0.06 | 0.06 | 78 | 1007.8 |
| 20260506200349 | 72 | 286 | 1.0 | 7.0 | 0.01 | 0.06 | 0.06 | 77 | 1007.8 |
| 20260506200214 | 72 | 177 | 2.0 | 7.0 | 0.01 | 0.06 | 0.06 | 77 | 1007.8 |
| 20260506200124 | 72 | 273 | 1.0 | 5.0 | 0.01 | 0.06 | 0.06 | 78 | 1007.8 |
| 20260506200044 | 71 | 315 | 0.0 | 6.0 | 0.01 | 0.06 | 0.06 | 78 | 1007.3 |
| 20260506200010 | 72 | 81 | 0.0 | 6.0 | 0.01 | 0.06 | 0.06 | 78 | 1007.8 |
| 20260506195916 | 72 | 16 | 0.0 | 6.0 | 0.01 | 0.06 | 0.06 | 77 | 1007.8 |